[[{"header":{"parameterUnit":"m.s-1","parameterCategory":1,"la1":31.0,"la2":29.5877,"lo1":-88.7671,"lo2":-86.6584,"dy":0.0162,"dx":0.0185,"nx":115,"ny":88,"refTime":"2026-05-16T12:00:00:Z","depth":0,"parameterNumber":2,"parameterNumberName":"U-component_of_WINDS"},"data":[0.0,0.0,0.0,0.0,0.0,0.0,0.0,0.0,0.0,0.0,0.0,0.0,0.0,0.0,0.0,0.0,0.0,0.0,0.0,0.0,0.0,0.0,0.0,0.0,0.0,0.0,0.0,0.0,0.0,0.0,0.0,0.0,0.0,0.0,0.0,0.0,0.0,0.0,0.0,0.0,0.0,0.0,0.0,0.0,0.0,0.0,0.0,0.0,0.0,0.0,0.0,0.0,0.0,0.0,0.0,0.0,0.0,0.0,0.0,0.0,0.0,0.0,0.0,0.0,0.0,0.0,0.0,0.0,0.0,0.0,0.0,0.0,0.0,0.0,0.0,0.0,0.0,0.0,0.0,0.0,0.0,0.0,0.0,0.0,0.0,0.0,0.0,0.0,0.0,0.0,0.0,0.0,0.0,0.0,0.0,0.0,0.0,0.0,0.0,0.0,0.0,0.0,0.0,0.0,0.0,0.0,0.0,0.0,0.0,0.0,0.0,0.0,0.0,0.0,0.0,0.0,0.0,0.0,0.0,0.0,0.0,0.0,0.0,0.0,0.0,0.0,0.0,0.0,0.0,0.0,0.0,0.0,0.0,0.0,0.0,0.0,0.0,0.0,0.0,0.0,0.0,0.0,0.0,0.0,0.0,0.0,0.0,0.0,0.0,0.0,0.0,0.0,0.0,0.0,0.0,0.0,0.0,0.0,0.0,0.0,0.0,0.0,0.0,0.0,0.0,0.0,0.0,0.0,0.0,0.0,0.0,0.0,0.0,0.0,0.0,0.0,0.0,0.0,0.0,0.0,0.0,0.0,0.0,0.0,0.0,0.0,0.0,0.0,0.0,0.0,0.0,0.0,0.0,0.0,0.0,0.0,0.0,0.0,0.0,0.0,0.0,0.0,0.0,0.0,0.0,0.0,0.0,0.0,0.0,0.0,0.0,0.0,0.0,0.0,0.0,0.0,0.0,0.0,0.0,0.0,0.0,0.0,0.0,0.0,0.0,0.0,0.0,0.0,0.0,0.0,0.0,0.0,0.0,0.0,0.0,0.0,0.0,0.0,0.0,0.0,0.0,0.0,0.0,0.0,0.0,0.0,0.0,0.0,0.0,0.0,0.0,0.0,0.0,0.0,0.0,0.0,0.0,0.0,0.0,0.0,0.0,0.0,0.0,0.0,0.0,0.0,0.0,0.0,0.0,0.0,0.0,0.0,0.0,0.0,0.0,0.0,0.0,0.0,0.0,0.0,0.0,0.0,0.0,0.0,0.0,0.0,0.0,0.0,0.0,0.0,0.0,0.0,0.0,0.0,0.0,0.0,0.0,0.0,0.0,0.0,0.0,0.0,0.0,0.0,0.0,0.0,0.0,0.0,0.0,0.0,0.0,0.0,0.0,0.0,0.0,0.0,0.0,0.0,0.0,0.0,0.0,0.0,0.0,0.0,0.0,0.0,0.0,0.0,0.0,0.0,0.0,0.0,0.0,0.0,0.0,0.0,0.0,0.0,0.0,0.0,0.0,0.0,0.0,0.0,0.0,0.0,0.0,0.0,0.0,0.0,0.0,0.0,0.0,0.0,0.0,0.0,0.0,0.0,0.0,0.0,0.0,0.0,0.0,0.0,0.0,0.0,0.0,0.0,0.0,0.0,0.0,0.0,0.0,0.0,0.0,0.0,0.0,0.0,0.0,0.0,0.0,0.0,0.0,0.0,0.0,0.0,0.0,0.0,0.0,0.0,0.0,0.0,0.0,0.0,0.0,0.0,0.0,0.0,0.0,0.0,0.0,0.0,0.0,0.0,0.0,0.0,0.0,0.0,0.0,0.0,0.0,0.0,0.0,0.0,0.0,0.0,0.0,0.0,0.0,0.0,0.0,0.0,0.0,0.0,0.0,0.0,0.0,0.0,0.0,0.0,0.0,0.0,0.0,0.0,0.0,0.0,0.0,0.0,0.0,0.0,0.0,0.0,0.0,0.0,0.0,0.0,0.0,0.0,0.0,0.0,0.0,0.0,0.0,0.0,0.0,0.0,0.0,0.0,0.0,0.0,0.0,0.0,0.0,0.0,0.0,0.0,0.0,0.0,0.0,0.0,0.0,0.0,0.0,0.0,0.0,0.0,0.0,0.0,0.0,0.0,0.0,0.0,0.0,0.0,0.0,0.0,0.0,0.0,0.0,0.0,0.0,0.0,0.0,0.0,0.0,0.0,0.0,0.0,0.0,0.0,0.0,0.0,0.0,0.0,0.0,0.0,0.0,0.0,0.0,0.0,0.0,0.0,0.0,0.0,0.0,0.0,0.0,0.0,0.0,0.0,0.0,0.0,0.0,0.0,0.0,0.0,0.0,0.0,0.0,0.0,0.0,0.0,0.0,0.0,0.0,0.0,0.0,0.0,0.0,0.0,0.0,0.0,0.0,0.0,0.0,0.0,0.0,0.0,0.0,0.0,0.0,0.0,0.0,0.0,0.0,0.0,0.0,0.0,0.0,0.0,0.0,0.0,0.0,0.0,0.0,0.0,0.0,0.0,0.0,0.0,0.0,0.0,0.0,0.0,0.0,0.0,0.0,0.0,0.0,0.0,0.0,0.0,0.0,0.0,0.0,0.0,0.0,0.0,0.0,0.0,0.0,0.0,0.0,0.0,0.0,0.0,0.0,0.0,0.0,0.0,0.0,0.0,0.0,0.0,0.0,0.0,0.0,0.0,0.0,0.0,0.0,0.0,0.0,0.0,0.0,0.0,0.0,0.0,0.0,0.0,0.0,0.0,0.0,0.0,0.0,0.0,0.0,0.0,0.0,0.0,0.0,0.0,0.0,0.0,0.0,0.0,0.0,0.0,0.0,0.0,0.0,0.0,0.0,0.0,0.0,0.0,0.0,0.0,0.0,0.0,0.0,0.0,0.0,0.0,0.0,0.0,0.0,0.0,0.0,0.0,0.0,0.0,0.0,0.0,0.0,0.0,0.0,0.0,0.0,0.0,0.0,0.0,0.0,0.0,0.0,0.0,0.0,0.0,0.0,0.0,0.0,0.0,0.0,0.0,0.0,0.0,0.0,0.0,0.0,0.0,0.0,0.0,0.0,0.0,0.0,0.0,0.0,0.0,0.0,0.0,0.0,0.0,0.0,0.0,0.0,0.0,0.0,0.0,0.0,0.0,0.0,0.0,0.0,0.0,0.0,0.0,0.0,0.0,0.0,0.0,0.0,0.0,0.0,0.0,0.0,0.0,0.0,0.0,0.0,0.0,0.0,0.0,0.0,0.0,0.0,0.0,0.0,0.0,0.0,0.0,0.0,0.0,0.0,0.0,0.0,0.0,0.0,0.0,0.0,0.0,0.0,0.0,0.0,0.0,0.0,0.0,0.0,0.0,0.0,0.0,0.0,0.0,0.0,0.0,0.0,0.0,0.0,0.0,0.0,0.0,0.0,0.0,0.0,0.0,0.0,0.0,0.0,0.0,0.0,0.0,0.0,0.0,0.0,0.0,0.0,0.0,0.0,0.0,0.0,0.0,0.0,0.0,0.0,0.0,0.0,0.0,0.0,0.0,0.0,0.0,0.0,0.0,0.0,0.0,0.0,0.0,0.0,0.0,0.0,0.0,0.0,0.0,0.0,0.0,0.0,0.0,0.0,0.0,0.0,0.0,0.0,0.0,0.0,0.0,0.0,0.0,0.0,0.0,0.0,0.0,0.0,0.0,0.0,0.0,0.0,0.0,0.0,0.0,0.0,0.0,0.0,0.0,0.0,0.0,0.0,0.0,0.0,0.0,0.0,0.0,0.0,0.0,0.0,0.0,0.0,0.0,0.0,0.0,0.0,0.0,0.0,0.0,0.0,0.0,0.0,0.0,0.0,0.0,0.0,0.0,0.0,0.0,0.0,0.0,0.0,0.0,0.0,0.0,0.0,0.0,0.0,0.0,0.0,0.0,0.0,0.0,0.0,0.0,0.0,0.0,0.0,0.0,0.0,0.0,0.0,0.0,0.0,0.0,0.0,0.0,0.0,0.0,0.0,0.0,0.0,0.0,0.0,0.0,0.0,0.0,0.0,0.0,0.0,0.0,0.0,0.0,0.0,0.0,0.0,0.0,0.0,0.0,0.0,0.0,0.0,0.0,0.0,0.0,0.0,0.0,0.0,0.0,0.0,0.0,0.0,0.0,0.0,0.0,0.0,0.0,0.0,0.0,0.0,0.0,0.0,0.0,0.0,0.0,0.0,0.0,0.0,0.0,0.0,0.0,0.0,0.0,0.0,0.0,0.0,0.0,0.0,0.0,0.0,0.0,0.0,0.0,-2.8065,0.0,0.0,0.0,0.0,0.0,0.0,0.0,0.0,0.0,0.0,0.0,0.0,0.0,0.0,0.0,0.0,0.0,0.0,0.0,0.0,0.0,0.0,0.0,0.0,0.0,0.0,0.0,0.0,0.0,0.0,0.0,0.0,0.0,0.0,0.0,0.0,0.0,0.0,0.0,0.0,0.0,0.0,0.0,0.0,0.0,0.0,0.0,0.0,0.0,0.0,0.0,0.0,0.0,0.0,0.0,0.0,0.0,0.0,0.0,0.0,0.0,0.0,0.0,0.0,0.0,0.0,0.0,0.0,0.0,0.0,0.0,0.0,0.0,0.0,0.0,0.0,0.0,0.0,0.0,0.0,0.0,0.0,0.0,0.0,0.0,0.0,0.0,0.0,0.0,0.0,0.0,0.0,0.0,0.0,0.0,0.0,0.0,0.0,0.0,0.0,0.0,0.0,0.0,0.0,0.0,0.0,0.0,0.0,0.0,0.0,-3.2298,-3.1408,-3.2096,-3.107,-2.8096,0.0,0.0,0.0,0.0,0.0,0.0,0.0,0.0,0.0,0.0,0.0,0.0,0.0,0.0,0.0,0.0,0.0,0.0,0.0,0.0,0.0,0.0,0.0,0.0,0.0,0.0,0.0,0.0,0.0,0.0,0.0,0.0,0.0,0.0,0.0,0.0,0.0,0.0,0.0,0.0,0.0,0.0,0.0,0.0,0.0,0.0,0.0,0.0,0.0,0.0,0.0,0.0,0.0,0.0,0.0,0.0,0.0,0.0,0.0,0.0,0.0,0.0,0.0,0.0,0.0,0.0,0.0,0.0,0.0,0.0,0.0,0.0,0.0,0.0,0.0,0.0,0.0,0.0,0.0,0.0,0.0,0.0,0.0,0.0,0.0,0.0,0.0,0.0,0.0,0.0,0.0,0.0,0.0,0.0,0.0,0.0,0.0,0.0,0.0,0.0,0.0,0.0,0.0,0.0,0.0,0.0,0.0,0.0,0.0,0.0,0.0,0.0,-3.2694,-3.1543,-2.8977,0.0,0.0,0.0,0.0,0.0,0.0,0.0,0.0,0.0,0.0,0.0,0.0,0.0,0.0,0.0,0.0,0.0,0.0,0.0,0.0,0.0,0.0,0.0,0.0,0.0,0.0,0.0,0.0,0.0,0.0,0.0,0.0,0.0,0.0,0.0,0.0,0.0,0.0,0.0,0.0,0.0,0.0,0.0,0.0,0.0,0.0,0.0,0.0,0.0,0.0,0.0,0.0,0.0,0.0,0.0,0.0,0.0,0.0,0.0,0.0,0.0,0.0,0.0,0.0,0.0,0.0,0.0,0.0,0.0,0.0,0.0,0.0,0.0,0.0,0.0,0.0,0.0,0.0,0.0,0.0,0.0,0.0,0.0,0.0,0.0,0.0,0.0,0.0,0.0,0.0,0.0,0.0,0.0,0.0,0.0,0.0,0.0,0.0,0.0,0.0,0.0,0.0,0.0,0.0,0.0,0.0,0.0,0.0,0.0,0.0,-3.2888,-3.4312,-3.4965,0.0,-3.1584,0.0,0.0,0.0,0.0,0.0,0.0,0.0,0.0,0.0,0.0,0.0,0.0,0.0,0.0,0.0,0.0,0.0,0.0,0.0,0.0,0.0,0.0,0.0,0.0,0.0,0.0,0.0,0.0,0.0,0.0,0.0,0.0,0.0,0.0,0.0,0.0,0.0,0.0,0.0,0.0,0.0,0.0,0.0,0.0,0.0,0.0,0.0,0.0,0.0,0.0,0.0,0.0,0.0,0.0,0.0,0.0,0.0,0.0,0.0,0.0,0.0,0.0,0.0,0.0,0.0,0.0,0.0,0.0,0.0,0.0,0.0,0.0,0.0,0.0,0.0,0.0,0.0,0.0,0.0,0.0,0.0,0.0,0.0,0.0,0.0,0.0,0.0,0.0,0.0,0.0,0.0,0.0,0.0,0.0,0.0,0.0,0.0,0.0,0.0,0.0,0.0,0.0,0.0,0.0,0.0,0.0,0.0,0.0,0.0,0.0,-3.3984,-3.4644,-3.3971,-3.2803,0.0,0.0,0.0,0.0,0.0,0.0,0.0,0.0,0.0,0.0,0.0,0.0,0.0,0.0,0.0,0.0,0.0,0.0,0.0,0.0,0.0,0.0,0.0,0.0,0.0,0.0,0.0,0.0,0.0,0.0,0.0,0.0,0.0,0.0,0.0,0.0,0.0,0.0,0.0,0.0,0.0,0.0,0.0,0.0,0.0,0.0,0.0,0.0,0.0,0.0,0.0,0.0,0.0,0.0,0.0,0.0,0.0,0.0,0.0,0.0,0.0,0.0,0.0,0.0,0.0,0.0,0.0,0.0,0.0,0.0,0.0,0.0,0.0,0.0,0.0,0.0,0.0,0.0,0.0,0.0,0.0,0.0,0.0,0.0,0.0,0.0,0.0,0.0,0.0,0.0,0.0,0.0,0.0,0.0,0.0,0.0,0.0,0.0,0.0,0.0,0.0,0.0,0.0,0.0,0.0,0.0,0.0,0.0,0.0,0.0,-3.403,-3.4902,-3.525,-3.3929,-3.2283,-3.0397,0.0,0.0,0.0,0.0,0.0,0.0,0.0,0.0,0.0,0.0,0.0,0.0,0.0,0.0,0.0,0.0,0.0,0.0,0.0,0.0,0.0,0.0,0.0,0.0,0.0,0.0,0.0,0.0,0.0,0.0,0.0,0.0,0.0,0.0,0.0,0.0,0.0,0.0,0.0,0.0,0.0,0.0,0.0,0.0,0.0,0.0,0.0,0.0,0.0,0.0,0.0,0.0,0.0,0.0,0.0,0.0,0.0,0.0,0.0,0.0,0.0,0.0,0.0,0.0,0.0,0.0,0.0,0.0,0.0,0.0,0.0,0.0,0.0,0.0,0.0,0.0,0.0,0.0,0.0,0.0,0.0,0.0,0.0,0.0,0.0,0.0,0.0,0.0,0.0,0.0,0.0,0.0,0.0,0.0,0.0,0.0,0.0,0.0,0.0,0.0,0.0,0.0,0.0,0.0,0.0,0.0,0.0,0.0,0.0,-3.5769,-3.5425,-3.693,-3.6165,-3.3758,0.0,0.0,0.0,0.0,0.0,0.0,0.0,0.0,0.0,0.0,0.0,0.0,0.0,0.0,0.0,0.0,0.0,0.0,0.0,0.0,0.0,0.0,0.0,0.0,0.0,0.0,0.0,0.0,0.0,0.0,0.0,0.0,0.0,0.0,0.0,0.0,0.0,0.0,0.0,0.0,0.0,0.0,0.0,0.0,0.0,0.0,0.0,0.0,0.0,0.0,0.0,0.0,0.0,0.0,0.0,0.0,0.0,0.0,0.0,0.0,0.0,0.0,0.0,0.0,0.0,0.0,0.0,0.0,0.0,0.0,0.0,0.0,0.0,0.0,0.0,0.0,0.0,0.0,0.0,0.0,0.0,0.0,0.0,0.0,0.0,0.0,0.0,0.0,0.0,0.0,0.0,0.0,0.0,0.0,0.0,0.0,0.0,0.0,0.0,0.0,0.0,0.0,0.0,0.0,0.0,0.0,0.0,0.0,0.0,-3.3293,-3.4225,-3.6054,-3.8627,-3.5424,-3.2786,0.0,0.0,0.0,0.0,0.0,0.0,0.0,0.0,0.0,0.0,0.0,0.0,0.0,0.0,0.0,0.0,0.0,0.0,0.0,0.0,0.0,0.0,0.0,0.0,0.0,0.0,0.0,0.0,0.0,0.0,0.0,0.0,0.0,0.0,0.0,0.0,0.0,0.0,0.0,0.0,0.0,0.0,0.0,0.0,0.0,0.0,0.0,0.0,0.0,0.0,0.0,0.0,0.0,0.0,0.0,0.0,0.0,0.0,0.0,0.0,0.0,0.0,0.0,0.0,0.0,0.0,0.0,0.0,0.0,0.0,0.0,0.0,0.0,0.0,0.0,0.0,0.0,0.0,0.0,0.0,0.0,0.0,0.0,0.0,0.0,0.0,0.0,0.0,0.0,0.0,0.0,0.0,0.0,0.0,0.0,0.0,0.0,0.0,0.0,0.0,0.0,0.0,0.0,0.0,0.0,0.0,0.0,0.0,0.0,-3.3147,0.0,-3.779,0.0,-3.543,-3.2266,0.0,0.0,0.0,0.0,0.0,0.0,0.0,0.0,0.0,0.0,0.0,0.0,0.0,0.0,0.0,0.0,0.0,0.0,0.0,0.0,0.0,0.0,0.0,0.0,0.0,0.0,0.0,0.0,0.0,0.0,0.0,0.0,0.0,0.0,0.0,0.0,0.0,0.0,0.0,0.0,0.0,0.0,0.0,0.0,0.0,0.0,0.0,0.0,0.0,0.0,0.0,0.0,0.0,0.0,0.0,0.0,0.0,0.0,0.0,0.0,0.0,0.0,0.0,0.0,0.0,0.0,0.0,0.0,0.0,0.0,0.0,0.0,0.0,0.0,0.0,0.0,0.0,0.0,0.0,0.0,0.0,0.0,0.0,0.0,0.0,0.0,0.0,0.0,0.0,0.0,0.0,0.0,0.0,0.0,0.0,0.0,0.0,0.0,0.0,0.0,0.0,0.0,0.0,0.0,0.0,0.0,0.0,0.0,-3.3105,-3.8135,-4.0662,-4.0385,-3.7461,-3.6289,-3.2305,0.0,0.0,0.0,0.0,0.0,0.0,0.0,0.0,0.0,0.0,0.0,0.0,0.0,0.0,0.0,0.0,0.0,0.0,0.0,0.0,0.0,0.0,0.0,0.0,0.0,0.0,0.0,0.0,0.0,0.0,0.0,0.0,0.0,0.0,0.0,0.0,0.0,0.0,0.0,0.0,0.0,0.0,0.0,0.0,0.0,0.0,0.0,0.0,0.0,0.0,0.0,0.0,0.0,0.0,0.0,0.0,0.0,0.0,0.0,0.0,0.0,0.0,0.0,0.0,0.0,0.0,0.0,0.0,0.0,0.0,0.0,0.0,0.0,0.0,0.0,0.0,0.0,0.0,0.0,0.0,0.0,0.0,0.0,0.0,0.0,0.0,0.0,0.0,0.0,0.0,0.0,0.0,0.0,0.0,0.0,0.0,0.0,0.0,0.0,0.0,0.0,0.0,0.0,0.0,0.0,0.0,0.0,0.0,0.0,-3.4758,-3.7292,-3.8708,-3.8661,-3.4605,-3.176,0.0,0.0,0.0,0.0,0.0,0.0,0.0,0.0,0.0,0.0,0.0,0.0,0.0,0.0,0.0,0.0,0.0,0.0,0.0,0.0,0.0,0.0,0.0,0.0,0.0,0.0,0.0,0.0,0.0,0.0,0.0,0.0,0.0,0.0,0.0,0.0,0.0,0.0,0.0,0.0,0.0,0.0,0.0,0.0,0.0,0.0,0.0,0.0,0.0,0.0,0.0,0.0,0.0,0.0,0.0,0.0,0.0,0.0,0.0,0.0,0.0,0.0,0.0,0.0,0.0,0.0,0.0,0.0,0.0,0.0,0.0,0.0,0.0,0.0,0.0,0.0,0.0,0.0,0.0,0.0,0.0,0.0,0.0,0.0,0.0,0.0,0.0,0.0,0.0,0.0,0.0,0.0,0.0,0.0,0.0,0.0,0.0,0.0,0.0,0.0,0.0,0.0,0.0,0.0,0.0,0.0,0.0,0.0,0.0,-3.5969,-3.8731,-4.033,-4.0457,-3.5642,-3.2631,-3.1696,0.0,0.0,0.0,0.0,0.0,0.0,0.0,0.0,0.0,0.0,0.0,0.0,0.0,0.0,0.0,0.0,0.0,0.0,0.0,0.0,0.0,0.0,0.0,0.0,0.0,0.0,0.0,0.0,0.0,0.0,0.0,0.0,0.0,0.0,0.0,0.0,0.0,0.0,0.0,0.0,0.0,0.0,0.0,0.0,0.0,0.0,0.0,0.0,0.0,0.0,0.0,0.0,0.0,0.0,0.0,0.0,0.0,0.0,0.0,0.0,0.0,0.0,0.0,0.0,0.0,0.0,0.0,0.0,0.0,0.0,0.0,0.0,0.0,0.0,0.0,0.0,0.0,0.0,0.0,0.0,0.0,0.0,0.0,0.0,0.0,0.0,0.0,0.0,0.0,0.0,0.0,0.0,0.0,0.0,0.0,0.0,0.0,0.0,0.0,0.0,0.0,0.0,0.0,0.0,0.0,0.0,0.0,0.0,-4.0612,-4.4095,-4.4717,-4.234,-3.8801,-3.468,0.0,0.0,0.0,0.0,0.0,0.0,0.0,0.0,0.0,0.0,0.0,0.0,0.0,0.0,0.0,0.0,0.0,0.0,0.0,0.0,0.0,0.0,0.0,0.0,0.0,0.0,0.0,0.0,0.0,0.0,0.0,0.0,0.0,0.0,0.0,0.0,0.0,0.0,0.0,0.0,0.0,0.0,0.0,0.0,0.0,0.0,0.0,0.0,0.0,0.0,0.0,0.0,0.0,0.0,0.0,0.0,0.0,0.0,0.0,0.0,0.0,0.0,0.0,0.0,0.0,0.0,0.0,0.0,0.0,0.0,0.0,0.0,0.0,0.0,0.0,0.0,0.0,0.0,0.0,0.0,0.0,0.0,0.0,0.0,0.0,0.0,0.0,0.0,0.0,0.0,0.0,0.0,0.0,0.0,0.0,0.0,0.0,0.0,0.0,0.0,0.0,0.0,0.0,0.0,0.0,0.0,0.0,0.0,0.0,-4.242,-4.5761,-4.6612,-4.4635,-3.9605,-3.5916,0.0,0.0,0.0,0.0,0.0,0.0,0.0,0.0,0.0,0.0,0.0,0.0,0.0,0.0,0.0,0.0,0.0,0.0,0.0,0.0,0.0,0.0,0.0,0.0,0.0,0.0,0.0,0.0,0.0,0.0,0.0,0.0,0.0,0.0,0.0,0.0,0.0,0.0,0.0,0.0,0.0,0.0,0.0,0.0,0.0,0.0,0.0,0.0,0.0,0.0,0.0,0.0,0.0,0.0,0.0,0.0,0.0,0.0,0.0,0.0,0.0,0.0,0.0,0.0,0.0,0.0,0.0,0.0,0.0,0.0,0.0,0.0,0.0,0.0,0.0,0.0,0.0,0.0,0.0,0.0,0.0,0.0,0.0,0.0,0.0,0.0,0.0,0.0,0.0,0.0,0.0,0.0,0.0,0.0,0.0,0.0,0.0,0.0,0.0,0.0,0.0,0.0,0.0,0.0,0.0,0.0,0.0,0.0,-4.1201,-4.4394,-4.7213,-4.8009,-4.6663,-4.1982,-3.8194,0.0,0.0,0.0,0.0,0.0,0.0,0.0,0.0,0.0,0.0,0.0,0.0,0.0,0.0,0.0,0.0,0.0,0.0,0.0,0.0,0.0,0.0,0.0,0.0,0.0,0.0,0.0,0.0,0.0,0.0,0.0,0.0,0.0,0.0,0.0,0.0,0.0,0.0,0.0,0.0,0.0,0.0,0.0,0.0,0.0,0.0,0.0,0.0,0.0,0.0,0.0,0.0,0.0,0.0,0.0,0.0,0.0,0.0,0.0,0.0,0.0,0.0,0.0,0.0,0.0,0.0,0.0,0.0,0.0,0.0,0.0,0.0,0.0,0.0,0.0,0.0,0.0,0.0,0.0,0.0,0.0,0.0,0.0,0.0,0.0,0.0,0.0,0.0,0.0,0.0,0.0,0.0,0.0,0.0,0.0,0.0,0.0,0.0,0.0,0.0,0.0,0.0,0.0,0.0,0.0,0.0,0.0,0.0,-4.2177,-4.6035,-4.8273,-4.898,-4.7982,-4.4837,-4.0758,0.0,0.0,0.0,0.0,0.0,0.0,0.0,0.0,0.0,0.0,0.0,0.0,0.0,0.0,0.0,0.0,0.0,0.0,0.0,0.0,0.0,0.0,0.0,0.0,0.0,0.0,0.0,0.0,0.0,0.0,0.0,0.0,0.0,0.0,0.0,0.0,0.0,0.0,0.0,0.0,0.0,0.0,0.0,0.0,0.0,0.0,0.0,0.0,0.0,0.0,0.0,0.0,0.0,0.0,0.0,0.0,0.0,0.0,0.0,0.0,0.0,0.0,0.0,0.0,0.0,0.0,0.0,0.0,0.0,0.0,0.0,0.0,0.0,0.0,0.0,0.0,0.0,0.0,0.0,0.0,0.0,0.0,0.0,0.0,0.0,0.0,0.0,0.0,0.0,0.0,0.0,0.0,0.0,0.0,0.0,0.0,0.0,0.0,0.0,0.0,0.0,0.0,0.0,0.0,0.0,0.0,0.0,0.0,-4.266,-4.4852,-4.7875,-4.8878,-4.7643,-4.47,-4.1008,0.0,0.0,0.0,0.0,0.0,0.0,0.0,0.0,0.0,0.0,0.0,0.0,0.0,0.0,0.0,0.0,0.0,0.0,0.0,0.0,0.0,0.0,0.0,0.0,0.0,0.0,0.0,0.0,0.0,0.0,0.0,0.0,0.0,0.0,0.0,0.0,0.0,0.0,0.0,0.0,0.0,0.0,0.0,0.0,0.0,0.0,0.0,0.0,-2.1852,0.0,0.0,0.0,0.0,0.0,0.0,0.0,0.0,0.0,0.0,0.0,0.0,0.0,0.0,0.0,0.0,0.0,0.0,0.0,0.0,0.0,0.0,0.0,0.0,0.0,0.0,0.0,0.0,0.0,0.0,0.0,0.0,0.0,0.0,0.0,0.0,0.0,0.0,0.0,0.0,0.0,0.0,0.0,0.0,0.0,0.0,0.0,0.0,0.0,0.0,0.0,0.0,0.0,0.0,0.0,0.0,0.0,0.0,0.0,-4.3403,-4.5434,-4.774,-4.8412,-4.7226,-4.463,-4.1275,0.0,0.0,0.0,0.0,0.0,0.0,0.0,0.0,0.0,0.0,0.0,0.0,0.0,0.0,0.0,0.0,0.0,0.0,0.0,0.0,0.0,0.0,0.0,0.0,0.0,0.0,0.0,0.0,0.0,0.0,0.0,0.0,0.0,0.0,0.0,0.0,0.0,0.0,0.0,0.0,0.0,0.0,0.0,0.0,0.0,0.0,0.0,0.0,0.0,0.0,0.0,0.0,0.0,0.0,0.0,0.0,0.0,0.0,0.0,0.0,0.0,0.0,0.0,0.0,0.0,0.0,0.0,0.0,0.0,0.0,0.0,0.0,0.0,0.0,0.0,0.0,0.0,0.0,0.0,0.0,0.0,0.0,0.0,0.0,0.0,0.0,0.0,0.0,0.0,0.0,0.0,0.0,0.0,0.0,0.0,0.0,0.0,0.0,0.0,0.0,0.0,0.0,0.0,0.0,0.0,0.0,0.0,-4.0292,-4.3781,-4.6148,-4.7462,-4.7678,-4.6742,-4.4404,-4.1359,-3.7604,0.0,0.0,0.0,0.0,0.0,0.0,0.0,0.0,0.0,0.0,0.0,0.0,0.0,0.0,0.0,0.0,0.0,0.0,0.0,0.0,0.0,0.0,0.0,0.0,0.0,0.0,0.0,0.0,0.0,0.0,0.0,0.0,0.0,0.0,0.0,0.0,0.0,0.0,-2.2601,-2.4745,0.0,0.0,0.0,0.0,0.0,0.0,0.0,0.0,-2.3177,0.0,0.0,0.0,0.0,0.0,0.0,0.0,0.0,0.0,0.0,0.0,0.0,0.0,0.0,0.0,0.0,0.0,0.0,0.0,0.0,0.0,0.0,0.0,0.0,0.0,0.0,0.0,0.0,0.0,0.0,0.0,0.0,0.0,0.0,0.0,0.0,0.0,0.0,0.0,0.0,0.0,0.0,0.0,0.0,0.0,0.0,0.0,0.0,0.0,0.0,0.0,0.0,0.0,0.0,0.0,0.0,-3.9001,-4.0622,-4.2568,-4.4942,-4.6504,-4.6714,-4.5494,-4.3524,-4.0718,-3.7071,0.0,0.0,0.0,0.0,0.0,0.0,0.0,0.0,0.0,0.0,0.0,0.0,0.0,0.0,0.0,0.0,0.0,0.0,0.0,0.0,0.0,0.0,0.0,0.0,0.0,0.0,0.0,0.0,0.0,0.0,0.0,0.0,0.0,0.0,0.0,0.0,0.0,0.0,0.0,-2.6622,-2.6832,0.0,0.0,0.0,0.0,0.0,0.0,0.0,0.0,-2.2622,0.0,0.0,0.0,0.0,0.0,0.0,0.0,0.0,0.0,0.0,0.0,0.0,0.0,0.0,0.0,0.0,0.0,0.0,0.0,0.0,0.0,0.0,0.0,0.0,0.0,0.0,0.0,0.0,0.0,0.0,0.0,0.0,0.0,0.0,0.0,0.0,0.0,0.0,0.0,0.0,0.0,0.0,0.0,0.0,0.0,0.0,0.0,0.0,0.0,0.0,0.0,0.0,0.0,0.0,0.0,-3.7845,-4.0469,-4.2691,-4.4636,-4.5443,-4.5385,-4.4315,-4.1372,-3.8354,0.0,0.0,0.0,0.0,0.0,0.0,0.0,0.0,0.0,0.0,0.0,0.0,0.0,0.0,0.0,0.0,0.0,0.0,0.0,0.0,0.0,0.0,0.0,0.0,0.0,0.0,0.0,0.0,0.0,0.0,0.0,0.0,0.0,0.0,0.0,0.0,0.0,0.0,0.0,0.0,-2.6919,-2.7421,-2.7377,0.0,0.0,0.0,0.0,0.0,0.0,-2.356,-2.3162,0.0,0.0,0.0,0.0,0.0,0.0,0.0,0.0,0.0,0.0,0.0,0.0,0.0,0.0,0.0,0.0,0.0,0.0,0.0,0.0,0.0,0.0,0.0,0.0,0.0,0.0,0.0,0.0,0.0,0.0,0.0,0.0,0.0,0.0,0.0,0.0,0.0,0.0,0.0,0.0,0.0,0.0,0.0,0.0,0.0,0.0,0.0,0.0,0.0,0.0,0.0,0.0,0.0,0.0,0.0,-3.5976,-3.9705,-4.2446,-4.4017,-4.4272,-4.3944,-4.3047,-3.9644,-3.6545,0.0,0.0,0.0,0.0,0.0,0.0,0.0,0.0,0.0,0.0,0.0,0.0,0.0,0.0,0.0,0.0,0.0,0.0,0.0,0.0,0.0,0.0,0.0,0.0,0.0,0.0,0.0,0.0,0.0,0.0,0.0,0.0,0.0,0.0,0.0,0.0,0.0,0.0,0.0,0.0,0.0,-2.7975,-2.7894,-2.6549,0.0,0.0,0.0,0.0,-2.4435,-2.4575,0.0,0.0,0.0,0.0,0.0,0.0,0.0,0.0,0.0,0.0,0.0,0.0,0.0,0.0,0.0,0.0,0.0,0.0,0.0,0.0,0.0,0.0,0.0,0.0,0.0,0.0,0.0,0.0,0.0,0.0,0.0,0.0,0.0,0.0,0.0,0.0,0.0,0.0,0.0,0.0,0.0,0.0,0.0,0.0,0.0,0.0,0.0,0.0,0.0,0.0,0.0,0.0,0.0,0.0,0.0,0.0,-3.4903,-3.7881,-4.0271,-4.2077,-4.2842,-4.2714,-4.1649,-3.9806,-3.7259,0.0,0.0,0.0,0.0,0.0,0.0,0.0,0.0,0.0,0.0,0.0,0.0,0.0,0.0,0.0,0.0,0.0,0.0,0.0,0.0,0.0,0.0,0.0,0.0,0.0,0.0,0.0,0.0,0.0,0.0,0.0,0.0,0.0,0.0,0.0,0.0,0.0,0.0,0.0,0.0,0.0,-2.8665,-2.6492,-2.634,-2.6102,0.0,0.0,-2.5178,-2.5159,-2.5876,0.0,0.0,0.0,0.0,0.0,0.0,0.0,0.0,0.0,0.0,0.0,0.0,0.0,0.0,0.0,0.0,0.0,0.0,0.0,0.0,0.0,0.0,0.0,0.0,0.0,0.0,0.0,0.0,0.0,0.0,0.0,0.0,0.0,0.0,0.0,0.0,0.0,0.0,0.0,0.0,0.0,0.0,0.0,0.0,0.0,0.0,0.0,0.0,0.0,0.0,0.0,0.0,0.0,0.0,0.0,-3.1046,-3.4748,-3.777,-4.0081,-4.1722,-4.215,-4.1689,-4.0344,-3.7898,-3.5074,0.0,0.0,0.0,0.0,0.0,0.0,0.0,0.0,0.0,0.0,0.0,0.0,0.0,0.0,0.0,0.0,0.0,0.0,0.0,0.0,0.0,0.0,0.0,0.0,0.0,0.0,0.0,0.0,0.0,0.0,0.0,0.0,0.0,0.0,0.0,0.0,0.0,0.0,0.0,0.0,0.0,0.0,-2.7358,-2.6893,0.0,0.0,0.0,-2.5938,-2.6313,0.0,0.0,0.0,0.0,0.0,0.0,0.0,0.0,0.0,0.0,0.0,0.0,0.0,0.0,0.0,0.0,0.0,0.0,0.0,0.0,0.0,0.0,0.0,0.0,0.0,0.0,0.0,0.0,0.0,0.0,0.0,0.0,0.0,0.0,0.0,0.0,0.0,0.0,0.0,0.0,0.0,0.0,0.0,0.0,0.0,0.0,0.0,0.0,0.0,0.0,0.0,0.0,0.0,0.0,0.0,0.0,0.0,-3.4421,-3.7626,-3.9944,-4.1305,-4.1182,-4.0512,-3.9288,-3.6378,0.0,0.0,0.0,0.0,0.0,0.0,0.0,0.0,0.0,0.0,0.0,0.0,0.0,0.0,0.0,0.0,0.0,0.0,0.0,0.0,0.0,0.0,0.0,0.0,0.0,0.0,0.0,-1.6604,0.0,0.0,0.0,0.0,0.0,0.0,0.0,0.0,0.0,0.0,0.0,0.0,0.0,0.0,-2.6916,-2.761,-2.7324,-2.7363,0.0,0.0,-2.6785,-2.6879,-2.6758,-2.585,0.0,0.0,0.0,0.0,0.0,0.0,0.0,0.0,0.0,0.0,0.0,0.0,0.0,0.0,0.0,0.0,0.0,0.0,0.0,0.0,0.0,0.0,0.0,0.0,0.0,0.0,0.0,0.0,0.0,0.0,0.0,0.0,0.0,0.0,0.0,0.0,0.0,0.0,0.0,0.0,0.0,0.0,0.0,0.0,0.0,0.0,0.0,0.0,0.0,0.0,0.0,0.0,0.0,0.0,0.0,-3.3502,-3.6913,-3.9147,-4.0161,-3.9542,-3.9023,-3.8651,-3.6381,-3.3589,0.0,0.0,0.0,0.0,0.0,0.0,0.0,0.0,0.0,0.0,0.0,0.0,0.0,0.0,0.0,0.0,0.0,0.0,0.0,0.0,0.0,0.0,0.0,0.0,0.0,0.0,0.0,0.0,0.0,0.0,0.0,0.0,0.0,0.0,0.0,0.0,0.0,0.0,0.0,0.0,0.0,-2.6626,-2.5875,-2.7206,-2.825,0.0,0.0,-2.7762,-2.6316,-2.7355,-2.6983,-2.3028,0.0,0.0,0.0,0.0,0.0,0.0,0.0,0.0,0.0,0.0,0.0,0.0,0.0,0.0,0.0,0.0,0.0,0.0,0.0,0.0,0.0,0.0,0.0,0.0,0.0,0.0,0.0,0.0,0.0,0.0,0.0,0.0,0.0,0.0,0.0,0.0,0.0,0.0,0.0,0.0,0.0,0.0,0.0,0.0,0.0,0.0,0.0,0.0,0.0,0.0,0.0,0.0,0.0,-3.0127,-3.3372,-3.6559,-3.8601,-3.9368,-3.914,-3.8516,-3.7524,-3.5715,-3.3097,0.0,0.0,0.0,0.0,0.0,0.0,0.0,0.0,0.0,0.0,0.0,0.0,0.0,0.0,0.0,0.0,0.0,0.0,0.0,0.0,0.0,0.0,0.0,0.0,0.0,0.0,0.0,0.0,-1.9244,-1.9733,-1.9733,0.0,0.0,0.0,0.0,0.0,0.0,0.0,0.0,0.0,0.0,-2.6527,-2.7046,-2.7874,0.0,0.0,-2.8403,-2.8119,-2.7889,-2.7138,-2.5885,-2.3788,-2.22,0.0,0.0,0.0,0.0,0.0,0.0,0.0,0.0,0.0,0.0,0.0,0.0,0.0,0.0,0.0,0.0,0.0,0.0,0.0,0.0,0.0,0.0,0.0,0.0,0.0,0.0,0.0,0.0,0.0,0.0,0.0,0.0,0.0,0.0,0.0,0.0,0.0,0.0,0.0,0.0,0.0,0.0,0.0,0.0,0.0,0.0,0.0,0.0,0.0,0.0,0.0,0.0,-2.9869,-3.3372,-3.6163,-3.8024,-3.8971,-3.8565,-3.7862,-3.6812,-3.5081,-3.2645,0.0,0.0,0.0,0.0,0.0,0.0,0.0,0.0,0.0,0.0,0.0,0.0,0.0,0.0,0.0,0.0,0.0,0.0,0.0,0.0,0.0,0.0,0.0,0.0,0.0,0.0,0.0,0.0,-1.995,-2.0052,-1.9787,0.0,0.0,0.0,0.0,0.0,0.0,0.0,0.0,0.0,0.0,-2.6626,-2.7842,-2.8128,-2.8323,-2.8603,-2.8086,-2.7713,-2.7901,-2.6502,-2.5014,-2.3881,0.0,0.0,0.0,0.0,0.0,0.0,0.0,0.0,0.0,0.0,0.0,0.0,0.0,0.0,0.0,0.0,0.0,0.0,0.0,0.0,0.0,0.0,0.0,0.0,0.0,0.0,0.0,0.0,0.0,0.0,0.0,0.0,0.0,0.0,0.0,0.0,0.0,0.0,0.0,0.0,0.0,0.0,0.0,0.0,0.0,0.0,0.0,0.0,0.0,0.0,0.0,0.0,0.0,-3.0395,-3.3372,-3.5656,-3.754,-3.887,-3.7608,-3.6846,-3.6728,-3.4607,-3.2357,-3.0038,0.0,0.0,0.0,0.0,0.0,0.0,0.0,0.0,0.0,0.0,0.0,0.0,0.0,0.0,0.0,0.0,0.0,0.0,0.0,0.0,0.0,0.0,0.0,0.0,0.0,0.0,-2.0448,-1.9785,-1.9051,0.0,0.0,0.0,0.0,0.0,0.0,0.0,0.0,0.0,0.0,-2.5558,-2.688,-2.7717,-2.7809,-2.7838,-2.7871,-2.7181,-2.6374,-2.5705,-2.5466,-2.4734,0.0,0.0,0.0,0.0,0.0,0.0,0.0,0.0,0.0,0.0,0.0,0.0,0.0,0.0,0.0,0.0,0.0,0.0,0.0,0.0,0.0,0.0,0.0,0.0,0.0,0.0,0.0,0.0,0.0,0.0,0.0,0.0,0.0,0.0,0.0,0.0,0.0,0.0,0.0,0.0,-3.0657,-3.148,0.0,0.0,0.0,0.0,0.0,0.0,0.0,0.0,0.0,0.0,0.0,0.0,-2.9668,-3.2649,-3.5407,-3.7049,-3.7506,-3.7066,-3.6558,-3.5994,-3.432,-3.1664,-2.7943,0.0,0.0,0.0,0.0,0.0,0.0,0.0,0.0,0.0,0.0,0.0,0.0,0.0,0.0,0.0,0.0,0.0,0.0,0.0,0.0,0.0,0.0,0.0,0.0,0.0,-2.036,0.0,0.0,0.0,0.0,0.0,0.0,0.0,0.0,0.0,0.0,0.0,-2.3997,-2.5585,-2.6722,-2.7695,-2.8473,-2.8136,-2.8,0.0,0.0,0.0,0.0,0.0,0.0,0.0,0.0,0.0,0.0,0.0,0.0,0.0,0.0,-2.1106,-1.8118,-1.7578,-1.754,-1.7451,0.0,0.0,0.0,0.0,0.0,0.0,0.0,0.0,0.0,0.0,0.0,0.0,0.0,0.0,0.0,0.0,-2.9759,0.0,0.0,0.0,0.0,0.0,0.0,0.0,0.0,-3.2913,-3.3295,-3.2542,-3.3555,-3.3005,0.0,-3.0705,-2.8611,0.0,0.0,0.0,0.0,0.0,0.0,0.0,0.0,-2.9311,-3.2009,-3.4419,-3.5823,-3.6048,-3.5823,-3.5317,-3.4552,-3.289,-3.0393,-2.6984,-2.473,-2.3073,0.0,0.0,0.0,0.0,0.0,0.0,0.0,0.0,0.0,0.0,0.0,0.0,0.0,0.0,0.0,0.0,0.0,0.0,0.0,0.0,0.0,0.0,0.0,-2.0398,0.0,0.0,0.0,0.0,0.0,0.0,0.0,0.0,0.0,-2.2511,-2.3795,-2.5227,-2.6814,-2.7695,-2.8319,-2.8546,0.0,0.0,0.0,0.0,0.0,0.0,0.0,-2.4188,-2.3827,-2.2903,-2.1943,-2.1183,-2.1639,-2.1964,-2.1517,0.0,0.0,-1.9321,-1.8672,-1.8506,-1.8453,-1.7822,-1.7426,-1.7785,-1.7861,-1.7887,0.0,0.0,0.0,0.0,0.0,0.0,0.0,0.0,-3.308,-3.2766,0.0,0.0,0.0,0.0,0.0,0.0,0.0,0.0,0.0,0.0,-3.5222,-3.5821,-3.4668,-3.5222,-3.4502,-3.2751,-3.3216,-3.1838,-2.8704,-2.6269,0.0,0.0,0.0,0.0,0.0,0.0,-2.9368,-3.1422,-3.2937,-3.3944,-3.4637,-3.397,-3.3265,-3.252,-3.0557,-2.8798,-2.729,-2.6289,-2.5126,-2.3685,-2.1299,0.0,0.0,0.0,0.0,0.0,0.0,0.0,0.0,0.0,0.0,0.0,0.0,0.0,0.0,0.0,0.0,0.0,0.0,0.0,0.0,-2.069,0.0,0.0,0.0,0.0,0.0,0.0,0.0,0.0,0.0,0.0,-2.4091,-2.4959,-2.6043,-2.7611,0.0,0.0,0.0,0.0,-2.7519,-2.683,-2.6279,-2.5973,-2.6039,-2.572,-2.5099,-2.4052,0.0,0.0,-2.1793,-2.1958,-2.1915,-2.0732,-2.1494,-2.2446,-2.2875,-2.1263,-2.0279,-2.0831,-1.939,-1.8471,-1.9051,-1.9113,-1.9161,-3.9484,0.0,0.0,0.0,0.0,-3.6207,-3.6941,-3.8377,-3.7734,-3.6911,-3.5968,-3.534,0.0,0.0,0.0,0.0,0.0,0.0,-3.3544,-3.4696,-3.5923,-3.6522,-3.6552,-3.6327,-3.5893,-3.534,-3.4577,-3.35,-3.2077,-3.0383,-2.764,-2.3953,0.0,0.0,0.0,0.0,-2.9555,-3.0759,-3.2606,-3.372,-3.3912,-3.3249,-3.2319,-3.1141,-3.0493,-2.9493,-2.803,-2.6747,-2.5651,-2.4681,-2.2085,0.0,0.0,0.0,0.0,0.0,0.0,0.0,0.0,0.0,0.0,0.0,0.0,0.0,0.0,0.0,0.0,0.0,0.0,0.0,-1.8752,-1.941,-1.9535,0.0,0.0,0.0,0.0,0.0,0.0,0.0,0.0,0.0,-2.5693,-2.6399,-2.7072,0.0,0.0,-2.8932,-2.8675,-2.7923,-2.7508,-2.7822,0.0,0.0,0.0,-2.5731,-2.4858,-2.4033,-2.3261,-2.2586,-2.2146,-2.2197,-2.2172,-2.1793,-2.1634,-2.1576,-2.1674,-2.1009,-2.0195,-1.973,-1.8986,-1.866,-1.9146,-1.9172,-1.9125,-4.318,-4.098,-3.9305,-3.8826,-3.914,-3.8751,-3.9424,-4.0741,-4.0098,-3.9499,-3.8931,-3.8048,-3.6237,-3.3768,-3.2617,0.0,0.0,0.0,-3.5385,-3.6671,-3.706,-3.7449,-3.7749,-3.715,-3.6716,-3.6417,-3.5147,-3.4294,-3.3873,-3.2826,-3.0421,-2.6853,0.0,0.0,-2.655,-2.8443,-2.9757,-3.0491,-3.1966,-3.2632,-3.2362,-3.1482,-3.0617,-2.9779,-2.9506,-2.8936,-2.8054,-2.6889,-2.6083,-2.5606,-2.3124,-2.11,0.0,0.0,0.0,0.0,0.0,0.0,0.0,0.0,0.0,0.0,0.0,-1.6409,-1.4707,0.0,0.0,0.0,-1.758,-1.8506,-1.9726,-2.0235,0.0,0.0,0.0,0.0,0.0,0.0,0.0,-2.3915,-2.4116,-2.4684,-2.6265,-2.6922,-2.7482,-2.8112,-2.8412,-2.8437,-2.8147,0.0,-2.7552,-2.77,-2.669,-2.6045,-2.6419,-2.5796,-2.4876,-2.3861,-2.294,-2.2344,-2.2296,-2.2076,-2.1989,-2.211,-2.1448,-2.072,-2.0737,-2.0232,-1.9705,-1.922,-1.8845,-1.8707,-1.899,-1.8922,-1.8869,-4.5923,-4.511,-4.2132,-4.0816,-4.0711,-4.0711,-4.1025,-4.1474,-4.0905,-4.095,-4.1369,-4.0187,-3.8886,-3.7449,-3.5564,0.0,0.0,-3.6357,-3.7285,-3.8467,-3.8467,-3.8467,-3.8437,-3.7734,-3.7105,-3.657,-3.519,-3.4593,-3.4563,-3.3873,-3.2632,-3.0821,-2.9535,-2.8801,-2.8652,-2.9322,-2.9939,-3.0507,-3.118,-3.1165,-3.0432,-2.9235,-2.8562,-2.8468,-2.7854,-2.7495,-2.743,-2.6687,-2.6255,-2.6185,-2.4124,-2.2283,-2.0922,0.0,0.0,0.0,0.0,0.0,0.0,0.0,0.0,0.0,0.0,0.0,0.0,0.0,0.0,0.0,-1.9081,0.0,-2.2076,-2.2262,0.0,0.0,0.0,-2.1857,-2.0521,-2.2209,-2.3609,-2.3988,0.0,0.0,0.0,0.0,-2.7394,-2.7751,-2.7855,-2.7618,-2.6886,-2.7427,-2.7558,-2.6823,-2.6911,-2.6859,-2.6081,-2.5603,-2.4845,-2.3657,-2.2786,-2.233,-2.2279,-2.1833,-2.1647,-2.2057,-2.0995,-1.9968,-1.993,-1.9329,-1.8874,-1.909,-1.8822,-1.8537,-1.8631,-1.8595,-1.8585,-4.5785,-4.5965,-4.5244,-4.4291,-4.3404,-4.3389,-4.314,-4.2826,-4.2701,-4.2447,-4.2141,-4.1841,-4.0651,-3.8835,-3.7375,-3.7075,-3.7719,-3.7868,-3.8392,-3.914,-3.917,-3.917,-3.911,-3.7973,-3.733,-3.7105,-3.5878,-3.5265,-3.522,-3.4577,-3.4024,-3.3515,-3.2228,-3.0582,-2.8712,-2.9729,-3.0357,-3.0507,-3.1152,-3.0943,-2.9819,-2.9011,-2.8113,-2.7096,-2.6916,-2.6587,-2.6078,-2.5401,-2.5017,-2.4972,-2.3106,-2.1633,-2.078,-1.8303,0.0,0.0,0.0,0.0,0.0,0.0,0.0,0.0,0.0,-1.7143,-1.4769,0.0,-1.9061,0.0,-2.0629,-2.1671,-2.1478,-2.1972,0.0,0.0,-2.3038,-2.3238,-2.3393,-2.3915,-2.4488,-2.5142,-2.5437,-2.5844,-2.6485,-2.6722,-2.689,-2.6971,-2.75,-2.7826,-2.7635,-2.7464,-2.7178,-2.6454,-2.6119,-2.5734,-2.5018,-2.4347,-2.3816,-2.346,-2.2784,-2.2313,-2.2313,-2.2161,-2.1921,-2.1515,-2.0673,-1.9862,-1.9287,-1.8572,-1.8144,-1.8144,-1.8051,-1.8114,-1.8516,-1.8422,-1.8351,-4.6417,-4.677,-4.6756,-4.5978,-4.4736,-4.4451,-4.3902,-4.3305,-4.3305,-4.3135,-4.2761,-4.2515,-4.1594,-4.0232,-3.9215,-3.8931,-3.9245,-3.899,-3.905,-3.9388,-3.9388,-3.9388,-3.9328,-3.8048,-3.7404,-3.736,-3.6118,-3.5489,-3.5474,-3.5115,-3.4771,-3.4503,-3.3455,-3.2078,-3.0432,-3.0761,-3.0943,-3.0928,-3.0718,-3.0313,-2.9606,-2.8663,-2.766,-2.6647,-2.6602,-2.6273,-2.563,-2.4963,-2.447,-2.4141,-2.2862,-2.171,-2.0733,-1.8999,-1.7773,0.0,0.0,0.0,0.0,0.0,0.0,0.0,0.0,0.0,0.0,0.0,-2.0041,0.0,-2.1811,0.0,-2.3124,-2.3528,-2.3951,-2.434,-2.4678,-2.4914,-2.4998,-2.5286,-2.5642,-2.6031,-2.6082,-2.6234,-2.664,-2.6708,-2.6708,-2.6708,-2.7083,-2.7241,-2.6931,-2.668,-2.628,-2.5577,-2.5241,-2.4863,-2.4135,-2.3376,-2.2919,-2.2868,-2.2581,-2.2313,-2.2279,-2.1721,-2.1231,-2.1123,-2.0027,-1.9034,-1.8877,-1.8318,-1.7817,-1.7789,-1.7789,-1.7905,-1.8177,-1.8125,-1.8072,-4.7164,-4.7309,-4.7309,-4.6576,-4.5364,-4.4721,-4.3992,-4.3305,-4.3305,-4.3305,-4.326,-4.2656,-4.2096,-4.1497,-4.0726,-4.0412,-4.0367,-3.9723,-3.9388,-3.9388,-3.9388,-3.9388,-3.9364,-3.8138,-3.7494,-3.736,-3.6207,-3.5594,-3.5504,-3.5489,-3.519,-3.4638,-3.3858,-3.32,-3.2632,-3.1869,-3.1496,-3.1481,-3.0238,-2.9621,-2.9592,-2.8289,-2.724,-2.6512,-2.6467,-2.6108,-2.5352,-2.4784,-2.4201,-2.3625,-2.3032,-2.2113,-2.0882,-2.0109,-1.9136,0.0,-1.7204,0.0,0.0,0.0,0.0,0.0,0.0,0.0,0.0,-1.9512,-2.1194,-2.2541,-2.2818,-2.3621,-2.5262,-2.5546,-2.5646,-2.5662,-2.6269,-2.6437,-2.5862,-2.6302,-2.6708,-2.6708,-2.6708,-2.6708,-2.6708,-2.6708,-2.6708,-2.6691,-2.6725,-2.6503,-2.5794,-2.5692,-2.5404,-2.4508,-2.4271,-2.3915,-2.3359,-2.2733,-2.2347,-2.233,-2.233,-2.2313,-2.2313,-2.1282,-2.0504,-2.0754,-1.9536,-1.8391,-1.8724,-1.8217,-1.7805,-1.7789,-1.7789,-1.7811,-1.7833,-1.7845,-1.7789,-4.6358,-4.7309,-4.7309,-4.686,-4.6082,-4.5394,-4.4436,-4.3305,-4.3305,-4.3305,-4.3245,-4.2695,-4.2336,-4.2126,-4.0935,-4.0412,-4.0352,-3.9709,-3.9388,-3.9388,-3.9388,-3.9388,-3.9328,-3.8586,-3.7928,-3.7389,-3.6656,-3.6028,-3.5504,-3.5489,-3.5444,-3.5295,-3.4098,-3.3425,0.0,0.0,0.0,0.0,-3.0253,-2.9621,-2.9535,-2.8289,-2.7016,-2.5854,-2.5779,0.0,-2.4059,-2.3864,-2.3744,-2.358,-2.3011,0.0,0.0,0.0,0.0,0.0,0.0,0.0,0.0,0.0,0.0,0.0,-2.0055,-1.9594,-1.8672,-2.1146,-2.283,-2.2954,-2.4007,-2.4611,-2.4428,-2.5328,-2.5922,-2.5939,-2.6369,-2.664,-2.6488,-2.6623,-2.6708,-2.6708,-2.6708,-2.6708,-2.6708,-2.6708,-2.6708,-2.6708,-2.6708,-2.6404,-2.5676,-2.5559,-2.5101,-2.3881,-2.3173,-2.2733,-2.2547,-2.2398,-2.2313,-2.2313,-2.2313,-2.2313,-2.2262,-2.2107,-2.1316,-2.0589,-1.9866,-1.9152,-1.8285,-1.7884,-1.7789,-1.7789,-1.7789,-1.7789,-1.7789,-1.7789,-1.7789,-4.6166,0.0,-4.7309,-4.692,0.0,0.0,-4.4736,-4.3753,-4.3424,-4.3305,-4.3275,-4.2985,-4.2836,-4.2761,-4.1474,-4.0876,-4.0846,-3.9858,-3.9388,-3.9388,-3.9388,-3.9388,-3.9394,-3.8706,-3.8033,-3.7389,-3.6776,-3.6163,-3.5534,-3.5489,-3.534,-3.5013,-3.3978,-3.3335,-3.2976,-3.1989,-3.1496,-3.1496,-3.0238,-2.9621,-2.9562,-2.8289,-2.7136,-2.6138,0.0,0.0,0.0,0.0,0.0,0.0,0.0,0.0,0.0,0.0,0.0,-2.0198,-1.9869,-1.9824,-2.0154,-2.0183,-2.0468,-2.1141,-2.15,-2.1395,-2.0741,-2.2137,-2.3339,-2.4045,-2.4553,-2.4885,-2.5051,-2.5401,-2.5707,-2.5977,-2.5997,-2.6123,-2.659,-2.6487,-2.6453,-2.6657,-2.6708,-2.6708,-2.6708,-2.6708,-2.6708,-2.6708,-2.6691,-2.6319,-2.5287,-2.505,-2.4526,-2.3122,-2.2581,-2.2313,-2.2313,-2.2313,-2.2313,-2.2313,-2.2313,-2.2313,-2.2313,-2.1989,-2.1465,-2.0673,-1.9997,-1.9169,-1.8555,-1.8082,-1.7789,-1.7789,-1.7789,-1.7789,-1.7789,-1.7789,-1.7789,-4.5824,-4.6931,-4.6741,-4.6502,-4.6234,-4.5364,-4.4635,-4.4107,0.0,0.0,0.0,-4.3305,-4.3305,-4.32,-4.1968,-4.1422,-4.1332,-4.0023,-3.9388,-3.9388,-3.9388,-3.9388,-3.9358,-3.8841,-3.8227,-3.7569,-3.6956,-3.6312,-3.5684,-3.5564,-3.522,-3.4637,-3.3873,-3.311,-3.2333,-3.178,-3.1436,-3.1271,-3.0193,-2.9621,-2.9577,-2.8289,-2.7285,-2.6641,-2.6078,-2.548,-2.4799,-2.4126,-2.3535,-2.3077,-2.2927,-2.2568,-2.1924,-2.1874,-2.1834,-2.1695,-2.1695,-2.1754,-2.1859,-2.1859,-2.1919,-2.2024,-2.2553,-2.2853,-2.2868,-2.2868,-2.3442,-2.4788,-2.4496,-2.4632,-2.5484,-2.5278,-2.524,-2.5652,-2.5427,-2.5542,-2.628,-2.6192,-2.6174,-2.6521,-2.6641,-2.6708,-2.6708,-2.6708,-2.6708,-2.6708,-2.6708,-2.6183,-2.4846,-2.4254,-2.3646,-2.2615,-2.233,-2.2313,-2.2313,-2.2313,-2.2313,-2.2313,-2.2313,-2.2313,-2.2226,-2.1803,-2.1343,-2.0906,-1.9904,-1.9142,-1.8741,-1.8183,-1.7817,-1.7789,-1.7789,-1.7789,-1.7789,-1.7789,-1.7789,-4.4503,-4.5584,-4.4503,-4.4893,-4.6177,-4.4398,-4.356,-4.3439,-4.3334,-4.3305,-4.3305,-4.3305,-4.3305,-4.3215,-4.1968,-4.1422,-4.1294,-4.0008,-3.9388,0.0,-3.9388,-3.9388,-3.9409,-3.9284,-3.8916,-3.8242,-3.7584,-3.6956,-3.6342,-3.5774,-3.5459,-3.5205,-3.4113,-3.2886,-3.1735,-3.154,-3.1212,-3.0642,-2.9966,-2.9621,-2.9592,-2.8289,-2.7285,-2.6632,-2.6497,-2.6153,-2.5472,-2.4814,-2.4425,-2.4321,-2.3789,-2.3191,-2.2613,-2.2553,-2.2313,-2.1754,-2.1695,-2.1954,-2.2508,-2.2553,-2.2793,-2.3266,-2.3415,-2.3475,-2.346,-2.3475,-2.3591,-2.3815,-2.3809,-2.3767,-2.3948,-2.4307,-2.4536,-2.4672,-2.4989,-2.5278,-2.5451,-2.5744,-2.5979,-2.6085,-2.6453,-2.6674,-2.6657,-2.6674,-2.6708,-2.6708,-2.6623,-2.6133,-2.4728,-2.3393,-2.2632,-2.2347,-2.2313,-2.2313,-2.2313,-2.2313,-2.2313,-2.2313,-2.2313,-2.2313,-2.2313,-2.2096,-2.1542,-2.0424,-1.9909,-1.9297,-1.8295,-1.7901,-1.78,-1.7789,-1.7789,-1.7789,-1.7789,-1.7789,-1.7789,-4.3218,-4.4214,-4.3426,-4.355,-4.4292,-4.3344,-4.2747,-4.24,-4.2371,-4.2739,-4.329,-4.3305,-4.3305,-4.3185,-4.1968,-4.1422,-4.1362,-4.0023,-3.9388,-3.9388,-3.9388,-3.9388,-3.9388,-3.9388,-3.8871,-3.7883,-3.7554,-3.6911,-3.5998,-3.5639,-3.5325,-3.4876,-3.3619,-3.2482,-3.157,-3.1496,-3.1114,-3.0397,-2.9865,-2.9415,-2.9041,-2.8109,-2.745,-2.7136,-2.6821,-2.6467,-2.6153,-2.5486,-2.4978,-2.4597,-2.4306,-2.3864,-2.3242,-2.3197,-2.3062,-2.2757,-2.2727,-2.2862,-2.3146,-2.3197,-2.3295,-2.3565,-2.3595,-2.3595,-2.3595,-2.3595,-2.3709,-2.3991,-2.3773,-2.3745,-2.4006,-2.3991,-2.4074,-2.4369,-2.4389,-2.4572,-2.5051,-2.5125,-2.524,-2.5559,-2.6015,-2.6314,-2.6314,-2.6556,-2.6708,-2.6657,-2.6404,-2.5693,-2.4643,-2.3611,-2.2733,-2.2398,-2.2313,-2.2313,-2.2313,-2.2313,-2.2313,-2.2313,-2.2313,-2.2313,-2.2248,-2.1911,-2.115,-2.0441,-1.9757,-1.8943,-1.8143,-1.7933,-1.7833,-1.7789,-1.7789,-1.7789,-1.7789,-1.7789,-1.7789,-4.1936,-4.302,-4.2195,-4.1848,-4.1865,-4.1961,-4.1696,-4.1267,-4.1462,-4.1947,-4.2522,-4.2765,-4.3076,-4.3155,-4.1968,-4.1422,-4.1242,-4.0008,-3.9388,-3.9388,-3.9388,-3.9388,-3.9388,-3.9388,-3.8835,-3.7863,-3.7347,-3.6677,-3.5932,-3.5215,-3.454,-3.3888,-3.2725,-3.1915,-3.1497,-3.1117,-3.0645,-3.0055,-2.9403,-2.8889,-2.8521,-2.7602,-2.7265,-2.753,-2.6932,-2.6664,-2.6767,-2.6168,-2.5576,-2.5068,-2.4769,-2.4365,-2.3842,-2.3684,-2.3595,-2.3595,-2.3595,-2.3595,-2.3595,-2.3595,-2.3595,-2.3595,-2.3595,-2.3595,-2.3595,-2.3595,-2.3752,-2.4095,-2.3831,-2.3752,-2.4032,-2.3858,-2.3773,-2.4142,-2.3858,-2.3948,-2.4637,-2.4657,-2.4672,-2.5047,-2.5654,-2.6156,-2.612,-2.6418,-2.6691,-2.6607,-2.6065,-2.5321,-2.4609,-2.3881,-2.3139,-2.255,-2.2313,-2.2313,-2.2313,-2.2313,-2.2313,-2.2313,-2.2313,-2.2313,-2.2184,-2.153,-2.0763,-2.0403,-1.9555,-1.8726,-1.8282,-1.7978,-1.7766,-1.7692,-1.7715,-1.7777,-1.767,-1.7755,-1.7789,-4.0655,-4.1413,-4.0024,-3.9236,-3.9342,-3.9905,-4.0128,-4.0202,-4.1127,-4.1042,-4.0546,-4.1295,-4.233,-4.3031,-4.1953,-4.1422,-4.128,-4.0008,-3.9388,-3.9388,-3.9388,-3.9388,-3.9388,-3.9388,-3.9349,-3.8862,-3.7103,-3.6394,-3.6713,-3.4239,-3.2718,-3.2245,-3.1387,-3.1182,-3.1294,-3.0011,-2.9313,-2.936,-2.8074,-2.7708,-2.8182,-2.6552,-2.6242,-2.756,-2.6886,-2.6816,-2.7375,-2.6866,-2.6467,-2.6318,-2.5247,-2.4605,-2.447,-2.3954,-2.361,-2.364,-2.364,-2.3595,-2.361,-2.3595,-2.361,-2.3595,-2.3595,-2.3595,-2.3595,-2.3595,-2.3616,-2.3681,-2.3638,-2.3638,-2.3674,-2.3616,-2.3638,-2.3724,-2.3659,-2.3638,-2.3858,-2.4572,-2.4953,-2.4511,-2.5601,-2.6453,-2.605,-2.6384,-2.6691,-2.6674,-2.6065,-2.5338,-2.4609,-2.3864,-2.3139,-2.253,-2.2313,-2.2282,-2.2296,-2.2313,-2.2313,-2.2313,-2.2282,-2.2254,-2.2144,-2.1984,-2.165,-1.9818,-1.9601,-1.8963,-1.7959,-1.7582,-1.768,-1.7514,-1.7561,-1.7692,-1.7462,-1.7537,-1.7698,-3.9981,-4.0312,-3.8956,-3.7994,-3.7569,-3.8427,-3.8827,-3.8903,-3.9332,-4.0002,-4.0831,-4.0703,-4.1225,-4.2257,-4.1668,-4.1422,-4.1332,-4.0008,-3.9388,-3.9388,-3.9388,-3.9388,-3.9337,-3.8708,-3.8267,-3.7718,-3.5951,-3.502,-3.4761,-3.3366,-3.245,-3.2029,-3.1245,-3.0823,-3.0716,-2.9611,-2.8801,-2.832,-2.7159,-2.6654,-2.6745,-2.5934,-2.5892,-2.6747,-2.6229,-2.6188,-2.6823,-2.6681,-2.636,-2.599,-2.5808,-2.56,-2.5202,-2.4941,-2.4792,-2.4792,-2.4792,-2.4612,-2.4238,-2.4208,-2.4029,-2.3625,-2.3595,-2.3595,-2.3595,-2.3595,-2.3595,-2.3595,-2.3595,-2.3595,-2.3595,-2.3595,-2.3595,-2.3595,-2.3595,-2.3595,-2.3616,-2.3954,-2.4158,-2.4032,-2.474,-2.5451,-2.5633,-2.6228,-2.6641,-2.6607,-2.6082,-2.5372,-2.4594,-2.3864,-2.3139,-2.2454,-2.2075,-2.2032,-2.2209,-2.2313,-2.2282,-2.2237,-2.2046,-2.1884,-2.1805,-2.1023,-2.0137,-1.9056,-1.881,-1.8238,-1.6929,-1.7005,-1.7191,-1.7199,-1.7332,-1.742,-1.7076,-1.7117,-1.7191,-3.9697,-3.9521,-3.8467,-3.7462,-3.6679,-3.7341,-3.7632,-3.7665,-3.7926,-3.889,-4.0074,-3.9929,-4.0361,-4.104,-4.0998,-4.0959,-4.0719,-3.9245,-3.8694,-3.8892,-3.8694,-3.8531,-3.842,-3.7738,-3.7087,-3.641,-3.4851,-3.3468,-3.2553,-3.2336,-3.1998,-3.1509,-3.059,-3.0074,-3.0012,-2.8986,-2.8117,-2.7617,-2.6456,-2.5709,-2.554,-2.5066,-2.5231,-2.6041,-2.5673,-2.5646,-2.6176,-2.639,-2.6268,-2.5833,-2.5937,-2.5982,-2.589,-2.5524,-2.5373,-2.5576,-2.56,-2.5405,-2.4903,-2.4874,-2.4664,-2.4208,-2.4014,-2.3879,-2.3857,-2.3879,-2.3879,-2.3909,-2.3879,-2.3864,-2.361,-2.3595,-2.3595,-2.3595,-2.3595,-2.3595,-2.3595,-2.3687,-2.3815,-2.3702,-2.4496,-2.5031,-2.5561,-2.6141,-2.6521,-2.659,-2.6251,-2.5426,-2.4585,-2.391,-2.3348,-2.2189,-2.172,-2.1748,-2.2032,-2.193,-2.1959,-2.1901,-2.1598,-2.143,-2.143,-2.04,-1.956,-1.9293,-1.8263,-1.7501,-1.7023,-1.6947,-1.6876,-1.7055,-1.7117,-1.7038,-1.6725,-1.6725,-1.6751,-3.9697,-3.9521,-3.8467,-3.7663,-3.7147,-3.6713,-3.6487,-3.6675,-3.7586,-3.7586,-3.7335,-3.8961,-3.9899,-4.0019,-3.9872,-3.978,-3.9463,-3.7479,-3.7007,-3.7701,-3.6944,-3.6395,-3.6355,-3.6277,-3.6249,-3.5991,-3.4041,-3.2045,-3.0266,-3.0859,-3.0913,-3.0306,-2.9039,-2.8825,-2.9358,-2.7753,-2.7007,-2.7366,-2.5877,-2.4917,-2.4759,-2.3838,-2.4028,-2.5231,-2.537,-2.5342,-2.5508,-2.6122,-2.6441,-2.6426,-2.5313,-2.5208,-2.6248,-2.5326,-2.4975,-2.558,-2.5674,-2.5606,-2.5561,-2.5555,-2.5472,-2.5367,-2.4813,-2.4537,-2.4545,-2.4477,-2.4477,-2.456,-2.456,-2.4321,-2.3834,-2.367,-2.361,-2.3595,-2.3595,-2.3595,-2.3595,-2.3985,-2.4074,-2.3927,-2.4816,-2.5744,-2.6419,-2.6262,-2.6349,-2.6573,-2.6607,-2.5932,-2.4462,-2.422,-2.3261,-2.1885,-2.1384,-2.1597,-2.1582,-2.1477,-2.1229,-2.1182,-2.1213,-2.1023,-2.1023,-2.0831,-2.0177,-1.9593,-1.892,-1.82,-1.7501,-1.7087,-1.6947,-1.6913,-1.6752,-1.6591,-1.6386,-1.6607,-1.6594,-3.9484,-3.9094,-3.8329,-3.7688,-3.7136,-3.6644,-3.6417,-3.6439,-3.6849,-3.7243,-3.7586,-3.8379,-3.9139,-3.9844,-3.8347,-3.8475,-3.9412,-3.7282,-3.6408,-3.6735,-3.6369,-3.6198,-3.6132,-3.5561,-3.5238,-3.4914,-3.3061,-3.126,-3.0008,-3.0139,-3.0261,-2.9996,-2.8788,-2.8415,-2.8567,-2.7344,-2.6658,-2.6794,-2.5807,-2.5159,-2.4808,-2.4079,-2.3806,-2.3897,-2.393,-2.415,-2.4681,-2.5398,-2.5783,-2.5797,-2.5706,-2.5993,-2.641,-2.6063,-2.6101,-2.6782,-2.6881,-2.6701,-2.6303,-2.6228,-2.6048,-2.5583,-2.4938,-2.4767,-2.504,-2.4852,-2.4734,-2.5116,-2.5232,-2.5068,-2.4792,-2.4133,-2.3595,-2.3595,-2.3595,-2.3595,-2.3616,-2.3773,-2.3794,-2.3837,-2.4732,-2.5524,-2.5801,-2.6123,-2.6521,-2.6573,-2.5929,-2.5089,-2.4339,-2.3456,-2.2461,-2.1627,-2.1023,-2.0765,-2.0749,-2.0975,-2.0975,-2.091,-2.083,-2.0633,-2.055,-2.033,-1.9764,-1.9061,-1.87,-1.8362,-1.7502,-1.7483,-1.727,-1.6882,-1.6722,-1.6472,-1.6101,-1.6294,-1.6208,-3.9471,-3.9044,-3.8316,-3.7801,-3.7374,-3.6707,-3.6417,-3.6417,-3.6417,-3.6837,-3.7461,-3.754,-3.8211,-3.8857,-3.7105,-3.7043,-3.839,-3.6307,-3.5386,-3.5668,-3.5346,-3.5183,-3.5075,-3.4498,-3.4178,-3.3884,-3.2314,-3.0834,-2.9905,-2.9779,-2.9897,-2.9977,-2.8732,-2.8198,-2.8125,-2.7116,-2.6487,-2.6386,-2.5933,-2.541,-2.5034,-2.4368,-2.3828,-2.3421,-2.3208,-2.3335,-2.3914,-2.4866,-2.5259,-2.5175,-2.5769,-2.6149,-2.6149,-2.6149,-2.6496,-2.7137,-2.7225,-2.7179,-2.6966,-2.6941,-2.6722,-2.6264,-2.5409,-2.5145,-2.5771,-2.5243,-2.5243,-2.5723,-2.5929,-2.5914,-2.5719,-2.4911,-2.4178,-2.3954,-2.3744,-2.361,-2.3595,-2.3595,-2.3709,-2.3906,-2.4302,-2.4772,-2.5163,-2.5601,-2.5928,-2.6176,-2.5414,-2.4944,-2.4281,-2.3519,-2.2246,-2.1697,-2.1094,-2.0596,-2.0352,-2.0345,-2.043,-2.0379,-2.0398,-2.0227,-2.0106,-1.9839,-1.9456,-1.8687,-1.8207,-1.7953,-1.7824,-1.7803,-1.7544,-1.7132,-1.6849,-1.6637,-1.6291,-1.5962,-1.5946,-3.9697,-3.9496,-3.8479,-3.7977,-3.7776,-3.681,-3.6417,-3.6417,-3.6417,-3.6499,-3.6628,-3.6487,-3.7243,-3.7684,-3.6404,-3.5981,-3.629,-3.4521,-3.392,-3.454,-3.3755,-3.3356,-3.3356,-3.3368,-3.3182,-3.3068,-3.1942,-3.0834,-2.9854,-2.9779,-2.9819,-2.9604,-2.8749,-2.8171,-2.8108,-2.7138,-2.6537,-2.6399,-2.5971,-2.5636,-2.5473,-2.4632,-2.4117,-2.3954,-2.3459,-2.3201,-2.3248,-2.4567,-2.5007,-2.4523,-2.5021,-2.5384,-2.5398,-2.5453,-2.5783,-2.6469,-2.6563,-2.693,-2.7454,-2.7525,-2.7465,-2.7215,-2.6272,-2.5799,-2.6352,-2.5875,-2.5749,-2.644,-2.6538,-2.6553,-2.6488,-2.5944,-2.5247,-2.4694,-2.4178,-2.3864,-2.3699,-2.361,-2.3773,-2.4137,-2.4074,-2.4137,-2.4756,-2.507,-2.5147,-2.5454,-2.5553,-2.5335,-2.4497,-2.4056,-2.3522,-2.2167,-2.1211,-2.0714,-2.0177,-1.9726,-1.9744,-1.978,-1.9869,-1.9818,-1.9871,-1.9693,-1.9543,-1.8942,-1.858,-1.8326,-1.8386,-1.8355,-1.8128,-1.7728,-1.7343,-1.6923,-1.6503,-1.6219,-1.5949,-3.9697,-3.9559,-3.8479,-3.8002,-3.7864,-3.6835,-3.6417,-3.6417,-3.6417,-3.6417,-3.6417,-3.6417,-3.701,-3.7502,-3.631,-3.5884,-3.6309,-3.4535,-3.3649,-3.3577,-3.324,-3.3124,-3.3124,-3.3124,-3.2709,-3.1976,-3.1587,-3.0834,-2.998,-2.9792,-2.9779,-2.9628,-2.9038,-2.8473,-2.8084,-2.7394,-2.6914,-2.6512,-2.6323,-2.6047,-2.5636,-2.5272,-2.4933,-2.4544,-2.3985,-2.3728,-2.3746,-2.4328,-2.4523,-2.4292,-2.4523,-2.4652,-2.4738,-2.5133,-2.5728,-2.6457,-2.6982,-2.7306,-2.7534,-2.7585,-2.7585,-2.7429,-2.6685,-2.6612,-2.702,-2.6138,-2.6033,-2.6954,-2.6868,-2.6674,-2.7056,-2.6701,-2.6033,-2.5375,-2.5083,-2.4664,-2.4208,-2.3864,-2.3711,-2.3837,-2.4012,-2.4307,-2.4672,-2.4891,-2.5335,-2.5473,-2.5437,-2.4996,-2.4643,-2.3889,-2.3046,-2.2109,-2.1479,-2.1,-2.0576,-2.0139,-1.9899,-1.9839,-1.9798,-1.9723,-1.9723,-1.9693,-1.9528,-1.9316,-1.8986,-1.8867,-1.8927,-1.8882,-1.8655,-1.8461,-1.818,-1.7595,-1.6906,-1.6488,-1.6234,-3.9697,-3.9584,-3.8705,-3.8191,-3.7927,-3.7036,-3.6581,-3.643,-3.6417,-3.6417,-3.6417,-3.6417,-3.6743,-3.7165,-3.6295,-3.5976,-3.5973,-3.4749,-3.3909,-3.3395,-3.3174,-3.3124,-3.3124,-3.3124,-3.2629,-3.18,-3.1486,-3.0947,-3.0131,-2.9905,-2.9779,-2.9691,-2.9176,-2.8649,-2.8097,-2.7557,-2.704,-2.6575,-2.6474,-2.6323,-2.595,-2.5711,-2.5435,-2.5059,-2.4393,-2.4029,-2.3985,-2.394,-2.3855,-2.3855,-2.3855,-2.3972,-2.4292,-2.4509,-2.4894,-2.5646,-2.6322,-2.6759,-2.6837,-2.724,-2.7458,-2.7152,-2.6522,-2.6561,-2.7045,-2.6228,-2.6108,-2.7214,-2.7199,-2.7086,-2.7424,-2.7255,-2.6776,-2.6408,-2.5561,-2.4993,-2.4321,-2.3879,-2.3625,-2.3702,-2.3879,-2.4074,-2.4307,-2.4552,-2.5089,-2.5045,-2.5024,-2.4806,-2.4597,-2.4001,-2.3368,-2.2779,-2.2169,-2.1661,-2.1135,-2.0647,-2.0154,-2.0004,-1.9899,-1.9798,-1.9723,-1.9708,-1.9603,-1.9513,-1.9241,-1.9286,-1.9346,-1.9438,-1.9333,-1.9151,-1.8852,-1.8132,-1.7384,-1.6846,-1.6488,-3.9697,-3.9622,-3.9107,-3.8504,-3.7965,-3.7374,-3.687,-3.6455,-3.6417,-3.6417,-3.6417,-3.6417,-3.6452,-3.6452,-3.6329,-3.6062,-3.5504,-3.4947,-3.4336,-3.3809,-3.3357,-3.3124,-3.3124,-3.3124,-3.2729,-3.2152,-3.1637,-3.1097,-3.052,-3.003,-2.9779,-2.9716,-2.9289,-2.8725,-2.8235,-2.762,-2.7153,-2.67,-2.6537,-2.6474,-2.6411,-2.5996,-2.5707,-2.5598,-2.4732,-2.418,-2.4054,-2.3563,-2.3185,-2.3125,-2.3198,-2.3501,-2.3914,-2.3543,-2.3767,-2.4523,-2.5063,-2.5577,-2.5837,-2.689,-2.7306,-2.6642,-2.6256,-2.6027,-2.7034,-2.6242,-2.5986,-2.7382,-2.7316,-2.7357,-2.7484,-2.7525,-2.745,-2.727,-2.5869,-2.4687,-2.3894,-2.3729,-2.3595,-2.3595,-2.3595,-2.3616,-2.3702,-2.3815,-2.39,-2.4017,-2.4594,-2.4709,-2.4595,-2.4292,-2.4328,-2.3677,-2.2712,-2.2285,-2.1724,-2.0868,-2.0423,-2.0258,-2.0064,-1.9794,-1.9723,-1.9708,-1.9693,-1.9618,-1.9573,-1.9648,-1.9693,-1.9693,-1.9693,-1.9528,-1.9061,-1.8476,-1.7878,-1.7249,-1.6682,-3.9697,-3.9634,-3.9107,-3.8542,-3.7965,-3.7412,-3.692,-3.6443,-3.6417,-3.6417,-3.6417,-3.6417,-3.6417,-3.6417,-3.6405,-3.6069,-3.5508,-3.4944,-3.4437,-3.3872,-3.3332,-3.3149,-3.3124,-3.3111,-3.278,-3.2227,-3.1675,-3.1122,-3.0608,-3.0068,-2.9792,-2.9779,-2.9616,-2.9252,-2.8675,-2.8147,-2.762,-2.7115,-2.6675,-2.6499,-2.6461,-2.6348,-2.6273,-2.6197,-2.5544,-2.4971,-2.4556,-2.3622,-2.3108,-2.3095,-2.3095,-2.3155,-2.3454,-2.3708,-2.3972,-2.4308,-2.5398,-2.6135,-2.631,-2.7034,-2.7203,-2.6669,-2.6628,-2.6941,-2.6721,-2.596,-2.6188,-2.706,-2.6733,-2.6481,-2.7316,-2.7585,-2.7405,-2.6851,-2.5959,-2.5241,-2.4866,-2.4193,-2.3595,-2.3595,-2.3595,-2.3595,-2.3659,-2.3879,-2.4074,-2.4158,-2.4369,-2.4592,-2.4389,-2.4225,-2.4081,-2.3707,-2.3044,-2.2724,-2.2209,-2.1291,-2.0707,-2.0528,-2.0213,-1.9783,-1.9738,-1.9708,-1.9708,-1.9693,-1.9648,-1.9693,-1.9708,-1.9708,-1.9723,-1.9723,-1.9513,-1.9001,-1.8177,-1.7489,-1.6936,-3.9697,-3.9659,-3.9346,-3.8894,-3.8329,-3.7776,-3.7211,-3.6769,-3.6493,-3.6417,-3.6417,-3.6417,-3.6417,-3.6417,-3.6405,-3.6241,-3.5818,-3.5077,-3.4562,-3.4186,-3.3445,-3.3149,-3.3124,-3.3111,-3.2893,-3.2516,-3.1763,-3.1273,-3.0846,-3.0181,-2.9817,-2.9779,-2.9779,-2.9478,-2.8888,-2.8624,-2.8047,-2.7369,-2.6977,-2.6751,-2.6524,-2.6487,-2.6487,-2.6386,-2.59,-2.5347,-2.4795,-2.4148,-2.3622,-2.3246,-2.3095,-2.3095,-2.3125,-2.3501,-2.3796,-2.3855,-2.4909,-2.5536,-2.5755,-2.6508,-2.6904,-2.659,-2.6733,-2.6811,-2.6707,-2.6081,-2.6027,-2.7229,-2.6443,-2.6575,-2.7265,-2.7585,-2.742,-2.7091,-2.6422,-2.5809,-2.5277,-2.4208,-2.3684,-2.3595,-2.3595,-2.3595,-2.3595,-2.39,-2.4012,-2.408,-2.4225,-2.4204,-2.4059,-2.3906,-2.3779,-2.3516,-2.3385,-2.3131,-2.2868,-2.2099,-2.15,-2.1261,-2.0647,-2.0124,-1.9902,-1.9857,-1.9723,-1.9723,-1.9723,-1.9723,-1.9723,-1.9723,-1.9723,-1.9723,-1.9723,-1.9361,-1.8506,-1.7968,-1.7386,-3.9697,-3.9697,-3.9697,-3.9371,-3.8793,-3.8253,-3.7638,-3.7123,-3.6631,-3.6417,-3.6417,-3.6417,-3.6417,-3.6417,-3.6417,-3.6392,-3.6317,-3.5203,-3.465,-3.4148,-3.3533,-3.3124,-3.3124,-3.3124,-3.3099,-3.2842,-3.1951,-3.1512,-3.1122,-3.0344,-2.9892,-2.9817,-2.9779,-2.9541,-2.9126,-2.8913,-2.8386,-2.7708,-2.7318,-2.7052,-2.6713,-2.6575,-2.6487,-2.6411,-2.59,-2.5423,-2.5046,-2.47,-2.4311,-2.3358,-2.3233,-2.3195,-2.3158,-2.3108,-2.3138,-2.3322,-2.3989,-2.4481,-2.4567,-2.5673,-2.6283,-2.6095,-2.5769,-2.5946,-2.664,-2.6013,-2.5973,-2.7229,-2.6747,-2.6522,-2.7188,-2.7433,-2.7454,-2.7315,-2.6956,-2.6048,-2.5038,-2.4141,-2.367,-2.3595,-2.3595,-2.3595,-2.3595,-2.3595,-2.3616,-2.3837,-2.397,-2.3948,-2.3906,-2.3843,-2.373,-2.3608,-2.355,-2.3565,-2.3295,-2.2972,-2.2508,-2.2104,-2.1306,-2.0722,-2.0303,-2.0142,-1.9842,-1.9723,-1.9723,-1.9723,-1.9723,-1.9723,-1.969,-1.9723,-1.9723,-1.9331,-1.882,-1.8523,-1.8044,-3.9697,-3.9697,-3.9697,-3.9383,-3.8831,-3.8253,-3.7688,-3.7149,-3.6644,-3.6417,-3.6417,-3.6417,-3.6417,-3.6417,-3.6417,-3.6417,-3.6279,-3.5228,-3.4311,-3.342,-3.33,-3.3124,-3.3124,-3.3124,-3.3124,-3.2935,-3.2378,-3.1813,-3.1311,-3.0733,-3.0206,-2.9829,-2.9779,-2.9729,-2.9566,-2.9126,-2.8825,-2.8448,-2.777,-2.7329,-2.7065,-2.6713,-2.6524,-2.6461,-2.5959,-2.5611,-2.5385,-2.5001,-2.4675,-2.4387,-2.4023,-2.3659,-2.3271,-2.3183,-2.317,-2.3258,-2.3822,-2.429,-2.4452,-2.5035,-2.5398,-2.5091,-2.5618,-2.6135,-2.5769,-2.5646,-2.581,-2.6336,-2.5632,-2.5536,-2.6522,-2.6747,-2.7008,-2.7223,-2.7011,-2.6488,-2.6048,-2.5068,-2.4261,-2.3782,-2.3655,-2.3595,-2.361,-2.3595,-2.3595,-2.3616,-2.3659,-2.3702,-2.373,-2.3752,-2.3687,-2.3595,-2.3595,-2.3595,-2.3475,-2.3257,-2.2972,-2.2628,-2.1964,-2.1306,-2.0887,-2.0348,-2.0049,-1.9857,-1.9723,-1.969,-1.9654,-1.9617,-1.9566,-1.9654,-1.9639,-1.9254,-1.8936,-1.8795,-1.8792,-3.9697,-3.9697,-3.9697,-3.9383,-3.8831,-3.8241,-3.7701,-3.7149,-3.6656,-3.6417,-3.6417,-3.6417,-3.6417,-3.6417,-3.6417,-3.6417,-3.6153,-3.5228,-3.4135,-3.3363,-3.3124,-3.3124,-3.3124,-3.3124,-3.3111,-3.298,-3.2478,-3.1926,-3.1386,-3.0871,-3.0319,-2.9829,-2.9779,-2.9779,-2.9779,-2.9478,-2.9164,-2.8875,-2.8386,-2.7846,-2.7293,-2.7052,-2.6688,-2.6537,-2.6197,-2.6034,-2.5975,-2.5808,-2.5473,-2.5184,-2.4883,-2.4356,-2.3766,-2.3722,-2.3647,-2.3299,-2.376,-2.4194,-2.4398,-2.4624,-2.4879,-2.4821,-2.5287,-2.537,-2.5259,-2.5119,-2.5259,-2.5536,-2.5147,-2.4781,-2.5837,-2.639,-2.6707,-2.6964,-2.7085,-2.6808,-2.6165,-2.5462,-2.4799,-2.4261,-2.4118,-2.3909,-2.3774,-2.3684,-2.3595,-2.3595,-2.3595,-2.3638,-2.3638,-2.3644,-2.3659,-2.3595,-2.3595,-2.358,-2.355,-2.34,-2.3206,-2.2942,-2.2598,-2.1964,-2.149,-2.0857,-2.0243,-1.9994,-1.9712,-1.9581,-1.953,-1.9479,-1.935,-1.9262,-1.9185,-1.906,-1.8885,-1.8596,-1.8789,-3.9697,-3.9697,-3.9697,-3.9383,-3.8818,-3.8241,-3.7688,-3.7136,-3.6644,-3.6417,-3.6417,-3.6417,-3.6417,-3.6417,-3.6417,-3.6367,-3.5855,-3.5228,-3.4135,-3.3224,-3.3124,-3.3124,-3.3124,-3.3124,-3.3111,-3.3048,-3.2641,-3.2077,-3.1436,-3.0947,-3.047,-2.9917,-2.9779,-2.9779,-2.9779,-2.9767,-2.9553,-2.9151,-2.885,-2.8436,-2.7695,-2.7406,-2.7002,-2.6562,-2.6449,-2.6399,-2.6399,-2.6336,-2.6235,-2.5774,-2.5737,-2.5197,-2.4644,-2.4469,-2.4449,-2.3459,-2.3966,-2.4256,-2.4395,-2.4482,-2.4691,-2.525,-2.4976,-2.4865,-2.5096,-2.4912,-2.4887,-2.4765,-2.4595,-2.4308,-2.5161,-2.5591,-2.6122,-2.6563,-2.7126,-2.6872,-2.617,-2.5796,-2.5414,-2.4889,-2.453,-2.4231,-2.3932,-2.3759,-2.367,-2.3595,-2.3595,-2.3595,-2.3595,-2.3595,-2.3595,-2.3595,-2.3595,-2.3595,-2.3565,-2.355,-2.3355,-2.3236,-2.3017,-2.2601,-2.2069,-2.144,-2.0789,-2.0,-1.9674,-1.9446,-1.9151,-1.893,-1.8817,-1.8798,-1.8736,-1.865,-1.8527,-1.8366,-1.8627,-3.9697,-3.9697,-3.9697,-3.9371,-3.8818,-3.8253,-3.7676,-3.7149,-3.6631,-3.6417,-3.6417,-3.6417,-3.6417,-3.6417,-3.6417,-3.594,-3.524,-3.4763,-3.4123,-3.3275,-3.3124,-3.3124,-3.3124,-3.3124,-3.3124,-3.3068,-3.2867,-3.2407,-3.1637,-3.126,-3.0708,-2.9993,-2.9792,-2.9792,-2.9779,-2.9779,-2.9741,-2.9503,-2.9214,-2.8812,-2.8436,-2.7682,-2.7102,-2.6612,-2.6537,-2.6487,-2.6487,-2.6487,-2.6449,-2.6361,-2.6348,-2.5971,-2.541,-2.5059,-2.477,-2.4499,-2.4525,-2.4684,-2.4665,-2.4697,-2.4747,-2.4981,-2.5182,-2.5253,-2.5196,-2.5008,-2.4817,-2.4413,-2.4018,-2.3688,-2.4408,-2.4916,-2.5384,-2.6069,-2.6563,-2.6701,-2.6762,-2.6477,-2.5948,-2.5344,-2.4919,-2.456,-2.4246,-2.3969,-2.3789,-2.3684,-2.3595,-2.3595,-2.3595,-2.3595,-2.3595,-2.3595,-2.3595,-2.3595,-2.3595,-2.358,-2.352,-2.349,-2.3319,-2.318,-2.2649,-2.2063,-2.1337,-1.9967,-1.9209,-1.8889,-1.8612,-1.8414,-1.8283,-1.823,-1.823,-1.823,-1.8072,-1.7933,-1.8072,-3.9697,-3.9697,-3.9697,-3.9195,-3.8454,-3.814,-3.7513,-3.6784,-3.6531,-3.6417,-3.6417,-3.6417,-3.6417,-3.6417,-3.6417,-3.5755,-3.4964,-3.468,-3.4085,-3.3282,-3.3124,-3.3124,-3.3124,-3.3124,-3.3124,-3.3124,-3.3074,-3.2667,-3.1851,-3.1499,-3.0972,-3.0357,-2.9967,-2.9792,-2.9779,-2.9779,-2.9779,-2.9704,-2.9503,-2.9202,-2.8875,-2.7858,-2.7216,-2.6964,-2.665,-2.6499,-2.6487,-2.6487,-2.6487,-2.6474,-2.6487,-2.6323,-2.6072,-2.5774,-2.5398,-2.4988,-2.5051,-2.5064,-2.4895,-2.48,-2.4827,-2.4827,-2.5224,-2.521,-2.5036,-2.489,-2.481,-2.4512,-2.4063,-2.3997,-2.506,-2.484,-2.5105,-2.5557,-2.5883,-2.5975,-2.5973,-2.596,-2.579,-2.5557,-2.5264,-2.4868,-2.456,-2.4261,-2.3984,-2.3789,-2.3655,-2.3655,-2.3699,-2.3789,-2.3879,-2.3684,-2.3699,-2.3684,-2.367,-2.364,-2.3729,-2.3744,-2.3537,-2.3382,-2.2926,-2.223,-2.0707,-1.9079,-1.8596,-1.8534,-1.8185,-1.802,-1.7847,-1.7686,-1.7686,-1.7666,-1.7605,-1.7585,-1.7666,-3.9697,-3.9697,-3.9697,-3.9044,-3.8103,-3.8002,-3.7387,-3.6556,-3.6417,-3.6417,-3.6417,-3.6417,-3.6417,-3.6417,-3.6279,-3.5768,-3.4743,-3.468,-3.4085,-3.3269,-3.3124,-3.3124,-3.3124,-3.3124,-3.3124,-3.3124,-3.3111,-3.278,-3.219,-3.18,-3.1248,-3.0645,-3.0105,-2.9867,-2.9829,-2.9779,-2.9779,-2.9779,-2.9767,-2.949,-2.8837,-2.8122,-2.7544,-2.748,-2.7052,-2.6839,-2.6751,-2.6725,-2.6612,-2.6537,-2.6487,-2.6474,-2.6487,-2.6487,-2.6072,-2.5398,-2.5573,-2.5473,-2.5335,-2.5234,-2.5322,-2.5335,-2.5209,-2.5121,-2.4953,-2.4974,-2.4822,-2.4745,-2.4481,-2.4425,-2.5179,-2.5205,-2.5192,-2.5362,-2.547,-2.5419,-2.5307,-2.5323,-2.5494,-2.5382,-2.5344,-2.5166,-2.481,-2.4515,-2.4233,-2.435,-2.4238,-2.4178,-2.4223,-2.4335,-2.4306,-2.3947,-2.3834,-2.3789,-2.3759,-2.3684,-2.3849,-2.4022,-2.3672,-2.3369,-2.2833,-2.2205,-2.0563,-1.9149,-1.8644,-1.8541,-1.8085,-1.7551,-1.7291,-1.7146,-1.7126,-1.7105,-1.7076,-1.7034,-1.7055,-3.9697,-3.9697,-3.9697,-3.9044,-3.809,-3.8002,-3.7374,-3.648,-3.6417,-3.6417,-3.6417,-3.6417,-3.6417,-3.6417,-3.6417,-3.573,-3.5002,-3.4618,-3.4123,-3.325,-3.3124,-3.3124,-3.3124,-3.3124,-3.3124,-3.3124,-3.3124,-3.2742,-3.2365,-3.2152,-3.1599,-3.0831,-3.057,-3.0306,-2.9942,-2.9817,-2.9779,-2.9779,-2.9779,-2.9528,-2.9013,-2.875,-2.8398,-2.8097,-2.7846,-2.7607,-2.7278,-2.7203,-2.7065,-2.665,-2.6575,-2.6524,-2.6487,-2.6487,-2.6474,-2.6336,-2.6361,-2.6361,-2.621,-2.6109,-2.6097,-2.6072,-2.6147,-2.5963,-2.5598,-2.5134,-2.4921,-2.48,-2.4713,-2.4852,-2.5159,-2.4975,-2.5192,-2.5447,-2.5603,-2.5697,-2.5614,-2.478,-2.4951,-2.4761,-2.461,-2.498,-2.5026,-2.4733,-2.451,-2.4693,-2.4814,-2.4709,-2.455,-2.4515,-2.4414,-2.3975,-2.3793,-2.3772,-2.388,-2.3807,-2.3807,-2.4119,-2.3689,-2.3179,-2.2451,-2.1784,-2.1141,-1.9931,-1.9315,-1.8425,-1.7752,-1.7226,-1.6794,-1.6769,-1.7025,-1.6863,-1.6607,-1.6565,-1.6616,-3.9697,-3.9697,-3.9697,-3.9044,-3.8065,-3.8002,-3.7387,-3.6568,-3.6417,-3.6417,-3.6417,-3.6417,-3.6417,-3.6417,-3.6417,-3.5742,-3.4868,-3.468,-3.4123,-3.3312,-3.3124,-3.3124,-3.3124,-3.3124,-3.3124,-3.3124,-3.3111,-3.3061,-3.2654,-3.2328,-3.1876,-3.1524,-3.0894,-3.0532,-3.0218,-2.9942,-2.9817,-2.9779,-2.9767,-2.9666,-2.939,-2.9063,-2.8787,-2.8537,-2.8298,-2.8021,-2.7833,-2.7733,-2.7657,-2.7394,-2.7381,-2.7218,-2.7052,-2.6939,-2.6851,-2.6474,-2.6474,-2.6474,-2.6461,-2.6499,-2.6487,-2.6487,-2.6487,-2.6336,-2.6047,-2.5611,-2.5448,-2.5783,-2.5435,-2.541,-2.5548,-2.5423,-2.5449,-2.5594,-2.5691,-2.5314,-2.521,-2.4775,-2.4335,-2.4094,-2.3946,-2.4369,-2.4819,-2.4906,-2.4633,-2.4592,-2.4723,-2.4699,-2.437,-2.4073,-2.396,-2.3777,-2.3723,-2.3696,-2.3884,-2.3958,-2.3705,-2.3766,-2.3314,-2.2737,-2.1885,-2.1193,-2.0759,-2.0318,-1.9611,-1.8665,-1.7645,-1.7388,-1.7395,-1.7209,-1.7024,-1.6911,-1.6751,-1.6513,-1.6565,-3.9697,-3.9697,-3.9697,-3.9032,-3.8027,-3.8002,-3.7374,-3.6468,-3.6417,-3.6417,-3.6417,-3.6417,-3.6417,-3.6417,-3.6342,-3.5768,-3.4718,-3.468,-3.4035,-3.3407,-3.3124,-3.3124,-3.3124,-3.3124,-3.3124,-3.3124,-3.3124,-3.3086,-3.296,-3.2667,-3.239,-3.2202,-3.1458,-3.1022,-3.0708,-3.0331,-3.0018,-2.9779,-2.9779,-2.9767,-2.9666,-2.9339,-2.9176,-2.9026,-2.8775,-2.8461,-2.8335,-2.831,-2.8298,-2.8034,-2.7996,-2.7783,-2.7532,-2.7469,-2.7356,-2.7065,-2.6939,-2.6763,-2.67,-2.6637,-2.6524,-2.6487,-2.6487,-2.6461,-2.6424,-2.6059,-2.5946,-2.6336,-2.6097,-2.6122,-2.6273,-2.6034,-2.5954,-2.5812,-2.5668,-2.5003,-2.4563,-2.4621,-2.4406,-2.4048,-2.3876,-2.3714,-2.4189,-2.4778,-2.4805,-2.4569,-2.4557,-2.4642,-2.4348,-2.3931,-2.3873,-2.3832,-2.362,-2.3694,-2.3994,-2.4035,-2.3786,-2.344,-2.2998,-2.2306,-2.1485,-2.1037,-2.0729,-2.0261,-1.9773,-1.9375,-1.863,-1.8355,-1.8078,-1.7802,-1.7526,-1.725,-1.7036,-1.6751,-1.6572,-3.9697,-3.9697,-3.9697,-3.9044,-3.8002,-3.8002,-3.7374,-3.643,-3.6417,-3.6417,-3.6417,-3.6417,-3.6417,-3.6417,-3.6317,-3.5755,-3.468,-3.468,-3.4022,-3.3395,-3.3124,-3.3124,-3.3124,-3.3124,-3.3124,-3.3124,-3.3124,-3.3124,-3.3111,-3.3023,-3.2629,-3.224,-3.1935,-3.1725,-3.1336,-3.0834,-3.0306,-3.003,-2.9917,-2.9842,-2.9804,-2.9679,-2.9654,-2.9666,-2.9616,-2.944,-2.8888,-2.8838,-2.87,-2.836,-2.836,-2.8247,-2.8097,-2.8047,-2.7934,-2.7695,-2.7429,-2.7278,-2.7168,-2.6876,-2.6587,-2.6512,-2.6537,-2.6612,-2.6625,-2.6512,-2.6474,-2.6474,-2.6311,-2.6361,-2.6449,-2.6436,-2.6285,-2.6197,-2.5996,-2.5682,-2.531,-2.5267,-2.4947,-2.4236,-2.3928,-2.3882,-2.3738,-2.4361,-2.4639,-2.4434,-2.457,-2.4653,-2.4463,-2.4136,-2.4109,-2.4,-2.3618,-2.3697,-2.4172,-2.4044,-2.3616,-2.3312,-2.2978,-2.2067,-2.1105,-2.0813,-2.0664,-2.0205,-1.9762,-1.9699,-1.9585,-1.9058,-1.8606,-1.8317,-1.8041,-1.7827,-1.7501,-1.72,-1.6926,-3.9697,-3.9697,-3.9697,-3.9044,-3.8002,-3.8002,-3.7374,-3.6518,-3.6417,-3.6417,-3.6417,-3.6417,-3.6417,-3.6417,-3.6355,-3.5768,-3.4839,-3.468,-3.4022,-3.3407,-3.3124,-3.3124,-3.3124,-3.3124,-3.3124,-3.3124,-3.3124,-3.3124,-3.3124,-3.3124,-3.3048,-3.2717,-3.2428,-3.2152,-3.1763,-3.1373,-3.0834,-3.0444,-3.0244,-3.0168,-2.9804,-2.9779,-2.9779,-2.9779,-2.9779,-2.9704,-2.949,-2.9465,-2.9327,-2.9176,-2.9101,-2.8888,-2.8649,-2.8612,-2.8473,-2.8235,-2.7934,-2.7821,-2.7695,-2.7344,-2.7165,-2.7379,-2.7241,-2.7002,-2.6964,-2.6738,-2.6537,-2.6487,-2.6524,-2.6562,-2.6487,-2.6487,-2.6449,-2.6474,-2.6373,-2.6147,-2.5971,-2.5774,-2.5423,-2.4682,-2.4431,-2.4324,-2.4116,-2.3984,-2.42,-2.4325,-2.4502,-2.4597,-2.429,-2.4052,-2.3927,-2.3836,-2.349,-2.3576,-2.4007,-2.3754,-2.3379,-2.3138,-2.287,-2.1996,-2.1134,-2.0797,-2.0589,-2.0127,-1.9811,-1.9774,-1.9648,-1.9422,-1.9133,-1.8795,-1.8607,-1.8444,-1.8091,-1.7664,-1.7451,-3.9697,-3.9672,-3.9521,-3.8894,-3.8052,-3.8002,-3.7387,-3.6531,-3.6417,-3.6417,-3.6417,-3.6417,-3.6417,-3.6417,-3.638,-3.5906,-3.514,-3.4718,-3.4148,-3.3596,-3.3206,-3.3149,-3.3124,-3.3124,-3.3124,-3.3124,-3.3124,-3.3124,-3.3124,-3.3124,-3.3086,-3.2918,-3.2704,-3.2528,-3.2353,-3.1913,-3.1386,-3.0959,-3.0633,-3.0482,-3.0068,-2.9867,-2.9792,-2.9779,-2.9779,-2.9767,-2.9729,-2.9704,-2.9716,-2.9679,-2.9641,-2.9528,-2.9327,-2.9126,-2.8925,-2.8699,-2.8461,-2.836,-2.8222,-2.7934,-2.7733,-2.7858,-2.7745,-2.7557,-2.7419,-2.7203,-2.7092,-2.6801,-2.6776,-2.6688,-2.66,-2.6487,-2.6487,-2.6487,-2.6487,-2.6311,-2.6185,-2.6021,-2.5624,-2.5146,-2.5008,-2.4858,-2.4506,-2.4274,-2.4027,-2.4024,-2.3816,-2.3826,-2.364,-2.3467,-2.3395,-2.3331,-2.3221,-2.3466,-2.3774,-2.3495,-2.3186,-2.2795,-2.2495,-2.2061,-2.1375,-2.1048,-2.0704,-2.039,-2.0126,-1.9886,-1.9723,-1.9572,-1.9459,-1.9296,-1.907,-1.8807,-1.8581,-1.8179,-1.8041,-3.9685,-3.9622,-3.912,-3.8555,-3.7965,-3.8002,-3.7362,-3.648,-3.6417,-3.6417,-3.6417,-3.6417,-3.6417,-3.6417,-3.6417,-3.5968,-3.537,-3.4881,-3.4361,-3.3809,-3.3269,-3.3162,-3.3124,-3.3124,-3.3124,-3.3124,-3.3124,-3.3124,-3.3124,-3.3124,-3.3124,-3.3124,-3.3011,-3.293,-3.2968,-3.2478,-3.1926,-3.1386,-3.0922,-3.0683,-3.0419,-3.0043,-2.9817,-2.9779,-2.9779,-2.9779,-2.9779,-2.9779,-2.9779,-2.9779,-2.9779,-2.9716,-2.9654,-2.9641,-2.9591,-2.9553,-2.9139,-2.8913,-2.8838,-2.8349,-2.8298,-2.8323,-2.826,-2.8097,-2.8084,-2.7959,-2.772,-2.7306,-2.7304,-2.7052,-2.6776,-2.6537,-2.6587,-2.6487,-2.6487,-2.6461,-2.6323,-2.626,-2.5921,-2.5699,-2.5586,-2.541,-2.5013,-2.4612,-2.413,-2.3739,-2.3288,-2.312,-2.3133,-2.3108,-2.3108,-2.3095,-2.3095,-2.3215,-2.3454,-2.3275,-2.2976,-2.2581,-2.232,-2.2084,-2.1744,-2.1385,-2.1043,-2.0691,-2.0377,-2.0113,-1.9924,-1.9773,-1.966,-1.9522,-1.9284,-1.9045,-1.8869,-1.8769,-1.8681,-3.9484,-3.9183,-3.8994,-3.8329,-3.7525,-3.7462,-3.7023,-3.6493,-3.6417,-3.6417,-3.6417,-3.6417,-3.6417,-3.6417,-3.6367,-3.6069,-3.5495,-3.4931,-3.4424,-3.3897,-3.3345,-3.3187,-3.3124,-3.3124,-3.3124,-3.3124,-3.3124,-3.3124,-3.3124,-3.3124,-3.3124,-3.3124,-3.3124,-3.3124,-3.3043,-3.2792,-3.2503,-3.1938,-3.1424,-3.0972,-3.0608,-3.0118,-2.9804,-2.9804,-2.9779,-2.9779,-2.9779,-2.9779,-2.9779,-2.9779,-2.9779,-2.9779,-2.9779,-2.9779,-2.9779,-2.9779,-2.9503,-2.9515,-2.949,-2.9302,-2.9239,-2.9089,-2.885,-2.8662,-2.8649,-2.8285,-2.8034,-2.7896,-2.7833,-2.7544,-2.7168,-2.7055,-2.7002,-2.6575,-2.6487,-2.6487,-2.6424,-2.6436,-2.6298,-2.626,-2.6185,-2.5837,-2.5498,-2.5222,-2.4757,-2.4336,-2.3985,-2.3421,-2.3296,-2.317,-2.3108,-2.3108,-2.3095,-2.3095,-2.3095,-2.3095,-2.3095,-2.2862,-2.2728,-2.2615,-2.2221,-2.1782,-2.1368,-2.1043,-2.0666,-2.0302,-2.0038,-1.9798,-1.9798,-1.9685,-1.9497,-1.9434,-1.9359,-1.9371,-1.9434,-3.8637,-3.8517,-3.7878,-3.7506,-3.7188,-3.7186,-3.692,-3.648,-3.6417,-3.6417,-3.6417,-3.6417,-3.6417,-3.6417,-3.6367,-3.6292,-3.5755,-3.5027,-3.465,-3.4073,-3.3382,-3.3199,-3.3124,-3.3124,-3.3124,-3.3124,-3.3124,-3.3124,-3.3124,-3.3124,-3.3124,-3.3124,-3.3124,-3.3124,-3.3111,-3.298,-3.2893,-3.2403,-3.1976,-3.1424,-3.0934,-3.0432,-3.0005,-2.9854,-2.9779,-2.9779,-2.9779,-2.9779,-2.9779,-2.9779,-2.9779,-2.9779,-2.9779,-2.9779,-2.9779,-2.9779,-2.9779,-2.9779,-2.9741,-2.9741,-2.9641,-2.9654,-2.939,-2.9252,-2.9202,-2.8976,-2.8674,-2.8499,-2.8411,-2.8072,-2.7708,-2.7607,-2.7394,-2.7027,-2.7002,-2.7027,-2.6801,-2.6826,-2.665,-2.6637,-2.6461,-2.6185,-2.5984,-2.5757,-2.541,-2.5096,-2.477,-2.418,-2.3584,-2.3459,-2.3258,-2.312,-2.312,-2.3133,-2.312,-2.3095,-2.3095,-2.3095,-2.3007,-2.2895,-2.2681,-2.2259,-2.182,-2.1343,-2.093,-2.049,-2.0012,-1.9798,-1.9849,-1.9836,-1.9736,-1.9723,-1.9798,-1.9798,-1.9798,-3.728,-3.7692,-3.5998,-3.6063,-3.7039,-3.7098,-3.681,-3.6417,-3.6417,-3.6417,-3.6417,-3.6417,-3.6417,-3.6417,-3.6417,-3.638,-3.6119,-3.524,-3.4868,-3.4449,-3.3709,-3.3395,-3.3212,-3.3119,-3.3136,-3.3124,-3.3124,-3.3124,-3.3124,-3.3124,-3.3124,-3.3124,-3.3124,-3.3124,-3.3124,-3.3111,-3.3074,-3.2767,-3.234,-3.1851,-3.1386,-3.0909,-3.0419,-3.0143,-2.9967,-2.9892,-2.9842,-2.9779,-2.9779,-2.9779,-2.9779,-2.9779,-2.9779,-2.9779,-2.9779,-2.9779,-2.9779,-2.9779,-2.9779,-2.9779,-2.9779,-2.9779,-2.9741,-2.9754,-2.9691,-2.9528,-2.9289,-2.9076,-2.895,-2.8586,-2.826,-2.8172,-2.8072,-2.7934,-2.7896,-2.7695,-2.7369,-2.718,-2.6977,-2.6801,-2.6587,-2.6386,-2.6348,-2.6172,-2.5908,-2.5783,-2.541,-2.5021,-2.4494,-2.4048,-2.3747,-2.3133,-2.3145,-2.317,-2.3158,-2.3133,-2.3095,-2.3095,-2.3095,-2.3007,-2.2832,-2.2681,-2.2309,-2.1807,-2.1219,-2.0717,-2.0302,-2.0063,-1.9949,-1.9924,-1.9949,-1.9798,-1.9798,-1.9798,-1.9798,-3.7268,-3.7791,-3.601,-3.5771,-3.6574,-3.6609,-3.6543,-3.6417,-3.6417,-3.6417,-3.6417,-3.6417,-3.631,-3.6417,-3.6417,-3.637,-3.6094,-3.573,-3.5382,-3.4818,-3.4072,-3.3809,-3.352,-3.3307,-3.3199,-3.3124,-3.3124,-3.3124,-3.3124,-3.3124,-3.3124,-3.3124,-3.3124,-3.3124,-3.3124,-3.3124,-3.3124,-3.2998,-3.2541,-3.2202,-3.1876,-3.1424,-3.0884,-3.047,-3.0306,-3.0168,-2.988,-2.9792,-2.9779,-2.9779,-2.9779,-2.9779,-2.9779,-2.9779,-2.9779,-2.9779,-2.9779,-2.9779,-2.9779,-2.9779,-2.9779,-2.9779,-2.9779,-2.9779,-2.9779,-2.9754,-2.9691,-2.9515,-2.9402,-2.9101,-2.8837,-2.8725,-2.8574,-2.8461,-2.8411,-2.8222,-2.7908,-2.7645,-2.7394,-2.704,-2.6813,-2.6575,-2.6549,-2.6436,-2.621,-2.6223,-2.6059,-2.5669,-2.5259,-2.482,-2.4286,-2.3647,-2.3484,-2.3609,-2.3271,-2.317,-2.3133,-2.3095,-2.3095,-2.3095,-2.3007,-2.2857,-2.2656,-2.2259,-2.1631,-2.1106,-2.0603,-2.0453,-2.0401,-2.0238,-2.0239,-1.9974,-1.9811,-1.9849,-1.9823,-3.52,-3.5489,-3.3981,-3.3869,-3.4775,-3.5355,-3.5367,-3.5054,-3.5906,-3.6417,-3.631,-3.5823,-3.5906,-3.6263,-3.5858,-3.5547,-3.5498,-3.55,-3.5201,-3.4384,-3.4367,-3.4129,-3.3822,-3.3558,-3.3319,-3.3181,-3.3124,-3.3124,-3.3124,-3.3124,-3.3124,-3.3124,-3.3124,-3.3124,-3.3124,-3.3124,-3.3124,-3.3023,-3.2754,-3.2453,-3.2164,-3.1863,-3.1348,-3.0809,-3.067,-3.0344,-2.9905,-2.9829,-2.9804,-2.9792,-2.9779,-2.9779,-2.9779,-2.9779,-2.9779,-2.9779,-2.9779,-2.9779,-2.9779,-2.9779,-2.9779,-2.9779,-2.9779,-2.9779,-2.9779,-2.9767,-2.9754,-2.9704,-2.9704,-2.9641,-2.944,-2.9239,-2.9051,-2.885,-2.8775,-2.8699,-2.8436,-2.816,-2.777,-2.7344,-2.7052,-2.6776,-2.6625,-2.6537,-2.6474,-2.6411,-2.6285,-2.6009,-2.5682,-2.5297,-2.482,-2.4224,-2.4136,-2.4136,-2.3747,-2.3396,-2.3346,-2.3271,-2.3095,-2.3095,-2.3095,-2.3007,-2.2794,-2.2456,-2.2058,-2.1556,-2.1119,-2.1043,-2.0993,-2.083,-2.0727,-2.0677,-2.0401,-2.0024,-1.9962,-3.2048,-3.2443,-3.0989,-3.1348,-3.2292,-3.3613,-3.3464,-3.2543,-3.48,-3.6001,-3.5655,-3.4727,-3.4812,-3.515,-3.4605,-3.4471,-3.457,-3.4737,-3.4519,-3.3613,-3.4108,-3.4099,-3.3747,-3.3784,-3.3495,-3.3262,-3.3124,-3.3124,-3.3124,-3.3124,-3.3124,-3.3124,-3.3124,-3.3124,-3.3124,-3.3124,-3.3124,-3.3086,-3.3011,-3.278,-3.2466,-3.2152,-3.1813,-3.1022,-3.0771,-3.057,-3.008,-2.988,-2.9842,-2.9817,-2.9779,-2.9779,-2.9779,-2.9779,-2.9779,-2.9779,-2.9779,-2.9779,-2.9779,-2.9779,-2.9779,-2.9779,-2.9779,-2.9779,-2.9779,-2.9779,-2.9779,-2.9779,-2.9767,-2.9754,-2.9591,-2.9553,-2.9415,-2.9352,-2.9302,-2.9202,-2.9013,-2.8624,-2.8109,-2.7657,-2.7241,-2.6939,-2.6575,-2.6487,-2.6487,-2.6487,-2.6424,-2.6223,-2.6047,-2.5724,-2.5272,-2.4775,-2.4795,-2.4682,-2.4293,-2.3966,-2.3697,-2.3521,-2.3321,-2.3108,-2.312,-2.3032,-2.2932,-2.2669,-2.2418,-2.2096,-2.1744,-2.1644,-2.1543,-2.1481,-2.143,-2.1468,-2.1142,-2.0639,-2.0263,-3.194,-3.288,-3.2144,-3.148,-3.0968,-3.2241,-3.2028,-3.0968,-3.2532,-3.333,-3.3181,-3.2982,-3.3032,-3.3392,-3.3093,-3.3155,-3.3948,-3.3891,-3.3672,-3.3739,-3.3994,-3.3793,-3.3213,-3.3428,-3.3395,-3.3287,-3.3124,-3.3124,-3.3124,-3.3124,-3.3124,-3.3124,-3.3124,-3.3124,-3.3124,-3.3124,-3.3124,-3.3124,-3.3099,-3.3061,-3.2842,-3.2767,-3.2503,-3.1976,-3.17,-3.121,-3.0758,-3.0419,-3.0156,-2.9892,-2.9804,-2.9779,-2.9779,-2.9779,-2.9779,-2.9779,-2.9779,-2.9779,-2.9779,-2.9779,-2.9779,-2.9779,-2.9779,-2.9779,-2.9779,-2.9779,-2.9779,-2.9779,-2.9779,-2.9779,-2.9779,-2.9779,-2.9779,-2.9779,-2.9779,-2.9666,-2.9553,-2.9038,-2.8473,-2.7971,-2.7505,-2.709,-2.67,-2.6499,-2.6487,-2.6487,-2.6487,-2.6411,-2.6386,-2.616,-2.5674,-2.531,-2.536,-2.5197,-2.482,-2.4544,-2.4305,-2.4004,-2.3747,-2.3484,-2.3183,-2.307,-2.3007,-2.302,-2.2844,-2.2493,-2.2284,-2.2171,-2.2096,-2.2071,-2.1995,-2.1958,-2.1933,-2.1543,-2.1029,-3.047,-3.0947,-3.0693,-3.012,-2.9713,-3.0824,-3.0669,-2.9807,-3.0824,-3.1081,-3.0721,-3.1122,-3.1684,-3.1927,-3.1735,-3.1735,-3.2755,-3.3243,-3.3197,-3.3412,-3.3652,-3.3636,-3.3372,-3.2787,-3.2548,-3.2483,-3.2965,-3.3124,-3.3162,-3.3124,-3.3124,-3.3124,-3.3124,-3.3124,-3.3124,-3.3124,-3.3124,-3.3124,-3.3124,-3.3124,-3.3124,-3.3061,-3.278,-3.239,-3.2077,-3.1662,-3.1323,-3.0934,-3.0633,-3.0193,-2.9955,-2.9804,-2.9779,-2.9779,-2.9779,-2.9779,-2.9779,-2.9779,-2.9779,-2.9779,-2.9779,-2.9779,-2.9804,-2.9817,-2.9779,-2.9779,-2.9779,-2.9779,-2.9779,-2.9779,-2.9779,-2.9779,-2.9779,-2.9779,-2.9779,-2.9729,-2.9679,-2.9453,-2.8963,-2.8499,-2.7996,-2.7494,-2.709,-2.6575,-2.6562,-2.6487,-2.6487,-2.6499,-2.6499,-2.6487,-2.6059,-2.5774,-2.5799,-2.5649,-2.5285,-2.5071,-2.4888,-2.4594,-2.423,-2.3697,-2.3308,-2.317,-2.3095,-2.307,-2.3045,-2.2945,-2.2732,-2.2581,-2.2619,-2.2631,-2.2506,-2.238,-2.2314,-2.2218,-2.1847,-2.8667,-2.831,-2.8344,-2.8344,-2.8451,-2.9513,-2.9408,-2.8644,-2.9513,-2.946,-2.8751,-2.966,-3.0773,-3.0979,-3.0721,-3.0421,-3.0618,-3.1593,-3.214,-3.2543,-3.3082,-3.2548,-3.2111,-3.1771,-3.1926,-3.2376,-3.2926,-3.3171,-3.3338,-3.3224,-3.3124,-3.3124,-3.3124,-3.3124,-3.3124,-3.3124,-3.3124,-3.3124,-3.3124,-3.3124,-3.3124,-3.3124,-3.2792,-3.2503,-3.2277,-3.2014,-3.1675,-3.1424,-3.1198,-3.0733,-3.0244,-2.9967,-2.9804,-2.9779,-2.9779,-2.9779,-2.9779,-2.9779,-2.9779,-2.9779,-2.9779,-2.9792,-2.9829,-2.988,-2.988,-2.9892,-2.9892,-2.9804,-2.9804,-2.9779,-2.9779,-2.9779,-2.9779,-2.9779,-2.9779,-2.9779,-2.9767,-2.9754,-2.9365,-2.8938,-2.8461,-2.7946,-2.7369,-2.6876,-2.6713,-2.6625,-2.6549,-2.6524,-2.6524,-2.6499,-2.6298,-2.6185,-2.621,-2.6009,-2.5737,-2.5611,-2.5485,-2.5109,-2.4695,-2.4017,-2.3484,-2.3459,-2.3333,-2.3095,-2.307,-2.3002,-2.3015,-2.2932,-2.302,-2.2809,-2.2565,-2.223,-2.2219,-2.2182,-2.2367,-2.8369,-2.8301,-2.8301,-2.8301,-2.8335,-2.8601,-2.8548,-2.8344,-2.8548,-2.8495,-2.8451,-2.8451,-2.89,-2.9102,-2.89,-2.9049,-2.9964,-3.0535,-3.0525,-3.0732,-3.144,-3.0972,-3.0769,-3.1064,-3.183,-3.2311,-3.2819,-3.3564,-3.3332,-3.314,-3.3149,-3.3144,-3.3119,-3.3149,-3.3124,-3.3124,-3.3124,-3.3124,-3.3124,-3.3124,-3.3124,-3.3111,-3.3056,-3.293,-3.2948,-3.2541,-3.2227,-3.2064,-3.1725,-3.1273,-3.0708,-3.0256,-2.998,-2.9829,-2.9779,-2.9779,-2.9779,-2.9779,-2.9779,-2.9779,-2.9792,-2.9955,-3.0043,-3.0218,-3.0244,-3.0281,-3.0168,-2.9892,-2.9854,-2.9792,-2.9779,-2.9779,-2.9779,-2.9779,-2.9779,-2.9779,-2.9779,-2.9716,-2.9528,-2.9139,-2.8787,-2.8222,-2.7582,-2.7268,-2.7241,-2.7128,-2.6952,-2.6889,-2.6524,-2.6499,-2.6487,-2.6452,-2.6418,-2.6487,-2.6311,-2.6197,-2.6034,-2.5624,-2.5172,-2.4519,-2.4067,-2.3904,-2.3715,-2.3246,-2.3047,-2.2962,-2.3005,-2.275,-2.2463,-2.2194,-2.2113,-2.1985,-2.197,-2.1904,-2.1877]},{"header":{"parameterUnit":"m.s-1","parameterCategory":1,"la1":31.0,"la2":29.5877,"lo1":-88.7671,"lo2":-86.6584,"dy":0.0162,"dx":0.0185,"nx":115,"ny":88,"refTime":"2026-05-16T12:00:00:Z","depth":0,"parameterNumber":3,"parameterNumberName":"V-component_of_WINDS"},"data":[0.0,0.0,0.0,0.0,0.0,0.0,0.0,0.0,0.0,0.0,0.0,0.0,0.0,0.0,0.0,0.0,0.0,0.0,0.0,0.0,0.0,0.0,0.0,0.0,0.0,0.0,0.0,0.0,0.0,0.0,0.0,0.0,0.0,0.0,0.0,0.0,0.0,0.0,0.0,0.0,0.0,0.0,0.0,0.0,0.0,0.0,0.0,0.0,0.0,0.0,0.0,0.0,0.0,0.0,0.0,0.0,0.0,0.0,0.0,0.0,0.0,0.0,0.0,0.0,0.0,0.0,0.0,0.0,0.0,0.0,0.0,0.0,0.0,0.0,0.0,0.0,0.0,0.0,0.0,0.0,0.0,0.0,0.0,0.0,0.0,0.0,0.0,0.0,0.0,0.0,0.0,0.0,0.0,0.0,0.0,0.0,0.0,0.0,0.0,0.0,0.0,0.0,0.0,0.0,0.0,0.0,0.0,0.0,0.0,0.0,0.0,0.0,0.0,0.0,0.0,0.0,0.0,0.0,0.0,0.0,0.0,0.0,0.0,0.0,0.0,0.0,0.0,0.0,0.0,0.0,0.0,0.0,0.0,0.0,0.0,0.0,0.0,0.0,0.0,0.0,0.0,0.0,0.0,0.0,0.0,0.0,0.0,0.0,0.0,0.0,0.0,0.0,0.0,0.0,0.0,0.0,0.0,0.0,0.0,0.0,0.0,0.0,0.0,0.0,0.0,0.0,0.0,0.0,0.0,0.0,0.0,0.0,0.0,0.0,0.0,0.0,0.0,0.0,0.0,0.0,0.0,0.0,0.0,0.0,0.0,0.0,0.0,0.0,0.0,0.0,0.0,0.0,0.0,0.0,0.0,0.0,0.0,0.0,0.0,0.0,0.0,0.0,0.0,0.0,0.0,0.0,0.0,0.0,0.0,0.0,0.0,0.0,0.0,0.0,0.0,0.0,0.0,0.0,0.0,0.0,0.0,0.0,0.0,0.0,0.0,0.0,0.0,0.0,0.0,0.0,0.0,0.0,0.0,0.0,0.0,0.0,0.0,0.0,0.0,0.0,0.0,0.0,0.0,0.0,0.0,0.0,0.0,0.0,0.0,0.0,0.0,0.0,0.0,0.0,0.0,0.0,0.0,0.0,0.0,0.0,0.0,0.0,0.0,0.0,0.0,0.0,0.0,0.0,0.0,0.0,0.0,0.0,0.0,0.0,0.0,0.0,0.0,0.0,0.0,0.0,0.0,0.0,0.0,0.0,0.0,0.0,0.0,0.0,0.0,0.0,0.0,0.0,0.0,0.0,0.0,0.0,0.0,0.0,0.0,0.0,0.0,0.0,0.0,0.0,0.0,0.0,0.0,0.0,0.0,0.0,0.0,0.0,0.0,0.0,0.0,0.0,0.0,0.0,0.0,0.0,0.0,0.0,0.0,0.0,0.0,0.0,0.0,0.0,0.0,0.0,0.0,0.0,0.0,0.0,0.0,0.0,0.0,0.0,0.0,0.0,0.0,0.0,0.0,0.0,0.0,0.0,0.0,0.0,0.0,0.0,0.0,0.0,0.0,0.0,0.0,0.0,0.0,0.0,0.0,0.0,0.0,0.0,0.0,0.0,0.0,0.0,0.0,0.0,0.0,0.0,0.0,0.0,0.0,0.0,0.0,0.0,0.0,0.0,0.0,0.0,0.0,0.0,0.0,0.0,0.0,0.0,0.0,0.0,0.0,0.0,0.0,0.0,0.0,0.0,0.0,0.0,0.0,0.0,0.0,0.0,0.0,0.0,0.0,0.0,0.0,0.0,0.0,0.0,0.0,0.0,0.0,0.0,0.0,0.0,0.0,0.0,0.0,0.0,0.0,0.0,0.0,0.0,0.0,0.0,0.0,0.0,0.0,0.0,0.0,0.0,0.0,0.0,0.0,0.0,0.0,0.0,0.0,0.0,0.0,0.0,0.0,0.0,0.0,0.0,0.0,0.0,0.0,0.0,0.0,0.0,0.0,0.0,0.0,0.0,0.0,0.0,0.0,0.0,0.0,0.0,0.0,0.0,0.0,0.0,0.0,0.0,0.0,0.0,0.0,0.0,0.0,0.0,0.0,0.0,0.0,0.0,0.0,0.0,0.0,0.0,0.0,0.0,0.0,0.0,0.0,0.0,0.0,0.0,0.0,0.0,0.0,0.0,0.0,0.0,0.0,0.0,0.0,0.0,0.0,0.0,0.0,0.0,0.0,0.0,0.0,0.0,0.0,0.0,0.0,0.0,0.0,0.0,0.0,0.0,0.0,0.0,0.0,0.0,0.0,0.0,0.0,0.0,0.0,0.0,0.0,0.0,0.0,0.0,0.0,0.0,0.0,0.0,0.0,0.0,0.0,0.0,0.0,0.0,0.0,0.0,0.0,0.0,0.0,0.0,0.0,0.0,0.0,0.0,0.0,0.0,0.0,0.0,0.0,0.0,0.0,0.0,0.0,0.0,0.0,0.0,0.0,0.0,0.0,0.0,0.0,0.0,0.0,0.0,0.0,0.0,0.0,0.0,0.0,0.0,0.0,0.0,0.0,0.0,0.0,0.0,0.0,0.0,0.0,0.0,0.0,0.0,0.0,0.0,0.0,0.0,0.0,0.0,0.0,0.0,0.0,0.0,0.0,0.0,0.0,0.0,0.0,0.0,0.0,0.0,0.0,0.0,0.0,0.0,0.0,0.0,0.0,0.0,0.0,0.0,0.0,0.0,0.0,0.0,0.0,0.0,0.0,0.0,0.0,0.0,0.0,0.0,0.0,0.0,0.0,0.0,0.0,0.0,0.0,0.0,0.0,0.0,0.0,0.0,0.0,0.0,0.0,0.0,0.0,0.0,0.0,0.0,0.0,0.0,0.0,0.0,0.0,0.0,0.0,0.0,0.0,0.0,0.0,0.0,0.0,0.0,0.0,0.0,0.0,0.0,0.0,0.0,0.0,0.0,0.0,0.0,0.0,0.0,0.0,0.0,0.0,0.0,0.0,0.0,0.0,0.0,0.0,0.0,0.0,0.0,0.0,0.0,0.0,0.0,0.0,0.0,0.0,0.0,0.0,0.0,0.0,0.0,0.0,0.0,0.0,0.0,0.0,0.0,0.0,0.0,0.0,0.0,0.0,0.0,0.0,0.0,0.0,0.0,0.0,0.0,0.0,0.0,0.0,0.0,0.0,0.0,0.0,0.0,0.0,0.0,0.0,0.0,0.0,0.0,0.0,0.0,0.0,0.0,0.0,0.0,0.0,0.0,0.0,0.0,0.0,0.0,0.0,0.0,0.0,0.0,0.0,0.0,0.0,0.0,0.0,0.0,0.0,0.0,0.0,0.0,0.0,0.0,0.0,0.0,0.0,0.0,0.0,0.0,0.0,0.0,0.0,0.0,0.0,0.0,0.0,0.0,0.0,0.0,0.0,0.0,0.0,0.0,0.0,0.0,0.0,0.0,0.0,0.0,0.0,0.0,0.0,0.0,0.0,0.0,0.0,0.0,0.0,0.0,0.0,0.0,0.0,0.0,0.0,0.0,0.0,0.0,0.0,0.0,0.0,0.0,0.0,0.0,0.0,0.0,0.0,0.0,0.0,0.0,0.0,0.0,0.0,0.0,0.0,0.0,0.0,0.0,0.0,0.0,0.0,0.0,0.0,0.0,0.0,0.0,0.0,0.0,0.0,0.0,0.0,0.0,0.0,0.0,0.0,0.0,0.0,0.0,0.0,0.0,0.0,0.0,0.0,0.0,0.0,0.0,0.0,0.0,0.0,0.0,0.0,0.0,0.0,0.0,0.0,0.0,0.0,0.0,0.0,0.0,0.0,0.0,0.0,0.0,0.0,0.0,0.0,0.0,0.0,0.0,0.0,0.0,0.0,0.0,0.0,0.0,0.0,0.0,0.0,0.0,0.0,0.0,0.0,0.0,0.0,0.0,0.0,0.0,0.0,0.0,0.0,0.0,0.0,0.0,0.0,0.0,0.0,0.0,0.0,0.0,0.0,0.0,0.0,0.0,0.0,0.0,0.0,0.0,0.0,0.0,0.0,0.0,0.0,0.0,0.0,0.0,0.0,0.0,0.0,0.0,0.0,0.0,0.0,0.0,0.0,0.0,0.0,0.0,0.0,0.0,0.0,0.0,0.0,0.0,0.0,0.0,0.0,0.0,0.0,0.0,0.0,0.0,0.0,0.0,0.0,0.0,0.0,0.0,0.0,0.0,0.0,0.0,0.0,0.0,0.0,0.0,0.0,0.0,0.0,0.0,0.0,0.0,0.0,0.0,-0.4822,0.0,0.0,0.0,0.0,0.0,0.0,0.0,0.0,0.0,0.0,0.0,0.0,0.0,0.0,0.0,0.0,0.0,0.0,0.0,0.0,0.0,0.0,0.0,0.0,0.0,0.0,0.0,0.0,0.0,0.0,0.0,0.0,0.0,0.0,0.0,0.0,0.0,0.0,0.0,0.0,0.0,0.0,0.0,0.0,0.0,0.0,0.0,0.0,0.0,0.0,0.0,0.0,0.0,0.0,0.0,0.0,0.0,0.0,0.0,0.0,0.0,0.0,0.0,0.0,0.0,0.0,0.0,0.0,0.0,0.0,0.0,0.0,0.0,0.0,0.0,0.0,0.0,0.0,0.0,0.0,0.0,0.0,0.0,0.0,0.0,0.0,0.0,0.0,0.0,0.0,0.0,0.0,0.0,0.0,0.0,0.0,0.0,0.0,0.0,0.0,0.0,0.0,0.0,0.0,0.0,0.0,0.0,0.0,0.0,0.0,-0.0634,-0.1887,-0.242,-0.3163,-0.4136,0.0,0.0,0.0,0.0,0.0,0.0,0.0,0.0,0.0,0.0,0.0,0.0,0.0,0.0,0.0,0.0,0.0,0.0,0.0,0.0,0.0,0.0,0.0,0.0,0.0,0.0,0.0,0.0,0.0,0.0,0.0,0.0,0.0,0.0,0.0,0.0,0.0,0.0,0.0,0.0,0.0,0.0,0.0,0.0,0.0,0.0,0.0,0.0,0.0,0.0,0.0,0.0,0.0,0.0,0.0,0.0,0.0,0.0,0.0,0.0,0.0,0.0,0.0,0.0,0.0,0.0,0.0,0.0,0.0,0.0,0.0,0.0,0.0,0.0,0.0,0.0,0.0,0.0,0.0,0.0,0.0,0.0,0.0,0.0,0.0,0.0,0.0,0.0,0.0,0.0,0.0,0.0,0.0,0.0,0.0,0.0,0.0,0.0,0.0,0.0,0.0,0.0,0.0,0.0,0.0,0.0,0.0,0.0,0.0,0.0,0.0,0.0,-0.2286,-0.3141,-0.3751,0.0,0.0,0.0,0.0,0.0,0.0,0.0,0.0,0.0,0.0,0.0,0.0,0.0,0.0,0.0,0.0,0.0,0.0,0.0,0.0,0.0,0.0,0.0,0.0,0.0,0.0,0.0,0.0,0.0,0.0,0.0,0.0,0.0,0.0,0.0,0.0,0.0,0.0,0.0,0.0,0.0,0.0,0.0,0.0,0.0,0.0,0.0,0.0,0.0,0.0,0.0,0.0,0.0,0.0,0.0,0.0,0.0,0.0,0.0,0.0,0.0,0.0,0.0,0.0,0.0,0.0,0.0,0.0,0.0,0.0,0.0,0.0,0.0,0.0,0.0,0.0,0.0,0.0,0.0,0.0,0.0,0.0,0.0,0.0,0.0,0.0,0.0,0.0,0.0,0.0,0.0,0.0,0.0,0.0,0.0,0.0,0.0,0.0,0.0,0.0,0.0,0.0,0.0,0.0,0.0,0.0,0.0,0.0,0.0,0.0,-0.0431,-0.1273,-0.256,0.0,-0.4298,0.0,0.0,0.0,0.0,0.0,0.0,0.0,0.0,0.0,0.0,0.0,0.0,0.0,0.0,0.0,0.0,0.0,0.0,0.0,0.0,0.0,0.0,0.0,0.0,0.0,0.0,0.0,0.0,0.0,0.0,0.0,0.0,0.0,0.0,0.0,0.0,0.0,0.0,0.0,0.0,0.0,0.0,0.0,0.0,0.0,0.0,0.0,0.0,0.0,0.0,0.0,0.0,0.0,0.0,0.0,0.0,0.0,0.0,0.0,0.0,0.0,0.0,0.0,0.0,0.0,0.0,0.0,0.0,0.0,0.0,0.0,0.0,0.0,0.0,0.0,0.0,0.0,0.0,0.0,0.0,0.0,0.0,0.0,0.0,0.0,0.0,0.0,0.0,0.0,0.0,0.0,0.0,0.0,0.0,0.0,0.0,0.0,0.0,0.0,0.0,0.0,0.0,0.0,0.0,0.0,0.0,0.0,0.0,0.0,0.0,-0.0185,-0.0529,-0.1483,-0.2402,0.0,0.0,0.0,0.0,0.0,0.0,0.0,0.0,0.0,0.0,0.0,0.0,0.0,0.0,0.0,0.0,0.0,0.0,0.0,0.0,0.0,0.0,0.0,0.0,0.0,0.0,0.0,0.0,0.0,0.0,0.0,0.0,0.0,0.0,0.0,0.0,0.0,0.0,0.0,0.0,0.0,0.0,0.0,0.0,0.0,0.0,0.0,0.0,0.0,0.0,0.0,0.0,0.0,0.0,0.0,0.0,0.0,0.0,0.0,0.0,0.0,0.0,0.0,0.0,0.0,0.0,0.0,0.0,0.0,0.0,0.0,0.0,0.0,0.0,0.0,0.0,0.0,0.0,0.0,0.0,0.0,0.0,0.0,0.0,0.0,0.0,0.0,0.0,0.0,0.0,0.0,0.0,0.0,0.0,0.0,0.0,0.0,0.0,0.0,0.0,0.0,0.0,0.0,0.0,0.0,0.0,0.0,0.0,0.0,0.0,0.0928,-0.019,-0.0538,-0.1037,-0.1621,-0.2359,0.0,0.0,0.0,0.0,0.0,0.0,0.0,0.0,0.0,0.0,0.0,0.0,0.0,0.0,0.0,0.0,0.0,0.0,0.0,0.0,0.0,0.0,0.0,0.0,0.0,0.0,0.0,0.0,0.0,0.0,0.0,0.0,0.0,0.0,0.0,0.0,0.0,0.0,0.0,0.0,0.0,0.0,0.0,0.0,0.0,0.0,0.0,0.0,0.0,0.0,0.0,0.0,0.0,0.0,0.0,0.0,0.0,0.0,0.0,0.0,0.0,0.0,0.0,0.0,0.0,0.0,0.0,0.0,0.0,0.0,0.0,0.0,0.0,0.0,0.0,0.0,0.0,0.0,0.0,0.0,0.0,0.0,0.0,0.0,0.0,0.0,0.0,0.0,0.0,0.0,0.0,0.0,0.0,0.0,0.0,0.0,0.0,0.0,0.0,0.0,0.0,0.0,0.0,0.0,0.0,0.0,0.0,0.0,0.0,0.0937,-0.058,-0.1774,-0.1816,-0.1843,0.0,0.0,0.0,0.0,0.0,0.0,0.0,0.0,0.0,0.0,0.0,0.0,0.0,0.0,0.0,0.0,0.0,0.0,0.0,0.0,0.0,0.0,0.0,0.0,0.0,0.0,0.0,0.0,0.0,0.0,0.0,0.0,0.0,0.0,0.0,0.0,0.0,0.0,0.0,0.0,0.0,0.0,0.0,0.0,0.0,0.0,0.0,0.0,0.0,0.0,0.0,0.0,0.0,0.0,0.0,0.0,0.0,0.0,0.0,0.0,0.0,0.0,0.0,0.0,0.0,0.0,0.0,0.0,0.0,0.0,0.0,0.0,0.0,0.0,0.0,0.0,0.0,0.0,0.0,0.0,0.0,0.0,0.0,0.0,0.0,0.0,0.0,0.0,0.0,0.0,0.0,0.0,0.0,0.0,0.0,0.0,0.0,0.0,0.0,0.0,0.0,0.0,0.0,0.0,0.0,0.0,0.0,0.0,0.0,0.2657,0.0934,-0.0236,-0.0674,-0.0657,-0.068,0.0,0.0,0.0,0.0,0.0,0.0,0.0,0.0,0.0,0.0,0.0,0.0,0.0,0.0,0.0,0.0,0.0,0.0,0.0,0.0,0.0,0.0,0.0,0.0,0.0,0.0,0.0,0.0,0.0,0.0,0.0,0.0,0.0,0.0,0.0,0.0,0.0,0.0,0.0,0.0,0.0,0.0,0.0,0.0,0.0,0.0,0.0,0.0,0.0,0.0,0.0,0.0,0.0,0.0,0.0,0.0,0.0,0.0,0.0,0.0,0.0,0.0,0.0,0.0,0.0,0.0,0.0,0.0,0.0,0.0,0.0,0.0,0.0,0.0,0.0,0.0,0.0,0.0,0.0,0.0,0.0,0.0,0.0,0.0,0.0,0.0,0.0,0.0,0.0,0.0,0.0,0.0,0.0,0.0,0.0,0.0,0.0,0.0,0.0,0.0,0.0,0.0,0.0,0.0,0.0,0.0,0.0,0.0,0.0,0.2245,0.0,0.0453,0.0,0.0,0.0,0.0,0.0,0.0,0.0,0.0,0.0,0.0,0.0,0.0,0.0,0.0,0.0,0.0,0.0,0.0,0.0,0.0,0.0,0.0,0.0,0.0,0.0,0.0,0.0,0.0,0.0,0.0,0.0,0.0,0.0,0.0,0.0,0.0,0.0,0.0,0.0,0.0,0.0,0.0,0.0,0.0,0.0,0.0,0.0,0.0,0.0,0.0,0.0,0.0,0.0,0.0,0.0,0.0,0.0,0.0,0.0,0.0,0.0,0.0,0.0,0.0,0.0,0.0,0.0,0.0,0.0,0.0,0.0,0.0,0.0,0.0,0.0,0.0,0.0,0.0,0.0,0.0,0.0,0.0,0.0,0.0,0.0,0.0,0.0,0.0,0.0,0.0,0.0,0.0,0.0,0.0,0.0,0.0,0.0,0.0,0.0,0.0,0.0,0.0,0.0,0.0,0.0,0.0,0.0,0.0,0.0,0.0,0.0,0.3224,0.1498,0.182,0.141,0.0,0.0,0.0,0.0,0.0,0.0,0.0,0.0,0.0,0.0,0.0,0.0,0.0,0.0,0.0,0.0,0.0,0.0,0.0,0.0,0.0,0.0,0.0,0.0,0.0,0.0,0.0,0.0,0.0,0.0,0.0,0.0,0.0,0.0,0.0,0.0,0.0,0.0,0.0,0.0,0.0,0.0,0.0,0.0,0.0,0.0,0.0,0.0,0.0,0.0,0.0,0.0,0.0,0.0,0.0,0.0,0.0,0.0,0.0,0.0,0.0,0.0,0.0,0.0,0.0,0.0,0.0,0.0,0.0,0.0,0.0,0.0,0.0,0.0,0.0,0.0,0.0,0.0,0.0,0.0,0.0,0.0,0.0,0.0,0.0,0.0,0.0,0.0,0.0,0.0,0.0,0.0,0.0,0.0,0.0,0.0,0.0,0.0,0.0,0.0,0.0,0.0,0.0,0.0,0.0,0.0,0.0,0.0,0.0,0.0,0.0,0.0,0.3577,0.3345,0.3046,0.2619,0.1738,0.1526,0.0,0.0,0.0,0.0,0.0,0.0,0.0,0.0,0.0,0.0,0.0,0.0,0.0,0.0,0.0,0.0,0.0,0.0,0.0,0.0,0.0,0.0,0.0,0.0,0.0,0.0,0.0,0.0,0.0,0.0,0.0,0.0,0.0,0.0,0.0,0.0,0.0,0.0,0.0,0.0,0.0,0.0,0.0,0.0,0.0,0.0,0.0,0.0,0.0,0.0,0.0,0.0,0.0,0.0,0.0,0.0,0.0,0.0,0.0,0.0,0.0,0.0,0.0,0.0,0.0,0.0,0.0,0.0,0.0,0.0,0.0,0.0,0.0,0.0,0.0,0.0,0.0,0.0,0.0,0.0,0.0,0.0,0.0,0.0,0.0,0.0,0.0,0.0,0.0,0.0,0.0,0.0,0.0,0.0,0.0,0.0,0.0,0.0,0.0,0.0,0.0,0.0,0.0,0.0,0.0,0.0,0.0,0.0,0.0,0.5496,0.4927,0.4372,0.3896,0.2922,0.2604,0.2982,0.0,0.0,0.0,0.0,0.0,0.0,0.0,0.0,0.0,0.0,0.0,0.0,0.0,0.0,0.0,0.0,0.0,0.0,0.0,0.0,0.0,0.0,0.0,0.0,0.0,0.0,0.0,0.0,0.0,0.0,0.0,0.0,0.0,0.0,0.0,0.0,0.0,0.0,0.0,0.0,0.0,0.0,0.0,0.0,0.0,0.0,0.0,0.0,0.0,0.0,0.0,0.0,0.0,0.0,0.0,0.0,0.0,0.0,0.0,0.0,0.0,0.0,0.0,0.0,0.0,0.0,0.0,0.0,0.0,0.0,0.0,0.0,0.0,0.0,0.0,0.0,0.0,0.0,0.0,0.0,0.0,0.0,0.0,0.0,0.0,0.0,0.0,0.0,0.0,0.0,0.0,0.0,0.0,0.0,0.0,0.0,0.0,0.0,0.0,0.0,0.0,0.0,0.0,0.0,0.0,0.0,0.0,0.0,0.7115,0.6492,0.554,0.431,0.3779,0.3377,0.0,0.0,0.0,0.0,0.0,0.0,0.0,0.0,0.0,0.0,0.0,0.0,0.0,0.0,0.0,0.0,0.0,0.0,0.0,0.0,0.0,0.0,0.0,0.0,0.0,0.0,0.0,0.0,0.0,0.0,0.0,0.0,0.0,0.0,0.0,0.0,0.0,0.0,0.0,0.0,0.0,0.0,0.0,0.0,0.0,0.0,0.0,0.0,0.0,0.0,0.0,0.0,0.0,0.0,0.0,0.0,0.0,0.0,0.0,0.0,0.0,0.0,0.0,0.0,0.0,0.0,0.0,0.0,0.0,0.0,0.0,0.0,0.0,0.0,0.0,0.0,0.0,0.0,0.0,0.0,0.0,0.0,0.0,0.0,0.0,0.0,0.0,0.0,0.0,0.0,0.0,0.0,0.0,0.0,0.0,0.0,0.0,0.0,0.0,0.0,0.0,0.0,0.0,0.0,0.0,0.0,0.0,0.0,0.0,0.7432,0.7709,0.7591,0.697,0.561,0.5048,0.0,0.0,0.0,0.0,0.0,0.0,0.0,0.0,0.0,0.0,0.0,0.0,0.0,0.0,0.0,0.0,0.0,0.0,0.0,0.0,0.0,0.0,0.0,0.0,0.0,0.0,0.0,0.0,0.0,0.0,0.0,0.0,0.0,0.0,0.0,0.0,0.0,0.0,0.0,0.0,0.0,0.0,0.0,0.0,0.0,0.0,0.0,0.0,0.0,0.0,0.0,0.0,0.0,0.0,0.0,0.0,0.0,0.0,0.0,0.0,0.0,0.0,0.0,0.0,0.0,0.0,0.0,0.0,0.0,0.0,0.0,0.0,0.0,0.0,0.0,0.0,0.0,0.0,0.0,0.0,0.0,0.0,0.0,0.0,0.0,0.0,0.0,0.0,0.0,0.0,0.0,0.0,0.0,0.0,0.0,0.0,0.0,0.0,0.0,0.0,0.0,0.0,0.0,0.0,0.0,0.0,0.0,0.0,0.8009,0.868,0.8591,0.8465,0.8228,0.6978,0.6306,0.0,0.0,0.0,0.0,0.0,0.0,0.0,0.0,0.0,0.0,0.0,0.0,0.0,0.0,0.0,0.0,0.0,0.0,0.0,0.0,0.0,0.0,0.0,0.0,0.0,0.0,0.0,0.0,0.0,0.0,0.0,0.0,0.0,0.0,0.0,0.0,0.0,0.0,0.0,0.0,0.0,0.0,0.0,0.0,0.0,0.0,0.0,0.0,0.0,0.0,0.0,0.0,0.0,0.0,0.0,0.0,0.0,0.0,0.0,0.0,0.0,0.0,0.0,0.0,0.0,0.0,0.0,0.0,0.0,0.0,0.0,0.0,0.0,0.0,0.0,0.0,0.0,0.0,0.0,0.0,0.0,0.0,0.0,0.0,0.0,0.0,0.0,0.0,0.0,0.0,0.0,0.0,0.0,0.0,0.0,0.0,0.0,0.0,0.0,0.0,0.0,0.0,0.0,0.0,0.0,0.0,0.0,0.0,0.9447,1.0364,0.9602,0.9023,0.8731,0.8007,0.7187,0.0,0.0,0.0,0.0,0.0,0.0,0.0,0.0,0.0,0.0,0.0,0.0,0.0,0.0,0.0,0.0,0.0,0.0,0.0,0.0,0.0,0.0,0.0,0.0,0.0,0.0,0.0,0.0,0.0,0.0,0.0,0.0,0.0,0.0,0.0,0.0,0.0,0.0,0.0,0.0,0.0,0.0,0.0,0.0,0.0,0.0,0.0,0.0,0.0,0.0,0.0,0.0,0.0,0.0,0.0,0.0,0.0,0.0,0.0,0.0,0.0,0.0,0.0,0.0,0.0,0.0,0.0,0.0,0.0,0.0,0.0,0.0,0.0,0.0,0.0,0.0,0.0,0.0,0.0,0.0,0.0,0.0,0.0,0.0,0.0,0.0,0.0,0.0,0.0,0.0,0.0,0.0,0.0,0.0,0.0,0.0,0.0,0.0,0.0,0.0,0.0,0.0,0.0,0.0,0.0,0.0,0.0,0.0,1.1182,1.1756,1.2159,1.1678,1.0236,0.8537,0.7231,0.0,0.0,0.0,0.0,0.0,0.0,0.0,0.0,0.0,0.0,0.0,0.0,0.0,0.0,0.0,0.0,0.0,0.0,0.0,0.0,0.0,0.0,0.0,0.0,0.0,0.0,0.0,0.0,0.0,0.0,0.0,0.0,0.0,0.0,0.0,0.0,0.0,0.0,0.0,0.0,0.0,0.0,0.0,0.0,0.0,0.0,0.0,0.0,0.1002,0.0,0.0,0.0,0.0,0.0,0.0,0.0,0.0,0.0,0.0,0.0,0.0,0.0,0.0,0.0,0.0,0.0,0.0,0.0,0.0,0.0,0.0,0.0,0.0,0.0,0.0,0.0,0.0,0.0,0.0,0.0,0.0,0.0,0.0,0.0,0.0,0.0,0.0,0.0,0.0,0.0,0.0,0.0,0.0,0.0,0.0,0.0,0.0,0.0,0.0,0.0,0.0,0.0,0.0,0.0,0.0,0.0,0.0,0.0,1.26,1.3243,1.3127,1.2577,1.1611,1.0201,0.8726,0.0,0.0,0.0,0.0,0.0,0.0,0.0,0.0,0.0,0.0,0.0,0.0,0.0,0.0,0.0,0.0,0.0,0.0,0.0,0.0,0.0,0.0,0.0,0.0,0.0,0.0,0.0,0.0,0.0,0.0,0.0,0.0,0.0,0.0,0.0,0.0,0.0,0.0,0.0,0.0,0.0,0.0,0.0,0.0,0.0,0.0,0.0,0.0,0.0,0.0,0.0,0.0,0.0,0.0,0.0,0.0,0.0,0.0,0.0,0.0,0.0,0.0,0.0,0.0,0.0,0.0,0.0,0.0,0.0,0.0,0.0,0.0,0.0,0.0,0.0,0.0,0.0,0.0,0.0,0.0,0.0,0.0,0.0,0.0,0.0,0.0,0.0,0.0,0.0,0.0,0.0,0.0,0.0,0.0,0.0,0.0,0.0,0.0,0.0,0.0,0.0,0.0,0.0,0.0,0.0,0.0,0.0,1.3335,1.3909,1.4717,1.389,1.3278,1.2853,1.2366,1.0985,0.8595,0.0,0.0,0.0,0.0,0.0,0.0,0.0,0.0,0.0,0.0,0.0,0.0,0.0,0.0,0.0,0.0,0.0,0.0,0.0,0.0,0.0,0.0,0.0,0.0,0.0,0.0,0.0,0.0,0.0,0.0,0.0,0.0,0.0,0.0,0.0,0.0,0.0,0.0,0.7235,0.7095,0.0,0.0,0.0,0.0,0.0,0.0,0.0,0.0,0.0556,0.0,0.0,0.0,0.0,0.0,0.0,0.0,0.0,0.0,0.0,0.0,0.0,0.0,0.0,0.0,0.0,0.0,0.0,0.0,0.0,0.0,0.0,0.0,0.0,0.0,0.0,0.0,0.0,0.0,0.0,0.0,0.0,0.0,0.0,0.0,0.0,0.0,0.0,0.0,0.0,0.0,0.0,0.0,0.0,0.0,0.0,0.0,0.0,0.0,0.0,0.0,0.0,0.0,0.0,0.0,0.0,1.4195,1.4535,1.5126,1.597,1.6297,1.5687,1.4126,1.451,1.3476,1.0805,0.0,0.0,0.0,0.0,0.0,0.0,0.0,0.0,0.0,0.0,0.0,0.0,0.0,0.0,0.0,0.0,0.0,0.0,0.0,0.0,0.0,0.0,0.0,0.0,0.0,0.0,0.0,0.0,0.0,0.0,0.0,0.0,0.0,0.0,0.0,0.0,0.0,0.0,0.0,0.7634,0.6939,0.0,0.0,0.0,0.0,0.0,0.0,0.0,0.0,0.0815,0.0,0.0,0.0,0.0,0.0,0.0,0.0,0.0,0.0,0.0,0.0,0.0,0.0,0.0,0.0,0.0,0.0,0.0,0.0,0.0,0.0,0.0,0.0,0.0,0.0,0.0,0.0,0.0,0.0,0.0,0.0,0.0,0.0,0.0,0.0,0.0,0.0,0.0,0.0,0.0,0.0,0.0,0.0,0.0,0.0,0.0,0.0,0.0,0.0,0.0,0.0,0.0,0.0,0.0,0.0,1.3774,1.473,1.5591,1.6301,1.6596,1.6183,1.5097,1.4701,1.3629,0.0,0.0,0.0,0.0,0.0,0.0,0.0,0.0,0.0,0.0,0.0,0.0,0.0,0.0,0.0,0.0,0.0,0.0,0.0,0.0,0.0,0.0,0.0,0.0,0.0,0.0,0.0,0.0,0.0,0.0,0.0,0.0,0.0,0.0,0.0,0.0,0.0,0.0,0.0,0.0,0.7371,0.6678,0.6858,0.0,0.0,0.0,0.0,0.0,0.0,0.2295,0.167,0.0,0.0,0.0,0.0,0.0,0.0,0.0,0.0,0.0,0.0,0.0,0.0,0.0,0.0,0.0,0.0,0.0,0.0,0.0,0.0,0.0,0.0,0.0,0.0,0.0,0.0,0.0,0.0,0.0,0.0,0.0,0.0,0.0,0.0,0.0,0.0,0.0,0.0,0.0,0.0,0.0,0.0,0.0,0.0,0.0,0.0,0.0,0.0,0.0,0.0,0.0,0.0,0.0,0.0,0.0,1.381,1.4993,1.6028,1.6896,1.6994,1.6704,1.6094,1.4822,1.3573,0.0,0.0,0.0,0.0,0.0,0.0,0.0,0.0,0.0,0.0,0.0,0.0,0.0,0.0,0.0,0.0,0.0,0.0,0.0,0.0,0.0,0.0,0.0,0.0,0.0,0.0,0.0,0.0,0.0,0.0,0.0,0.0,0.0,0.0,0.0,0.0,0.0,0.0,0.0,0.0,0.0,0.6716,0.7507,0.5855,0.0,0.0,0.0,0.0,0.338,0.2909,0.0,0.0,0.0,0.0,0.0,0.0,0.0,0.0,0.0,0.0,0.0,0.0,0.0,0.0,0.0,0.0,0.0,0.0,0.0,0.0,0.0,0.0,0.0,0.0,0.0,0.0,0.0,0.0,0.0,0.0,0.0,0.0,0.0,0.0,0.0,0.0,0.0,0.0,0.0,0.0,0.0,0.0,0.0,0.0,0.0,0.0,0.0,0.0,0.0,0.0,0.0,0.0,0.0,0.0,0.0,0.0,1.5723,1.6079,1.7146,1.901,1.9355,1.8683,1.7092,1.6336,1.4818,0.0,0.0,0.0,0.0,0.0,0.0,0.0,0.0,0.0,0.0,0.0,0.0,0.0,0.0,0.0,0.0,0.0,0.0,0.0,0.0,0.0,0.0,0.0,0.0,0.0,0.0,0.0,0.0,0.0,0.0,0.0,0.0,0.0,0.0,0.0,0.0,0.0,0.0,0.0,0.0,0.0,0.7647,0.7378,0.5809,0.4926,0.0,0.0,0.4326,0.4323,0.3925,0.0,0.0,0.0,0.0,0.0,0.0,0.0,0.0,0.0,0.0,0.0,0.0,0.0,0.0,0.0,0.0,0.0,0.0,0.0,0.0,0.0,0.0,0.0,0.0,0.0,0.0,0.0,0.0,0.0,0.0,0.0,0.0,0.0,0.0,0.0,0.0,0.0,0.0,0.0,0.0,0.0,0.0,0.0,0.0,0.0,0.0,0.0,0.0,0.0,0.0,0.0,0.0,0.0,0.0,0.0,1.4436,1.6157,1.7064,1.8161,1.9455,1.9599,1.9109,1.791,1.6873,1.5387,0.0,0.0,0.0,0.0,0.0,0.0,0.0,0.0,0.0,0.0,0.0,0.0,0.0,0.0,0.0,0.0,0.0,0.0,0.0,0.0,0.0,0.0,0.0,0.0,0.0,0.0,0.0,0.0,0.0,0.0,0.0,0.0,0.0,0.0,0.0,0.0,0.0,0.0,0.0,0.0,0.0,0.0,0.7395,0.5931,0.0,0.0,0.0,0.5543,0.6105,0.0,0.0,0.0,0.0,0.0,0.0,0.0,0.0,0.0,0.0,0.0,0.0,0.0,0.0,0.0,0.0,0.0,0.0,0.0,0.0,0.0,0.0,0.0,0.0,0.0,0.0,0.0,0.0,0.0,0.0,0.0,0.0,0.0,0.0,0.0,0.0,0.0,0.0,0.0,0.0,0.0,0.0,0.0,0.0,0.0,0.0,0.0,0.0,0.0,0.0,0.0,0.0,0.0,0.0,0.0,0.0,0.0,1.6975,1.8199,1.9374,2.0369,2.0309,1.9814,1.8845,1.7596,0.0,0.0,0.0,0.0,0.0,0.0,0.0,0.0,0.0,0.0,0.0,0.0,0.0,0.0,0.0,0.0,0.0,0.0,0.0,0.0,0.0,0.0,0.0,0.0,0.0,0.0,0.0,0.4663,0.0,0.0,0.0,0.0,0.0,0.0,0.0,0.0,0.0,0.0,0.0,0.0,0.0,0.0,0.6183,0.7657,0.6497,0.6066,0.0,0.0,0.6647,0.7296,0.7295,0.6987,0.0,0.0,0.0,0.0,0.0,0.0,0.0,0.0,0.0,0.0,0.0,0.0,0.0,0.0,0.0,0.0,0.0,0.0,0.0,0.0,0.0,0.0,0.0,0.0,0.0,0.0,0.0,0.0,0.0,0.0,0.0,0.0,0.0,0.0,0.0,0.0,0.0,0.0,0.0,0.0,0.0,0.0,0.0,0.0,0.0,0.0,0.0,0.0,0.0,0.0,0.0,0.0,0.0,0.0,0.0,1.9003,1.973,2.0979,2.278,2.2486,2.1575,2.012,1.8939,1.7022,0.0,0.0,0.0,0.0,0.0,0.0,0.0,0.0,0.0,0.0,0.0,0.0,0.0,0.0,0.0,0.0,0.0,0.0,0.0,0.0,0.0,0.0,0.0,0.0,0.0,0.0,0.0,0.0,0.0,0.0,0.0,0.0,0.0,0.0,0.0,0.0,0.0,0.0,0.0,0.0,0.0,0.8172,0.8345,0.7865,0.7834,0.0,0.0,0.7471,0.7206,0.733,0.7135,0.6197,0.0,0.0,0.0,0.0,0.0,0.0,0.0,0.0,0.0,0.0,0.0,0.0,0.0,0.0,0.0,0.0,0.0,0.0,0.0,0.0,0.0,0.0,0.0,0.0,0.0,0.0,0.0,0.0,0.0,0.0,0.0,0.0,0.0,0.0,0.0,0.0,0.0,0.0,0.0,0.0,0.0,0.0,0.0,0.0,0.0,0.0,0.0,0.0,0.0,0.0,0.0,0.0,0.0,1.6915,1.9268,2.0579,2.1729,2.2672,2.2598,2.1958,2.0854,1.9848,1.8205,0.0,0.0,0.0,0.0,0.0,0.0,0.0,0.0,0.0,0.0,0.0,0.0,0.0,0.0,0.0,0.0,0.0,0.0,0.0,0.0,0.0,0.0,0.0,0.0,0.0,0.0,0.0,0.0,0.6439,0.6579,0.6579,0.0,0.0,0.0,0.0,0.0,0.0,0.0,0.0,0.0,0.0,0.7889,0.8658,0.8157,0.0,0.0,0.916,0.8698,0.9163,0.8883,0.8379,0.7815,0.7267,0.0,0.0,0.0,0.0,0.0,0.0,0.0,0.0,0.0,0.0,0.0,0.0,0.0,0.0,0.0,0.0,0.0,0.0,0.0,0.0,0.0,0.0,0.0,0.0,0.0,0.0,0.0,0.0,0.0,0.0,0.0,0.0,0.0,0.0,0.0,0.0,0.0,0.0,0.0,0.0,0.0,0.0,0.0,0.0,0.0,0.0,0.0,0.0,0.0,0.0,0.0,0.0,1.7288,1.9268,2.0879,2.1953,2.25,2.2266,2.1804,2.12,2.0254,1.8848,0.0,0.0,0.0,0.0,0.0,0.0,0.0,0.0,0.0,0.0,0.0,0.0,0.0,0.0,0.0,0.0,0.0,0.0,0.0,0.0,0.0,0.0,0.0,0.0,0.0,0.0,0.0,0.0,0.7261,0.7323,0.7251,0.0,0.0,0.0,0.0,0.0,0.0,0.0,0.0,0.0,0.0,0.8236,0.9181,0.8801,0.8896,1.0269,0.9739,0.9441,1.0086,0.9646,0.9166,0.9018,0.0,0.0,0.0,0.0,0.0,0.0,0.0,0.0,0.0,0.0,0.0,0.0,0.0,0.0,0.0,0.0,0.0,0.0,0.0,0.0,0.0,0.0,0.0,0.0,0.0,0.0,0.0,0.0,0.0,0.0,0.0,0.0,0.0,0.0,0.0,0.0,0.0,0.0,0.0,0.0,0.0,0.0,0.0,0.0,0.0,0.0,0.0,0.0,0.0,0.0,0.0,0.0,0.0,1.7549,1.9268,2.0586,2.1619,2.2441,2.1658,2.122,2.1151,1.998,1.8682,1.7386,0.0,0.0,0.0,0.0,0.0,0.0,0.0,0.0,0.0,0.0,0.0,0.0,0.0,0.0,0.0,0.0,0.0,0.0,0.0,0.0,0.0,0.0,0.0,0.0,0.0,0.0,0.7493,0.7201,0.6934,0.0,0.0,0.0,0.0,0.0,0.0,0.0,0.0,0.0,0.0,0.9271,0.975,1.002,1.0053,1.0029,1.011,0.9893,0.9599,0.9324,0.9237,0.9248,0.0,0.0,0.0,0.0,0.0,0.0,0.0,0.0,0.0,0.0,0.0,0.0,0.0,0.0,0.0,0.0,0.0,0.0,0.0,0.0,0.0,0.0,0.0,0.0,0.0,0.0,0.0,0.0,0.0,0.0,0.0,0.0,0.0,0.0,0.0,0.0,0.0,0.0,0.0,0.0,2.3154,2.3029,0.0,0.0,0.0,0.0,0.0,0.0,0.0,0.0,0.0,0.0,0.0,0.0,1.7129,1.8802,2.0391,2.1337,2.16,2.1346,2.1054,2.0781,1.9814,1.8281,1.6133,0.0,0.0,0.0,0.0,0.0,0.0,0.0,0.0,0.0,0.0,0.0,0.0,0.0,0.0,0.0,0.0,0.0,0.0,0.0,0.0,0.0,0.0,0.0,0.0,0.0,0.7892,0.0,0.0,0.0,0.0,0.0,0.0,0.0,0.0,0.0,0.0,0.0,0.8705,0.9312,0.9726,1.008,1.0399,1.0241,1.0157,0.0,0.0,0.0,0.0,0.0,0.0,0.0,0.0,0.0,0.0,0.0,0.0,0.0,0.0,0.8554,0.6864,0.6638,0.6514,0.6009,0.0,0.0,0.0,0.0,0.0,0.0,0.0,0.0,0.0,0.0,0.0,0.0,0.0,0.0,0.0,0.0,2.3831,0.0,0.0,0.0,0.0,0.0,0.0,0.0,0.0,2.5027,2.578,2.5885,2.5923,2.5613,0.0,2.3989,2.2004,0.0,0.0,0.0,0.0,0.0,0.0,0.0,0.0,1.8182,1.976,2.1247,2.206,2.2253,2.206,2.1801,2.1329,2.0303,1.8808,1.682,1.5117,1.3932,0.0,0.0,0.0,0.0,0.0,0.0,0.0,0.0,0.0,0.0,0.0,0.0,0.0,0.0,0.0,0.0,0.0,0.0,0.0,0.0,0.0,0.0,0.0,0.858,0.0,0.0,0.0,0.0,0.0,0.0,0.0,0.0,0.0,0.8221,0.8631,0.9151,0.976,1.008,1.0307,1.0425,0.0,0.0,0.0,0.0,0.0,0.0,0.0,1.0643,1.0733,1.0407,1.0203,1.0389,1.0877,1.1101,1.064,0.0,0.0,0.8704,0.8095,0.7737,0.7245,0.6708,0.6257,0.6059,0.6019,0.5941,0.0,0.0,0.0,0.0,0.0,0.0,0.0,0.0,2.7758,2.7494,0.0,0.0,0.0,0.0,0.0,0.0,0.0,0.0,0.0,0.0,2.949,2.9991,2.9026,2.949,2.895,2.7482,2.7809,2.6656,2.3979,2.0339,0.0,0.0,0.0,0.0,0.0,0.0,2.0611,2.19,2.2903,2.3713,2.4084,2.3676,2.3184,2.2613,2.1297,2.0165,1.9287,1.7607,1.6356,1.5455,1.3052,0.0,0.0,0.0,0.0,0.0,0.0,0.0,0.0,0.0,0.0,0.0,0.0,0.0,0.0,0.0,0.0,0.0,0.0,0.0,0.0,1.0063,0.0,0.0,0.0,0.0,0.0,0.0,0.0,0.0,0.0,0.0,0.9127,0.9146,0.9479,1.0084,0.0,0.0,0.0,0.0,1.005,0.9831,1.0451,1.0991,1.0986,1.162,1.2208,1.2421,0.0,0.0,1.1557,1.2234,1.2431,1.114,1.1945,1.2442,1.1064,0.9578,0.866,0.8708,0.7638,0.6814,0.6934,0.6933,0.6974,3.3131,0.0,0.0,0.0,0.0,3.0382,3.0997,3.2202,3.1662,3.0972,3.0181,2.9654,0.0,0.0,0.0,0.0,0.0,0.0,2.8147,2.9114,3.0143,3.0645,3.067,3.0482,3.0118,2.9654,2.9013,2.8048,2.6857,2.5046,2.2134,1.8256,0.0,0.0,0.0,0.0,2.0888,2.1587,2.2831,2.3556,2.369,2.3173,2.2525,2.1654,2.1252,2.0603,1.9764,1.8599,1.7712,1.7122,1.5108,0.0,0.0,0.0,0.0,0.0,0.0,0.0,0.0,0.0,0.0,0.0,0.0,0.0,0.0,0.0,0.0,0.0,0.0,0.0,0.9788,0.9917,0.9713,0.0,0.0,0.0,0.0,0.0,0.0,0.0,0.0,0.0,1.1439,1.1036,1.0835,0.0,0.0,1.0566,1.0472,1.0753,1.1009,1.117,0.0,0.0,0.0,1.2515,1.2734,1.2544,1.2663,1.2713,1.2498,1.2686,1.2769,1.233,1.2333,1.2238,1.186,1.0908,0.9741,0.8553,0.8108,0.7825,0.7182,0.7335,0.751,3.6232,3.4387,3.298,3.2579,3.2842,3.2516,3.3081,3.4186,3.3646,3.3144,3.2667,3.1926,3.0407,2.8397,2.7369,0.0,0.0,0.0,2.9691,3.0771,3.1097,3.1424,3.1675,3.1173,3.0809,3.0557,2.9427,2.8712,2.8423,2.7544,2.5245,2.1648,0.0,0.0,2.0326,2.1677,2.2628,2.3081,2.4143,2.459,2.4331,2.3616,2.2915,2.2339,2.2084,2.1706,2.1188,1.9942,1.9125,1.8818,1.6685,1.5051,0.0,0.0,0.0,0.0,0.0,0.0,0.0,0.0,0.0,0.0,0.0,1.008,0.9302,0.0,0.0,0.0,1.033,1.0524,1.0822,1.1073,0.0,0.0,0.0,0.0,0.0,0.0,0.0,1.1826,1.2254,1.2645,1.3024,1.2697,1.2416,1.2296,1.1841,1.1525,1.1408,0.0,1.2016,1.2116,1.291,1.3414,1.3064,1.3429,1.3577,1.2989,1.288,1.29,1.2905,1.2778,1.2695,1.2798,1.2383,1.1963,1.1973,1.136,1.045,0.9065,0.8713,0.8451,0.7793,0.7959,0.8082,3.8705,3.7852,3.5353,3.4248,3.4161,3.4161,3.4424,3.4801,3.4324,3.4361,3.4713,3.3721,3.2629,3.1424,2.9842,0.0,0.0,3.0507,3.1286,3.2277,3.2277,3.2277,3.2252,3.1662,3.1135,3.0618,2.9528,2.8963,2.8938,2.8423,2.7381,2.5862,2.4782,2.4167,2.4042,2.455,2.5121,2.5598,2.6163,2.6151,2.5536,2.4531,2.3966,2.3835,2.3321,2.302,2.2915,2.1323,2.0421,2.032,1.7932,1.6115,1.5131,0.0,0.0,0.0,0.0,0.0,0.0,0.0,0.0,0.0,0.0,0.0,0.0,0.0,0.0,0.0,1.155,0.0,1.2778,1.2886,0.0,0.0,0.0,1.2651,1.1878,1.2822,1.3324,1.2755,0.0,0.0,0.0,0.0,1.3995,1.3274,1.31,1.2915,1.268,1.2862,1.2997,1.2722,1.3564,1.4094,1.3685,1.4119,1.4272,1.3555,1.3189,1.2925,1.2895,1.2574,1.2467,1.2734,1.2152,1.1587,1.1535,1.1131,1.0706,1.015,0.9436,0.8817,0.8663,0.8695,0.8716,4.0064,3.8655,3.7965,3.7247,3.642,3.6408,3.6279,3.6015,3.583,3.5617,3.5282,3.5031,3.411,3.2659,3.1361,3.111,3.165,3.1775,3.2215,3.2842,3.2867,3.2867,3.2817,3.1863,3.1323,3.1135,3.0105,2.9591,2.9553,2.9013,2.8487,2.806,2.7042,2.5661,2.4092,2.4946,2.5473,2.5598,2.6197,2.6021,2.5021,2.4343,2.359,2.2736,2.2585,2.2309,2.1882,2.1079,2.0623,2.0586,1.8795,1.7479,1.6827,1.4888,0.0,0.0,0.0,0.0,0.0,0.0,0.0,0.0,0.0,1.2088,1.0608,0.0,1.2319,0.0,1.2426,1.2543,1.2369,1.2686,0.0,0.0,1.3301,1.3383,1.3506,1.3773,1.4031,1.4224,1.4575,1.4846,1.4984,1.508,1.5021,1.4835,1.3786,1.2976,1.2923,1.3506,1.3773,1.3516,1.4071,1.4486,1.4046,1.3845,1.375,1.3545,1.3154,1.2915,1.2915,1.2827,1.2656,1.2422,1.1966,1.1496,1.1164,1.0723,1.0449,1.0291,1.0058,0.9657,0.8906,0.901,0.9199,4.0172,3.9245,3.9233,3.858,3.7538,3.7299,3.692,3.6417,3.6417,3.6194,3.5881,3.5596,3.4901,3.3759,3.2905,3.2667,3.293,3.2717,3.2767,3.3124,3.3124,3.3124,3.3074,3.1926,3.1386,3.1348,3.0306,2.9779,2.9767,2.9465,2.9176,2.8888,2.8072,2.6917,2.5536,2.5812,2.6021,2.6009,2.5833,2.5435,2.4788,2.3998,2.3158,2.2359,2.2322,2.2046,2.1506,2.0993,2.0578,2.0302,1.9183,1.8216,1.7436,1.5977,1.4947,0.0,0.0,0.0,0.0,0.0,0.0,0.0,0.0,0.0,0.0,0.0,1.3806,0.0,1.3563,0.0,1.3385,1.3584,1.3828,1.4053,1.4248,1.4348,1.4397,1.4562,1.4767,1.5029,1.5059,1.5146,1.5381,1.542,1.542,1.542,1.4628,1.3993,1.387,1.4223,1.4306,1.3923,1.4208,1.4319,1.3899,1.3496,1.3232,1.3203,1.3037,1.2915,1.2895,1.2573,1.2289,1.2164,1.1562,1.1017,1.0898,1.0576,1.0312,1.0322,1.0322,1.0079,0.9538,0.9637,0.9736,3.9839,3.9697,3.9697,3.9082,3.8065,3.7525,3.6996,3.6417,3.6417,3.6417,3.638,3.5793,3.5245,3.4743,3.4173,3.3909,3.3872,3.3332,3.3124,3.3124,3.3124,3.3124,3.3031,3.2001,3.1461,3.1348,3.0382,2.9867,2.9792,2.9779,2.9528,2.9001,2.8411,2.7858,2.7381,2.6801,2.6487,2.6474,2.5372,2.48,2.4775,2.3684,2.2807,2.2246,2.2209,2.1907,2.132,2.0842,2.0352,1.9823,1.9284,1.8555,1.7561,1.6873,1.6057,0.0,1.45,0.0,0.0,0.0,0.0,0.0,0.0,0.0,0.0,1.566,1.5719,1.4884,1.4925,1.5012,1.5067,1.5048,1.5031,1.5003,1.5243,1.5264,1.4932,1.5186,1.542,1.542,1.542,1.542,1.542,1.542,1.542,1.541,1.5352,1.511,1.4855,1.4758,1.4593,1.4114,1.3977,1.3773,1.3486,1.3125,1.2935,1.2925,1.2925,1.2915,1.2915,1.2318,1.1868,1.1982,1.1279,1.0645,1.0811,1.0518,1.0332,1.0322,1.0322,1.0283,1.0244,1.0225,1.0322,4.0655,3.9697,3.9697,3.932,3.8668,3.809,3.7287,3.6417,3.6417,3.6417,3.6367,3.5746,3.5445,3.527,3.4349,3.3909,3.3859,3.3319,3.3124,3.3124,3.3124,3.3124,3.3074,3.2378,3.1825,3.1373,3.0758,3.0231,2.9792,2.9779,2.9741,2.9616,2.8612,2.8047,0.0,0.0,0.0,0.0,2.5385,2.48,2.4782,2.3684,2.2619,2.1694,2.1631,0.0,2.0188,2.0024,1.9924,1.9786,1.9309,0.0,0.0,0.0,0.0,0.0,0.0,0.0,0.0,0.0,0.0,0.0,1.6754,1.6332,1.5668,1.6745,1.7086,1.6185,1.6655,1.6915,1.6594,1.6331,1.6198,1.6169,1.5727,1.5381,1.5293,1.5371,1.542,1.542,1.542,1.542,1.542,1.542,1.542,1.542,1.542,1.5244,1.4824,1.4793,1.4492,1.3753,1.3379,1.3125,1.3018,1.2964,1.2915,1.2915,1.2915,1.2915,1.2886,1.2764,1.2338,1.1917,1.1528,1.1085,1.0557,1.0352,1.0322,1.0322,1.0322,1.0322,1.0322,1.0322,1.0322,4.0844,0.0,3.9697,3.9371,0.0,0.0,3.7538,3.6795,3.6518,3.6417,3.6392,3.6069,3.5943,3.5881,3.4801,3.4299,3.4274,3.3445,3.3124,3.3124,3.3124,3.3124,3.3056,3.2478,3.1913,3.1373,3.0859,3.0344,2.9817,2.9779,2.9654,2.9314,2.8511,2.7971,2.767,2.6901,2.6487,2.6487,2.5372,2.48,2.475,2.3684,2.2719,2.1933,0.0,0.0,0.0,0.0,0.0,0.0,0.0,0.0,0.0,0.0,0.0,1.6948,1.6672,1.6635,1.6911,1.6936,1.7174,1.7739,1.8041,1.7953,1.7365,1.8006,1.803,1.7111,1.7676,1.775,1.6858,1.6932,1.6894,1.6549,1.6482,1.6244,1.5584,1.5719,1.5777,1.5468,1.542,1.542,1.542,1.542,1.542,1.542,1.541,1.5157,1.46,1.4463,1.416,1.335,1.3037,1.2915,1.2915,1.2915,1.2915,1.2915,1.2915,1.2915,1.2915,1.2695,1.2393,1.1966,1.1575,1.1095,1.0713,1.0439,1.0322,1.0322,1.0322,1.0322,1.0322,1.0322,1.0322,4.1169,4.0083,4.0275,3.9804,3.8881,3.8489,3.787,3.701,0.0,0.0,0.0,3.6417,3.6417,3.6329,3.5215,3.468,3.4605,3.3583,3.3124,3.3124,3.3124,3.3124,3.3099,3.2591,3.2077,3.1524,3.1009,3.047,2.9942,2.9842,2.9553,2.9063,2.8423,2.7783,2.719,2.6725,2.6436,2.6298,2.5335,2.48,2.4763,2.3684,2.2844,2.2305,2.1882,2.138,2.0855,2.0289,1.9748,1.9321,1.9196,1.8895,1.8356,1.8355,1.8281,1.8204,1.8204,1.8254,1.8342,1.8342,1.8392,1.848,1.8882,1.9133,1.9146,1.9146,1.8814,1.8051,1.8543,1.8394,1.723,1.7495,1.755,1.6978,1.7313,1.7107,1.6026,1.6169,1.6236,1.57,1.5497,1.542,1.542,1.542,1.542,1.542,1.542,1.5079,1.4309,1.3968,1.3652,1.3057,1.2925,1.2915,1.2915,1.2915,1.2915,1.2915,1.2915,1.2915,1.2832,1.2588,1.2291,1.207,1.1463,1.1024,1.082,1.0498,1.0312,1.0322,1.0322,1.0322,1.0322,1.0322,1.0322,4.2509,4.1406,4.2509,4.1408,3.8919,3.9453,3.8454,3.6531,3.6443,3.6417,3.6417,3.6417,3.6417,3.6342,3.5215,3.468,3.465,3.3571,3.3124,0.0,3.3124,3.3124,3.3068,3.3036,3.2654,3.2089,3.1537,3.1009,3.0495,3.0018,2.9754,2.9541,2.8624,2.7595,2.6688,2.6524,2.6248,2.5711,2.5089,2.48,2.4775,2.3684,2.2844,2.2347,2.2234,2.1945,2.1421,2.0867,2.0541,2.0453,1.9962,1.9459,1.8933,1.8882,1.8682,1.8254,1.8204,1.8381,1.8845,1.8882,1.9083,1.9522,1.9648,1.9698,1.9685,1.9698,1.962,1.9501,1.954,1.9592,1.9307,1.8821,1.8489,1.834,1.7907,1.7495,1.7208,1.6838,1.651,1.6379,1.5777,1.5439,1.5468,1.5439,1.542,1.542,1.5371,1.5088,1.4241,1.3506,1.3066,1.2935,1.2915,1.2915,1.2915,1.2915,1.2915,1.2915,1.2915,1.2915,1.2915,1.2822,1.2531,1.1851,1.161,1.1225,1.0616,1.0361,1.0303,1.0322,1.0322,1.0322,1.0322,1.0322,1.0322,4.3787,4.2697,4.2861,4.2148,4.0764,3.9804,3.8574,3.7348,3.7322,3.6989,3.6405,3.6417,3.6417,3.6317,3.5215,3.468,3.463,3.3583,3.3124,3.3124,3.3124,3.3124,3.3124,3.3124,3.2616,3.1788,3.1512,3.0972,3.0206,2.9905,2.9641,2.9264,2.821,2.7256,2.6549,2.6487,2.6574,2.6716,2.5451,2.4682,2.4368,2.3534,2.2982,2.2719,2.2456,2.2209,2.1945,2.1433,2.1006,2.0731,2.044,2.0024,1.9459,1.9421,1.9309,1.9095,1.907,1.9183,1.9422,1.9421,1.9547,1.9773,1.9798,1.9798,1.9798,1.9798,1.9631,1.9254,1.9553,1.9618,1.9267,1.9254,1.915,1.8741,1.8715,1.8474,1.7786,1.7715,1.755,1.7118,1.6454,1.6007,1.6007,1.5642,1.542,1.5391,1.5244,1.4834,1.4192,1.3597,1.3125,1.2964,1.2915,1.2915,1.2915,1.2915,1.2915,1.2915,1.2915,1.2915,1.291,1.2907,1.2771,1.2434,1.2018,1.1552,1.1064,1.0616,1.04,1.0322,1.0322,1.0322,1.0322,1.0322,1.0322,4.507,4.3873,4.3504,4.3052,4.2324,4.0081,3.8882,3.8482,3.8243,3.7769,3.7209,3.693,3.6628,3.6292,3.5215,3.468,3.453,3.3571,3.3124,3.3124,3.3124,3.3124,3.3124,3.3124,3.2659,3.1842,3.1757,3.1187,3.0284,3.0343,2.9959,2.9071,2.8385,2.756,2.6546,2.6871,2.7232,2.742,2.6071,2.5058,2.4467,2.3888,2.3442,2.31,2.29,2.2673,2.246,2.1958,2.1509,2.1081,2.083,2.049,2.005,1.9874,1.9798,1.9798,1.9798,1.9798,1.9798,1.9798,1.9798,1.9798,1.9798,1.9798,1.9798,1.9798,1.9579,1.9123,1.9514,1.9579,1.9202,1.9449,1.9553,1.9032,1.9449,1.9307,1.8355,1.8328,1.834,1.7825,1.694,1.6265,1.6322,1.5874,1.5449,1.5361,1.5049,1.4619,1.4172,1.3753,1.3359,1.3052,1.2915,1.2915,1.2915,1.2915,1.2915,1.2915,1.2915,1.2915,1.2905,1.2936,1.288,1.2719,1.216,1.1644,1.1507,1.0883,1.0439,1.0448,1.0409,1.0341,1.0486,1.038,1.0322,4.6358,4.5393,4.5639,4.4642,4.2467,4.0608,3.9779,3.9593,3.8604,3.8693,3.9241,3.8424,3.7368,3.6348,3.5203,3.468,3.4638,3.3571,3.3124,3.3124,3.3124,3.3124,3.3124,3.3124,3.3018,3.2899,3.2754,3.2199,3.1356,3.1929,3.1321,2.9742,3.0112,2.9078,2.6965,2.7986,2.8184,2.7022,2.6992,2.664,2.5937,2.5418,2.4525,2.3125,2.3787,2.3777,2.3072,2.2493,2.2209,2.2083,2.1232,2.0691,2.0578,2.01,1.9811,1.9836,1.9836,1.9798,1.9811,1.9798,1.9811,1.9798,1.9798,1.9798,1.9798,1.9798,1.9773,1.9695,1.9747,1.9747,1.9734,1.9773,1.9747,1.9643,1.9721,1.9747,1.9449,1.8474,1.7922,1.8555,1.6985,1.5777,1.6397,1.5892,1.5449,1.54,1.5049,1.4629,1.4172,1.3743,1.3359,1.3008,1.2915,1.2929,1.2905,1.2915,1.2915,1.2915,1.2929,1.2978,1.3011,1.3014,1.2849,1.2839,1.2159,1.1706,1.1249,1.0669,1.0545,1.0706,1.063,1.0448,1.0753,1.0668,1.0477,4.7019,4.6476,4.5915,4.4682,4.2934,4.1479,4.0916,4.0817,4.0376,3.9741,3.8917,3.905,3.8527,3.7304,3.5509,3.468,3.4605,3.3571,3.3124,3.3124,3.3124,3.3124,3.3154,3.3797,3.3856,3.3591,3.3672,3.3378,3.2771,3.2645,3.1542,2.9802,3.0372,2.9571,2.7475,2.8409,2.8927,2.8881,2.8185,2.7722,2.7335,2.6104,2.4894,2.4031,2.4567,2.4582,2.3888,2.3606,2.3321,2.2943,2.214,2.1481,2.1194,2.0928,2.0803,2.0803,2.0803,2.0652,2.0338,2.0313,2.0162,1.9823,1.9798,1.9798,1.9798,1.9798,1.9798,1.9798,1.9798,1.9798,1.9798,1.9798,1.9798,1.9798,1.9798,1.9798,1.9773,1.9268,1.9044,1.9202,1.8182,1.7208,1.7006,1.6112,1.5497,1.5361,1.5059,1.4648,1.4199,1.3743,1.3359,1.3062,1.3166,1.3238,1.3017,1.2915,1.2929,1.2968,1.3214,1.3443,1.346,1.3816,1.3872,1.3374,1.2837,1.236,1.2019,1.1497,1.1217,1.1169,1.0962,1.0859,1.1356,1.133,1.1217,4.7309,4.71,4.5843,4.4646,4.3519,4.2485,4.207,4.2015,4.1753,4.0802,3.964,3.9842,3.9404,3.8354,3.6192,3.5137,3.5086,3.4341,3.3784,3.3586,3.3784,3.394,3.4066,3.4733,3.4888,3.4552,3.4699,3.4582,3.408,3.3339,3.2138,3.0829,3.1196,3.047,2.8668,2.924,2.9889,3.0139,2.9189,2.8679,2.849,2.6939,2.5563,2.4766,2.5119,2.5147,2.4624,2.4394,2.4123,2.3672,2.315,2.2536,2.1773,2.1751,2.1718,2.1509,2.1481,2.1317,2.0943,2.0918,2.0742,2.0313,2.015,2.0037,2.0063,2.0037,2.0037,2.0062,2.0037,2.0024,1.9811,1.9798,1.9798,1.9798,1.9798,1.9798,1.9798,1.9657,1.9501,1.9669,1.8543,1.7813,1.7079,1.6216,1.57,1.5429,1.5156,1.4828,1.4409,1.4014,1.3582,1.3431,1.3671,1.3589,1.3238,1.3406,1.3358,1.3454,1.3826,1.405,1.405,1.4518,1.474,1.4017,1.3638,1.3188,1.2654,1.2228,1.1789,1.1423,1.133,1.1519,1.1902,1.1902,1.1866,4.7309,4.71,4.5843,4.4885,4.4172,4.3464,4.3195,4.3036,4.2111,4.2111,4.2386,4.0788,3.9899,3.9585,3.7344,3.6292,3.632,3.6035,3.5426,3.4774,3.5521,3.6,3.6039,3.6119,3.6091,3.5991,3.5872,3.5668,3.5281,3.4423,3.3662,3.3,3.3113,3.2155,3.0269,3.0755,3.0999,3.0393,2.9833,2.9498,2.9376,2.8159,2.6803,2.5563,2.5425,2.5453,2.5287,2.4681,2.4281,2.4268,2.4285,2.3714,2.2468,2.2456,2.2291,2.1655,2.1543,2.1534,2.1496,2.1443,2.1421,2.1333,2.0959,2.068,2.0641,2.0721,2.0721,2.0654,2.0654,2.0453,1.9999,1.9861,1.9811,1.9798,1.9798,1.9798,1.9798,1.9293,1.915,1.9333,1.8112,1.6838,1.5835,1.6093,1.595,1.5575,1.5361,1.5161,1.4844,1.4374,1.415,1.4246,1.412,1.3792,1.3815,1.4014,1.4387,1.4456,1.4376,1.4686,1.4686,1.4722,1.4761,1.4598,1.4064,1.3591,1.3188,1.2731,1.2228,1.2008,1.2199,1.2417,1.2461,1.2066,1.2084,4.7055,4.6591,4.5678,4.4915,4.4257,4.3574,4.3305,4.3235,4.286,4.2467,4.2111,4.1337,4.0618,3.9844,3.8853,3.7645,3.6432,3.6239,3.6013,3.5708,3.6053,3.6198,3.629,3.6905,3.7214,3.7196,3.6961,3.6359,3.5526,3.5133,3.4354,3.3387,3.341,3.2544,3.1176,3.1249,3.1351,3.1028,3.0485,2.9983,2.9564,2.8697,2.775,2.6893,2.6811,2.6587,2.6122,2.5398,2.5007,2.5021,2.4608,2.4133,2.3676,2.3623,2.3347,2.2623,2.2506,2.2355,2.2071,2.2008,2.1857,2.1562,2.1774,2.1672,2.1386,2.1604,2.1739,2.1357,2.1219,2.1081,2.0803,2.025,1.9798,1.9798,1.9798,1.9798,1.9773,1.9553,1.9527,1.9475,1.8259,1.7135,1.6715,1.6244,1.57,1.5419,1.4933,1.4668,1.448,1.4129,1.4069,1.4213,1.4584,1.4949,1.4971,1.4721,1.4721,1.4812,1.4892,1.5163,1.5276,1.5599,1.5721,1.5162,1.4577,1.4281,1.3984,1.3629,1.3073,1.313,1.3301,1.2956,1.2952,1.2645,1.2692,4.704,4.6531,4.5663,4.505,4.4541,4.3648,4.3305,4.3305,4.3305,4.2845,4.2249,4.2152,4.1518,4.0591,4.0493,3.9377,3.748,3.727,3.7046,3.6774,3.7084,3.7238,3.7367,3.7979,3.8294,3.8215,3.7668,3.6746,3.5639,3.5489,3.4928,3.4032,3.3715,3.3015,3.2071,3.1679,3.1496,3.1376,3.0838,3.0283,2.9834,2.9041,2.8397,2.7974,2.772,2.7382,2.6852,2.5919,2.5536,2.5618,2.5049,2.4652,2.4652,2.4652,2.4279,2.359,2.3458,2.3213,2.2678,2.2556,2.2422,2.2087,2.248,2.2541,2.1913,2.2431,2.2431,2.197,2.1757,2.1744,2.1581,2.0903,2.0288,2.01,1.9924,1.9811,1.9798,1.9798,1.9631,1.9359,1.8859,1.8205,1.766,1.6985,1.6518,1.6159,1.5383,1.4914,1.4916,1.4661,1.4516,1.4635,1.5326,1.5733,1.5794,1.5611,1.55,1.5567,1.5511,1.5732,1.5886,1.6281,1.6253,1.568,1.5311,1.5097,1.4824,1.4481,1.4366,1.4344,1.3951,1.3532,1.343,1.3276,1.3174,4.7309,4.707,4.5858,4.5259,4.502,4.3868,4.3305,4.3305,4.3305,4.321,4.3076,4.3195,4.2467,4.1761,4.1877,4.1209,3.9517,3.9191,3.8679,3.7942,3.8745,3.9141,3.9141,3.9156,3.9109,3.8975,3.7983,3.6746,3.5579,3.5489,3.5379,3.5203,3.411,3.3499,3.3424,3.2198,3.1555,3.1391,3.0883,3.0552,3.0357,2.9355,2.8742,2.8547,2.8019,2.7649,2.7584,2.6229,2.5783,2.6297,2.5797,2.5439,2.5398,2.5342,2.5007,2.4308,2.4234,2.3826,2.319,2.3045,2.2995,2.2988,2.3243,2.3128,2.2556,2.3043,2.3184,2.2483,2.2367,2.238,2.2275,2.1769,2.1232,2.0767,2.0288,2.0024,1.9886,1.9811,1.9553,1.9071,1.915,1.9071,1.8194,1.7759,1.7649,1.7169,1.6594,1.614,1.6176,1.5922,1.6016,1.6142,1.6312,1.644,1.6485,1.6479,1.6457,1.6414,1.6306,1.6337,1.6272,1.6488,1.6362,1.5894,1.5625,1.5412,1.5462,1.5164,1.501,1.4909,1.4456,1.4075,1.3817,1.3609,1.3353,4.7309,4.7145,4.5858,4.5289,4.5125,4.3898,4.3305,4.3305,4.3305,4.3305,4.3305,4.3305,4.267,4.1925,4.2139,4.1371,3.9711,3.9904,3.966,3.9054,3.9265,3.9388,3.9388,3.9388,3.8895,3.8108,3.7644,3.6746,3.5729,3.5504,3.5489,3.531,3.4607,3.3933,3.3469,3.2647,3.2004,3.1525,3.1301,3.0972,3.0552,3.0118,2.9714,2.925,2.8648,2.8278,2.8237,2.69,2.6297,2.651,2.6297,2.6149,2.6068,2.5687,2.5063,2.435,2.3767,2.3424,2.3155,2.3095,2.3095,2.322,2.3661,2.3596,2.3128,2.4004,2.4118,2.3174,2.3304,2.3496,2.2905,2.2355,2.1845,2.1292,2.1094,2.0742,2.0313,2.0024,1.972,1.9475,1.9228,1.8821,1.834,1.8043,1.7413,1.7141,1.6558,1.6233,1.6272,1.6688,1.6859,1.7003,1.7047,1.7082,1.7075,1.6898,1.6697,1.6647,1.6575,1.6513,1.6513,1.6488,1.635,1.6208,1.5932,1.5831,1.5881,1.5844,1.5688,1.5525,1.5221,1.4764,1.4249,1.3896,1.3622,4.7309,4.7174,4.6127,4.5514,4.52,4.4137,4.3499,4.3319,4.3305,4.3305,4.3305,4.3305,4.2926,4.2379,4.259,4.1937,4.0749,4.0776,4.0412,3.9798,3.9448,3.9388,3.9388,3.9388,3.8886,3.7898,3.7524,3.6881,3.5908,3.5639,3.5489,3.5385,3.4848,3.4143,3.3484,3.2841,3.2153,3.16,3.1481,3.1301,3.0926,3.0642,3.0313,2.9864,2.9071,2.8637,2.8521,2.7479,2.6904,2.6904,2.6904,2.68,2.651,2.6283,2.5892,2.5147,2.4439,2.3989,2.3901,2.3471,2.3245,2.3603,2.425,2.4179,2.3666,2.4511,2.4667,2.3501,2.3488,2.3649,2.3165,2.2819,2.2418,2.2159,2.1496,2.1018,2.0453,2.0037,1.9823,1.9669,1.9423,1.915,1.8821,1.8501,1.7731,1.7659,1.7038,1.6732,1.6866,1.7239,1.741,1.7637,1.7873,1.7816,1.7656,1.7325,1.6911,1.6785,1.6697,1.6575,1.6513,1.65,1.6412,1.6337,1.6145,1.6183,1.6233,1.6274,1.6187,1.607,1.5819,1.5248,1.4651,1.4198,1.3866,4.7309,4.7219,4.6606,4.5888,4.5244,4.4541,4.3843,4.3349,4.3305,4.3305,4.3305,4.3305,4.325,4.325,4.32,4.2787,4.2312,4.1556,4.092,4.0292,3.9753,3.9388,3.9388,3.9388,3.9005,3.8317,3.7704,3.706,3.6372,3.5789,3.5489,3.5415,3.4906,3.4233,3.3649,3.2916,3.2288,3.175,3.1555,3.1481,3.1406,3.0913,3.0569,3.0507,2.9475,2.8816,2.8667,2.7957,2.7509,2.756,2.7524,2.7214,2.6852,2.7203,2.6982,2.6297,2.5728,2.5189,2.4951,2.3842,2.3424,2.4147,2.4538,2.4753,2.3708,2.4525,2.4768,2.3335,2.3382,2.3365,2.3215,2.3045,2.2982,2.2832,2.1707,2.0715,2.0049,1.9911,1.9798,1.9798,1.9798,1.9773,1.9669,1.9501,1.9397,1.919,1.8282,1.7993,1.8116,1.8098,1.7919,1.8168,1.8598,1.8411,1.8229,1.7549,1.7137,1.6999,1.6835,1.6609,1.6513,1.65,1.6488,1.6425,1.6387,1.645,1.6488,1.6488,1.6488,1.635,1.5994,1.5537,1.5035,1.4538,1.4029,4.7309,4.7234,4.6606,4.5933,4.5244,4.4586,4.3902,4.3334,4.3305,4.3305,4.3305,4.3305,4.3305,4.3305,4.329,4.2985,4.241,4.1737,4.104,4.0367,3.9723,3.9418,3.9388,3.9373,3.9065,3.8407,3.7749,3.709,3.6477,3.5833,3.5504,3.5489,3.5295,3.4861,3.4249,3.3544,3.2916,3.2243,3.172,3.1511,3.1466,3.1331,3.1241,3.1152,3.0374,2.9759,2.9265,2.8214,2.76,2.7585,2.7585,2.7534,2.728,2.7034,2.68,2.6469,2.5398,2.4639,2.4481,2.3708,2.3543,2.4118,2.4134,2.3783,2.406,2.4851,2.4582,2.3679,2.4018,2.4266,2.3382,2.3095,2.2945,2.2481,2.1782,2.1179,2.0865,2.03,1.9798,1.9798,1.9798,1.9798,1.9721,1.9423,1.915,1.9044,1.8741,1.8447,1.8715,1.8927,1.873,1.8984,1.9208,1.8983,1.8594,1.7865,1.7375,1.7225,1.6961,1.6563,1.6525,1.65,1.65,1.6488,1.645,1.6488,1.65,1.65,1.6513,1.6513,1.6337,1.5944,1.5286,1.4708,1.4243,4.7309,4.7264,4.689,4.6352,4.5678,4.502,4.4347,4.3723,4.3394,4.3305,4.3305,4.3305,4.3305,4.3305,4.329,4.3095,4.2686,4.1803,4.119,4.0741,3.9858,3.9418,3.9388,3.9373,3.92,3.8751,3.7853,3.727,3.6761,3.5968,3.5534,3.5489,3.5489,3.513,3.4503,3.4113,3.3425,3.2617,3.2079,3.1809,3.154,3.1496,3.1496,3.1376,3.0866,3.0208,2.9549,2.8843,2.8214,2.7764,2.7585,2.7585,2.756,2.7214,2.6956,2.6904,2.585,2.5259,2.5035,2.4237,2.3855,2.4205,2.4018,2.393,2.4047,2.4696,2.4753,2.3514,2.4337,2.4192,2.3442,2.3095,2.2957,2.2681,2.2171,2.1656,2.1257,2.0313,1.9874,1.9798,1.9798,1.9798,1.9798,1.9397,1.9228,1.9111,1.8927,1.8953,1.9137,1.9359,1.9515,1.9558,1.9623,1.9409,1.9146,1.8543,1.8041,1.784,1.7325,1.6886,1.6663,1.6626,1.6513,1.6513,1.6513,1.6513,1.6513,1.6513,1.6513,1.6513,1.6513,1.6245,1.5563,1.511,1.4588,4.7309,4.7309,4.7309,4.692,4.6232,4.5589,4.4855,4.4242,4.3559,4.3305,4.3305,4.3305,4.3305,4.3305,4.3305,4.3275,4.3185,4.1953,4.1294,4.0696,3.9963,3.9388,3.9388,3.9388,3.9358,3.914,3.8078,3.7554,3.709,3.6163,3.5624,3.5534,3.5489,3.5205,3.4788,3.4533,3.3829,3.3021,3.2557,3.2168,3.1765,3.16,3.1496,3.1406,3.0866,3.0298,2.9849,2.9502,2.9037,2.7899,2.775,2.7705,2.766,2.76,2.7575,2.7367,2.6759,2.631,2.6229,2.5119,2.4509,2.4709,2.5049,2.4838,2.4092,2.4739,2.4809,2.3514,2.4031,2.425,2.3531,2.3275,2.319,2.3022,2.2569,2.1857,2.1056,2.0302,1.9861,1.9798,1.9798,1.9798,1.9798,1.9798,1.9773,1.9475,1.9281,1.9307,1.9359,1.9437,1.9605,1.9722,1.9761,1.9773,1.9547,1.9233,1.8845,1.8506,1.7877,1.7388,1.7036,1.6864,1.6613,1.6513,1.6513,1.6513,1.6513,1.6513,1.6522,1.6513,1.6513,1.622,1.5827,1.5542,1.5141,4.7309,4.7309,4.7309,4.6935,4.6277,4.5589,4.4915,4.4272,4.3574,4.3305,4.3305,4.3305,4.3305,4.3305,4.3305,4.3305,4.314,4.1983,4.0891,3.9828,3.9597,3.9388,3.9388,3.9388,3.9388,3.9164,3.8586,3.7913,3.7315,3.6626,3.5998,3.5549,3.5489,3.5429,3.5235,3.4788,3.4429,3.3903,3.3095,3.2497,3.2183,3.1765,3.154,3.1466,3.0868,3.0522,3.0253,2.9861,2.9472,2.9127,2.8693,2.8259,2.7794,2.769,2.7675,2.7473,2.6985,2.6566,2.6336,2.5755,2.5398,2.5701,2.5175,2.4639,2.4993,2.5147,2.4979,2.4452,2.5189,2.5259,2.425,2.4031,2.3738,2.3251,2.2715,2.2275,2.1857,2.1081,2.0402,2.0,1.9849,1.9798,1.9811,1.9798,1.9798,1.9773,1.9721,1.9669,1.9605,1.9579,1.9657,1.9798,1.9798,1.9798,1.9698,1.9472,1.9233,1.8945,1.843,1.7877,1.7526,1.7074,1.6823,1.6626,1.6513,1.6522,1.6565,1.6607,1.6637,1.6565,1.6552,1.6372,1.6173,1.5946,1.5768,4.7309,4.7309,4.7309,4.6935,4.6277,4.5574,4.493,4.4272,4.3589,4.3305,4.3305,4.3305,4.3305,4.3305,4.3305,4.3305,4.2991,4.1983,4.0681,3.9672,3.9388,3.9388,3.9388,3.9388,3.9373,3.9305,3.8706,3.8048,3.7404,3.6791,3.6133,3.5549,3.5489,3.5489,3.5489,3.513,3.4833,3.4412,3.3829,3.3185,3.2527,3.2168,3.1735,3.1555,3.1152,3.0957,3.0956,3.0688,3.0357,3.0013,2.9654,2.9026,2.8323,2.8334,2.8244,2.7643,2.7636,2.7047,2.6625,2.6176,2.5933,2.6042,2.5508,2.5425,2.5536,2.5673,2.5536,2.5259,2.5646,2.6,2.4951,2.4394,2.4047,2.3699,2.3082,2.2744,2.2595,2.1794,2.0855,2.0402,2.0238,2.0062,1.9949,1.9874,1.9798,1.9798,1.9798,1.9747,1.9747,1.9708,1.9721,1.9798,1.9798,1.9786,1.9761,1.9635,1.9472,1.9208,1.892,1.843,1.7992,1.7501,1.6986,1.6888,1.6798,1.665,1.668,1.671,1.6858,1.693,1.6899,1.6715,1.6708,1.6855,1.655,4.7309,4.7309,4.7309,4.6935,4.6262,4.5574,4.4915,4.4257,4.3574,4.3305,4.3305,4.3305,4.3305,4.3305,4.3305,4.3245,4.2731,4.1983,4.0681,3.9508,3.9388,3.9388,3.9388,3.9388,3.9373,3.9298,3.8901,3.8227,3.7464,3.6881,3.6312,3.5654,3.5489,3.5489,3.5489,3.5474,3.522,3.4741,3.4459,3.3964,3.3006,3.2662,3.2108,3.1585,3.1451,3.1391,3.1391,3.1316,3.1197,3.0717,3.0672,3.0028,2.937,2.916,2.9202,2.8019,2.8435,2.8213,2.7574,2.713,2.6887,2.6091,2.6434,2.6432,2.6158,2.6252,2.6168,2.6096,2.6203,2.6469,2.566,2.5203,2.4681,2.4234,2.3632,2.3359,2.3153,2.2424,2.185,2.093,2.0629,2.0377,2.0126,1.9936,1.9861,1.9798,1.9798,1.9798,1.9798,1.9798,1.9798,1.9798,1.9798,1.9798,1.9773,1.9761,1.9597,1.9497,1.9271,1.9007,1.8518,1.799,1.7521,1.7271,1.714,1.7016,1.7055,1.7271,1.7394,1.7415,1.7395,1.7316,1.7505,1.7814,1.737,4.7309,4.7309,4.7309,4.692,4.6262,4.5589,4.49,4.4272,4.3559,4.3305,4.3305,4.3305,4.3305,4.3305,4.3305,4.2737,4.1998,4.1429,4.0666,3.9568,3.9388,3.9388,3.9388,3.9388,3.9388,3.9409,3.917,3.8536,3.7704,3.7255,3.6596,3.5744,3.5504,3.5504,3.5489,3.5489,3.5444,3.516,3.4816,3.4337,3.3888,3.2991,3.2228,3.1645,3.1555,3.1496,3.1496,3.1496,3.1451,3.1346,3.1331,3.0883,3.0283,2.9864,2.952,2.9262,2.9292,2.9158,2.8815,2.8916,2.8976,2.8801,2.8338,2.7801,2.7377,2.7232,2.7142,2.6876,2.6969,2.713,2.6404,2.6141,2.5495,2.4793,2.4234,2.3936,2.3573,2.3425,2.3108,2.208,2.1377,2.0654,2.039,2.0112,1.9962,1.9874,1.9798,1.9798,1.9798,1.9798,1.9798,1.9798,1.9798,1.9798,1.9798,1.9786,1.9736,1.971,1.961,1.9623,1.9132,1.8554,1.8143,1.8018,1.7718,1.7461,1.7585,1.7821,1.7927,1.7953,1.7953,1.7953,1.8112,1.8249,1.8112,4.7309,4.7309,4.7309,4.6711,4.5828,4.5454,4.4706,4.3838,4.3439,4.3305,4.3305,4.3305,4.3305,4.3305,4.3305,4.2611,4.1669,4.1422,4.0621,3.9664,3.9388,3.9388,3.9388,3.9388,3.9388,3.9388,3.9328,3.8931,3.7958,3.7539,3.6911,3.6178,3.5714,3.5504,3.5489,3.5489,3.5489,3.54,3.516,3.4801,3.4412,3.32,3.2363,3.2064,3.169,3.1511,3.1496,3.1496,3.1496,3.1481,3.1496,3.1301,3.1002,3.0717,3.0268,2.9846,2.9921,2.9936,2.9669,2.9621,2.9522,2.9522,2.921,2.8937,2.8674,2.8569,2.8353,2.8198,2.7865,2.7973,2.7528,2.7227,2.6688,2.6064,2.538,2.492,2.4809,2.4851,2.4207,2.3367,2.2847,2.2001,2.0654,2.0402,2.0125,1.9962,1.9849,1.9849,1.9886,1.9962,2.0037,1.9874,1.9886,1.9874,1.9861,1.9836,1.9911,1.9924,1.9837,1.9838,1.9711,1.9112,1.8975,1.8955,1.8555,1.8173,1.8027,1.8218,1.8361,1.8516,1.8516,1.8535,1.8593,1.8612,1.8535,4.7309,4.7309,4.7309,4.6531,4.5409,4.5289,4.4556,4.3469,4.3305,4.3305,4.3305,4.3305,4.3305,4.3305,4.314,4.2626,4.1497,4.1422,4.0621,3.9649,3.9388,3.9388,3.9388,3.9388,3.9388,3.9388,3.9373,3.9065,3.8362,3.7898,3.724,3.6522,3.5878,3.5594,3.5549,3.5489,3.5489,3.5489,3.5474,3.5145,3.4367,3.3514,3.2826,3.2676,3.2168,3.1914,3.1809,3.178,3.1645,3.1555,3.1496,3.1481,3.1496,3.1496,3.1002,3.0268,3.0477,3.0357,3.0193,3.0073,3.0178,3.0193,3.0043,2.9939,2.9672,2.9501,2.9451,2.949,2.9175,2.8788,2.8523,2.8239,2.7857,2.7437,2.6665,2.6036,2.6035,2.5938,2.5605,2.4942,2.4421,2.3416,2.2095,2.1217,2.1066,2.0478,2.0338,2.0288,2.0326,2.0465,2.044,2.0138,1.9999,1.9962,1.9936,1.9874,2.0012,2.0201,2.004,1.9915,1.9848,1.9646,1.9728,1.9873,1.9518,1.9157,1.8891,1.8698,1.8912,1.9043,1.9062,1.908,1.9132,1.9169,1.9151,4.7309,4.7309,4.7309,4.6531,4.5394,4.5289,4.4541,4.3379,4.3305,4.3305,4.3305,4.3305,4.3305,4.3305,4.3305,4.2581,4.1713,4.1347,4.0666,3.9538,3.9388,3.9388,3.9388,3.9388,3.9388,3.9388,3.9388,3.902,3.8571,3.8317,3.7659,3.6825,3.6432,3.6118,3.5684,3.5534,3.5489,3.5489,3.5489,3.519,3.4653,3.4262,3.3844,3.3484,3.3185,3.2901,3.2437,3.2348,3.2183,3.169,3.16,3.154,3.1496,3.1496,3.1481,3.1316,3.1346,3.1346,3.1167,3.1047,3.1032,3.1002,3.1092,3.0941,3.0507,2.9953,2.9699,2.9621,2.9517,2.9552,2.9523,2.9372,2.898,2.8573,2.8064,2.7257,2.6933,2.7043,2.6699,2.6207,2.5596,2.4709,2.3594,2.2763,2.2021,2.1371,2.0867,2.0871,2.0967,2.1217,2.1363,2.1212,2.1004,2.094,2.0668,2.0513,2.0423,2.06,2.0322,2.0194,2.0483,2.0627,2.073,2.0774,2.0443,2.0151,1.989,1.9729,1.9664,1.9634,1.9671,1.9657,1.9617,1.9654,1.9584,4.7309,4.7309,4.7309,4.6531,4.5364,4.5289,4.4556,4.3484,4.3305,4.3305,4.3305,4.3305,4.3305,4.3305,4.3305,4.2596,4.1647,4.1422,4.0666,3.9612,3.9388,3.9388,3.9388,3.9388,3.9388,3.9388,3.9373,3.9313,3.8916,3.8527,3.7988,3.7569,3.69,3.6387,3.6013,3.5684,3.5534,3.5489,3.5474,3.5355,3.5026,3.4713,3.4384,3.4084,3.3724,3.3395,3.317,3.3051,3.2961,3.2647,3.2632,3.2437,3.2168,3.2034,3.1929,3.1481,3.1481,3.1481,3.1466,3.1511,3.1496,3.1496,3.1496,3.1316,3.0972,3.0522,3.0328,3.0658,3.0313,3.0283,3.0447,3.0298,2.9995,2.9638,2.9295,2.8612,2.7998,2.7942,2.7809,2.7293,2.6771,2.5905,2.4982,2.3947,2.3071,2.2338,2.2017,2.2044,2.2233,2.2498,2.2589,2.2613,2.2414,2.2243,2.1838,2.1525,2.1251,2.1212,2.0809,2.0835,2.1506,2.1755,2.1685,2.1646,2.1448,2.1143,2.0889,2.0722,2.0639,2.0464,2.0288,2.0154,2.0007,1.9723,1.9654,4.7309,4.7309,4.7309,4.6516,4.5319,4.5289,4.4541,4.3364,4.3305,4.3305,4.3305,4.3305,4.3305,4.3305,4.3215,4.2626,4.1467,4.1422,4.0561,3.9813,3.9388,3.9388,3.9388,3.9388,3.9388,3.9388,3.9388,3.9343,3.9194,3.8931,3.8601,3.8377,3.7573,3.6971,3.6596,3.6148,3.5774,3.5489,3.5489,3.5474,3.5355,3.5043,3.4848,3.4592,3.4292,3.3918,3.3769,3.3739,3.3724,3.341,3.3365,3.311,3.2811,3.2736,3.2602,3.2183,3.2034,3.1824,3.175,3.1675,3.154,3.1496,3.1496,3.1466,3.1421,3.0987,3.0853,3.1316,3.1032,3.1062,3.1241,3.0957,3.0795,3.0557,3.0321,2.9732,2.9209,2.9083,2.8702,2.8032,2.7587,2.734,2.634,2.5105,2.4164,2.3366,2.3152,2.3232,2.3513,2.3826,2.3718,2.3676,2.3363,2.3233,2.312,2.2709,2.2375,2.2002,2.1588,2.1494,2.2152,2.2363,2.2277,2.2257,2.2301,2.2338,2.2153,2.1874,2.1545,2.1216,2.0887,2.0557,2.0303,2.0007,1.975,4.7309,4.7309,4.7309,4.6531,4.5289,4.5289,4.4541,4.3319,4.3305,4.3305,4.3305,4.3305,4.3305,4.3305,4.3185,4.2611,4.1422,4.1422,4.0546,3.9798,3.9388,3.9388,3.9388,3.9388,3.9388,3.9388,3.9388,3.9388,3.9373,3.9269,3.8886,3.8422,3.8142,3.7808,3.7345,3.6746,3.6118,3.5789,3.5654,3.5564,3.5519,3.537,3.534,3.5355,3.5295,3.5085,3.4503,3.4444,3.4279,3.3799,3.3799,3.3664,3.3484,3.3425,3.329,3.3006,3.2617,3.2437,3.2377,3.1959,3.1615,3.1525,3.1555,3.1645,3.166,3.1525,3.1481,3.1481,3.1286,3.1346,3.1451,3.1436,3.1256,3.1152,3.0913,3.0539,3.0163,3.0046,2.96,2.882,2.839,2.8148,2.7732,2.6527,2.5459,2.4648,2.4624,2.4707,2.4894,2.5103,2.4803,2.4583,2.4191,2.4114,2.4331,2.4044,2.3616,2.3312,2.2928,2.2702,2.2781,2.2863,2.3051,2.2988,2.3036,2.327,2.3289,2.2712,2.2173,2.1829,2.15,2.1246,2.0857,2.0498,2.0217,4.7309,4.7309,4.7309,4.6531,4.5289,4.5289,4.4541,4.3424,4.3305,4.3305,4.3305,4.3305,4.3305,4.3305,4.323,4.2626,4.1519,4.1422,4.0546,3.9813,3.9388,3.9388,3.9388,3.9388,3.9388,3.9388,3.9388,3.9388,3.9388,3.9388,3.9298,3.899,3.8646,3.8317,3.7853,3.7389,3.6746,3.6282,3.6043,3.5953,3.5519,3.5489,3.5489,3.5489,3.5489,3.54,3.5145,3.5115,3.4951,3.4771,3.4681,3.4427,3.4143,3.4098,3.3933,3.3649,3.329,3.3155,3.3006,3.2587,3.2303,3.2557,3.2392,3.2108,3.2064,3.1795,3.1555,3.1496,3.154,3.1585,3.1496,3.1496,3.1451,3.1481,3.1361,3.1092,3.0883,3.0717,3.0298,2.9415,2.9116,2.8925,2.8487,2.7958,2.6936,2.6028,2.6103,2.6147,2.622,2.6306,2.5997,2.5842,2.5523,2.5337,2.5576,2.5251,2.4853,2.4543,2.4259,2.4005,2.3783,2.3871,2.4,2.388,2.361,2.3513,2.3364,2.3146,2.2802,2.2448,2.2224,2.2029,2.156,2.1051,2.0797,4.7309,4.7279,4.71,4.6352,4.5349,4.5289,4.4556,4.3439,4.3305,4.3305,4.3305,4.3305,4.3305,4.3305,4.326,4.2791,4.1878,4.1467,4.0696,4.0038,3.9574,3.9418,3.9388,3.9388,3.9388,3.9388,3.9388,3.9388,3.9388,3.9388,3.9343,3.923,3.8975,3.8766,3.8556,3.8033,3.7404,3.6896,3.6507,3.6327,3.5833,3.5594,3.5504,3.5489,3.5489,3.5474,3.5429,3.54,3.5415,3.537,3.5325,3.519,3.4951,3.4711,3.4548,3.4203,3.3918,3.3799,3.3634,3.329,3.3051,3.32,3.3066,3.2841,3.2677,3.2348,3.2287,3.1869,3.1839,3.1735,3.163,3.1496,3.1496,3.1496,3.1496,3.1286,3.1137,3.0943,3.0537,2.9968,2.9804,2.9624,2.9205,2.8737,2.7947,2.7094,2.686,2.693,2.7016,2.7115,2.7151,2.7077,2.7069,2.6935,2.6872,2.644,2.6035,2.5652,2.537,2.5101,2.4972,2.4917,2.4619,2.4246,2.3932,2.3699,2.3505,2.3325,2.3191,2.3047,2.2778,2.2463,2.2143,2.1665,2.15,4.7294,4.7219,4.6621,4.5948,4.5244,4.5289,4.4526,4.3379,4.3305,4.3305,4.3305,4.3305,4.3305,4.3305,4.3305,4.2865,4.2246,4.1662,4.095,4.0292,3.9649,3.9433,3.9388,3.9388,3.9388,3.9388,3.9388,3.9388,3.9388,3.9388,3.9388,3.9388,3.9254,3.9245,3.929,3.8706,3.8048,3.7404,3.6851,3.6567,3.6252,3.5804,3.5534,3.5489,3.5489,3.5489,3.5489,3.5489,3.5489,3.5489,3.5489,3.5415,3.534,3.5325,3.5265,3.522,3.4726,3.4533,3.4444,3.386,3.3724,3.3754,3.3679,3.3484,3.3469,3.332,3.3036,3.2542,3.2467,3.2168,3.1839,3.1555,3.1615,3.1496,3.1496,3.1466,3.1301,3.1227,3.0823,3.0627,3.0492,3.0283,2.9876,2.9397,2.8757,2.8166,2.7754,2.7615,2.763,2.76,2.76,2.7585,2.7585,2.7484,2.728,2.7433,2.72,2.6792,2.6424,2.6087,2.5685,2.5373,2.5023,2.4605,2.4231,2.3917,2.3744,2.3565,2.343,2.3266,2.3032,2.2748,2.2488,2.2368,2.2263,4.7055,4.6593,4.6369,4.5678,4.4721,4.4646,4.4122,4.3394,4.3305,4.3305,4.3305,4.3305,4.3305,4.3305,4.3245,4.2985,4.2396,4.1722,4.1025,4.0397,3.9738,3.9463,3.9388,3.9388,3.9388,3.9388,3.9388,3.9388,3.9388,3.9388,3.9388,3.9388,3.9388,3.9388,3.9379,3.908,3.8736,3.8063,3.7449,3.6911,3.6477,3.5893,3.5519,3.5519,3.5489,3.5489,3.5489,3.5489,3.5489,3.5489,3.5489,3.5489,3.5489,3.5489,3.5489,3.5489,3.516,3.5175,3.5145,3.4921,3.4846,3.4666,3.4382,3.4158,3.4143,3.3709,3.341,3.3245,3.317,3.2826,3.2377,3.2243,3.2108,3.16,3.1496,3.1496,3.1421,3.1436,3.1271,3.1227,3.1137,3.0791,3.0387,3.0058,2.9505,2.9067,2.8648,2.7974,2.7824,2.7675,2.76,2.76,2.7585,2.7585,2.7585,2.7585,2.7585,2.7245,2.7026,2.6892,2.6482,2.5959,2.5465,2.5023,2.4575,2.4141,2.3827,2.3595,2.3595,2.346,2.3236,2.3161,2.3071,2.3086,2.3161,4.687,4.6005,4.6052,4.5397,4.4417,4.4317,4.3902,4.3379,4.3305,4.3305,4.3305,4.3305,4.3305,4.3305,4.3245,4.3155,4.2611,4.1743,4.1294,4.0606,3.9783,3.9478,3.9388,3.9388,3.9388,3.9388,3.9388,3.9388,3.9388,3.9388,3.9388,3.9388,3.9388,3.9388,3.9373,3.9305,3.92,3.8616,3.8108,3.7449,3.6866,3.6267,3.5759,3.5579,3.5489,3.5489,3.5489,3.5489,3.5489,3.5489,3.5489,3.5489,3.5489,3.5489,3.5489,3.5489,3.5489,3.5489,3.5444,3.5444,3.5325,3.534,3.5026,3.4861,3.4801,3.4532,3.4173,3.3963,3.3858,3.3455,3.3021,3.2901,3.2647,3.2138,3.2108,3.2138,3.1869,3.1899,3.169,3.1675,3.1466,3.1137,3.0898,3.0629,3.0283,2.9909,2.952,2.8816,2.8169,2.8019,2.7779,2.7615,2.7615,2.763,2.7615,2.7585,2.7585,2.7585,2.748,2.7345,2.7091,2.6527,2.6004,2.5435,2.4889,2.4365,2.3849,2.3595,2.3655,2.364,2.352,2.3505,2.3595,2.3595,2.3595,4.6763,4.5421,4.5561,4.5135,4.4338,4.4212,4.3868,4.3305,4.3305,4.3305,4.3305,4.3305,4.3305,4.3305,4.3305,4.326,4.3045,4.1998,4.1647,4.1055,4.0172,3.9798,3.9493,3.9469,3.9403,3.9388,3.9388,3.9388,3.9388,3.9388,3.9388,3.9388,3.9388,3.9388,3.9388,3.9373,3.9328,3.905,3.8542,3.7958,3.7404,3.6836,3.6252,3.5923,3.5714,3.5624,3.5564,3.5489,3.5489,3.5489,3.5489,3.5489,3.5489,3.5489,3.5489,3.5489,3.5489,3.5489,3.5489,3.5489,3.5489,3.5489,3.5444,3.5459,3.5385,3.519,3.4906,3.4651,3.4502,3.4068,3.3679,3.3574,3.3455,3.329,3.3245,3.3006,3.2617,3.2392,3.2079,3.1869,3.1615,3.1376,3.1331,3.1122,3.0808,3.0658,3.0283,2.9819,2.919,2.8723,2.8364,2.763,2.7645,2.7675,2.766,2.763,2.7585,2.7585,2.7585,2.748,2.727,2.7091,2.6587,2.5989,2.5232,2.4634,2.4141,2.3857,2.3774,2.3744,2.3774,2.3595,2.3595,2.3595,2.3595,4.6748,4.5338,4.5577,4.4869,4.3683,4.3629,4.3454,4.3305,4.3305,4.3305,4.3305,4.3305,4.3369,4.3305,4.3305,4.3344,4.3015,4.2581,4.2261,4.1587,4.0785,4.0292,3.9948,3.9694,3.9478,3.9388,3.9388,3.9388,3.9388,3.9388,3.9388,3.9388,3.9388,3.9388,3.9388,3.9388,3.9388,3.9239,3.8781,3.8377,3.7988,3.7449,3.6806,3.6312,3.6118,3.5953,3.5609,3.5504,3.5489,3.5489,3.5489,3.5489,3.5489,3.5489,3.5489,3.5489,3.5489,3.5489,3.5489,3.5489,3.5489,3.5489,3.5489,3.5489,3.5489,3.5459,3.5385,3.5175,3.504,3.4681,3.4367,3.4233,3.4053,3.3918,3.3858,3.3634,3.326,3.2946,3.2647,3.2153,3.1884,3.16,3.157,3.1436,3.1167,3.1182,3.0987,3.0524,3.0103,2.9579,2.9007,2.8244,2.8049,2.8199,2.7794,2.7675,2.763,2.7585,2.7585,2.7585,2.748,2.73,2.7061,2.6527,2.5779,2.5098,2.45,2.4321,2.4313,2.4118,2.4066,2.3804,2.361,2.3655,2.3625,4.7354,4.5835,4.6239,4.5667,4.451,4.4051,4.4066,4.4266,4.3654,4.3305,4.3369,4.3747,4.3654,4.3409,4.3693,4.3897,4.3836,4.2874,4.2513,4.2651,4.1505,4.0763,4.0307,3.9993,3.9709,3.9544,3.9388,3.9388,3.9388,3.9388,3.9388,3.9388,3.9388,3.9388,3.9388,3.9388,3.9388,3.9269,3.9035,3.8676,3.8332,3.7973,3.736,3.6716,3.6552,3.6163,3.5639,3.5549,3.5519,3.5504,3.5489,3.5489,3.5489,3.5489,3.5489,3.5489,3.5489,3.5489,3.5489,3.5489,3.5489,3.5489,3.5489,3.5489,3.5489,3.5474,3.5459,3.54,3.54,3.5325,3.5085,3.4846,3.4622,3.4382,3.4292,3.4203,3.3888,3.3559,3.3095,3.2587,3.2168,3.1839,3.166,3.1555,3.1481,3.1406,3.1256,3.0928,3.0539,3.0148,2.9579,2.8933,2.8828,2.8828,2.8364,2.7944,2.7884,2.7794,2.7585,2.7585,2.7585,2.748,2.7225,2.6821,2.6288,2.5689,2.5113,2.5023,2.4963,2.4769,2.4702,2.4642,2.4313,2.3864,2.3789,4.8304,4.6333,4.7154,4.6916,4.6224,4.5322,4.5431,4.6048,4.4441,4.3576,4.3834,4.4548,4.4457,4.419,4.4593,4.4721,4.4447,4.367,4.3494,4.3805,4.2498,4.1549,4.1029,4.0441,3.9918,3.9553,3.9388,3.9388,3.9388,3.9388,3.9388,3.9388,3.9388,3.9388,3.9388,3.9388,3.9388,3.9343,3.9254,3.9065,3.8691,3.8317,3.7913,3.6971,3.6671,3.6432,3.5848,3.5609,3.5564,3.5534,3.5489,3.5489,3.5489,3.5489,3.5489,3.5489,3.5489,3.5489,3.5489,3.5489,3.5489,3.5489,3.5489,3.5489,3.5489,3.5489,3.5489,3.5489,3.5474,3.5459,3.5265,3.522,3.5055,3.4981,3.4921,3.4801,3.4577,3.4113,3.3499,3.2961,3.2392,3.2034,3.16,3.1496,3.1496,3.1496,3.1421,3.1182,3.0972,3.0657,3.0118,2.9592,2.9549,2.9415,2.8951,2.8562,2.8304,2.8094,2.7854,2.76,2.7615,2.751,2.739,2.7076,2.6776,2.6333,2.5914,2.5794,2.5674,2.56,2.554,2.5585,2.5196,2.4597,2.4148,4.8142,4.6957,4.666,4.6781,4.7122,4.626,4.6384,4.7122,4.6032,4.5457,4.5566,4.571,4.5674,4.5436,4.5654,4.5634,4.4949,4.4771,4.4888,4.447,4.351,4.2674,4.2036,4.1189,4.0332,3.9582,3.9388,3.9388,3.9388,3.9388,3.9388,3.9388,3.9388,3.9388,3.9388,3.9388,3.9388,3.9388,3.9358,3.9313,3.914,3.905,3.8736,3.8108,3.7778,3.7195,3.6656,3.6252,3.5938,3.5624,3.5519,3.5489,3.5489,3.5489,3.5489,3.5489,3.5489,3.5489,3.5489,3.5489,3.5489,3.5489,3.5489,3.5489,3.5489,3.5489,3.5489,3.5489,3.5489,3.5489,3.5489,3.5489,3.5489,3.5489,3.5489,3.5355,3.522,3.4607,3.3933,3.3335,3.2706,3.2213,3.175,3.1511,3.1496,3.1496,3.1496,3.1406,3.1376,3.1107,3.0597,3.0163,3.0223,3.0028,2.9579,2.925,2.8966,2.8607,2.8364,2.8049,2.769,2.7555,2.748,2.7495,2.7285,2.6866,2.6557,2.6422,2.6333,2.6303,2.6213,2.6168,2.6138,2.5674,2.5061,4.8763,4.7997,4.7603,4.7737,4.8015,4.7239,4.734,4.7933,4.7239,4.707,4.7306,4.702,4.6643,4.6454,4.6609,4.6609,4.5921,4.5545,4.5482,4.5154,4.4658,4.3836,4.3004,4.2345,4.1566,4.0746,3.9724,3.9388,3.9433,3.9388,3.9388,3.9388,3.9388,3.9388,3.9388,3.9388,3.9388,3.9388,3.9388,3.9388,3.9388,3.9313,3.9065,3.8601,3.8227,3.7734,3.733,3.6866,3.6507,3.5983,3.5699,3.5519,3.5489,3.5489,3.5489,3.5489,3.5489,3.5489,3.5489,3.5489,3.5489,3.5489,3.5519,3.5534,3.5489,3.5489,3.5489,3.5489,3.5489,3.5489,3.5489,3.5489,3.5489,3.5489,3.5489,3.5429,3.537,3.51,3.4517,3.3963,3.3365,3.2766,3.2213,3.16,3.1585,3.1496,3.1496,3.1511,3.1511,3.1496,3.0987,3.0717,3.0746,3.0567,3.0133,2.9879,2.9726,2.931,2.8876,2.8304,2.7839,2.7675,2.7585,2.7555,2.7525,2.7405,2.7151,2.6971,2.7016,2.7031,2.6881,2.6731,2.6711,2.6714,2.621,4.9528,4.9035,4.897,4.897,4.8909,4.8161,4.8225,4.875,4.8161,4.8193,4.8688,4.8047,4.7273,4.7138,4.7306,4.7523,4.7373,4.6728,4.633,4.6048,4.5638,4.5108,4.4605,4.4031,4.2949,4.1626,4.0389,3.9884,3.9642,3.9508,3.9388,3.9388,3.9388,3.9388,3.9388,3.9388,3.9388,3.9388,3.9388,3.9388,3.9388,3.9388,3.908,3.8736,3.8467,3.8153,3.7749,3.7449,3.718,3.6626,3.6043,3.5714,3.5519,3.5489,3.5489,3.5489,3.5489,3.5489,3.5489,3.5489,3.5489,3.5504,3.5549,3.5609,3.5609,3.5624,3.5624,3.5519,3.5519,3.5489,3.5489,3.5489,3.5489,3.5489,3.5489,3.5489,3.5474,3.5459,3.4996,3.4487,3.3918,3.3305,3.2617,3.1959,3.1765,3.166,3.157,3.154,3.154,3.1511,3.1271,3.1137,3.1167,3.0928,3.0672,3.0522,3.0372,2.9924,2.943,2.8622,2.8049,2.8019,2.7869,2.7585,2.7555,2.7535,2.755,2.739,2.7495,2.767,2.7618,2.7513,2.7622,2.7576,2.7376,4.9137,4.9018,4.9018,4.9018,4.8954,4.8798,4.8829,4.897,4.8829,4.8861,4.8909,4.8909,4.8576,4.8433,4.8576,4.8465,4.7836,4.7473,4.7456,4.7323,4.6831,4.6463,4.5941,4.5198,4.4012,4.2685,4.1352,4.0446,4.0435,3.9935,3.9418,3.9499,3.9469,3.9418,3.9388,3.9388,3.9388,3.9388,3.9388,3.9388,3.9388,3.9373,3.9394,3.9245,3.9179,3.8781,3.8407,3.8212,3.7808,3.727,3.6596,3.6058,3.5729,3.5549,3.5489,3.5489,3.5489,3.5489,3.5489,3.5489,3.5504,3.5699,3.5804,3.6013,3.6043,3.6088,3.5953,3.5624,3.5579,3.5504,3.5489,3.5489,3.5489,3.5489,3.5489,3.5489,3.5489,3.5415,3.519,3.4803,3.4384,3.3634,3.2871,3.2497,3.2392,3.2258,3.2049,3.1974,3.154,3.1511,3.1496,3.1524,3.1553,3.1496,3.1286,3.1152,3.0957,3.0537,2.9998,2.922,2.8682,2.8487,2.8263,2.7764,2.765,2.767,2.766,2.7845,2.8052,2.8216,2.8304,2.833,2.8439,2.8417,2.8191]}]]